<?xml version="1.0" encoding="UTF-8" standalone="no" ?>
<gpx xmlns="http://www.topografix.com/GPX/1/1" xmlns:xsi="http://www.w3.org/2001/XMLSchema-instance" xsi:schemaLocation="http://www.topografix.com/GPX/1/1 http://www.topografix.com/GPX/1/1/gpx.xsd" version="1.1" creator="VisuGPX - https://www.visugpx.com">
  <metadata>
    <name>Marsannay la Côte- Marche nordique</name>
    <desc><![CDATA[Départ Sapin du Garde - Combes Semetrot Pevenelle - Facile ]]></desc>
  </metadata>
  <trk>
    <name><![CDATA[Marsannay-la-Côte Course à pied]]></name>
    <trkseg>
      <trkpt lat="47.28216" lon="4.97292">
        <ele>328.20001220703</ele>
        <time>2015-08-29T06:13:13.000Z</time>
      </trkpt>
      <trkpt lat="47.28217" lon="4.97286">
        <ele>328.60000610352</ele>
        <time>2015-08-29T06:13:17.000Z</time>
      </trkpt>
      <trkpt lat="47.28221" lon="4.97279">
        <ele>329.20001220703</ele>
        <time>2015-08-29T06:13:22.000Z</time>
      </trkpt>
      <trkpt lat="47.28224" lon="4.97274">
        <ele>329.60000610352</ele>
        <time>2015-08-29T06:13:25.000Z</time>
      </trkpt>
      <trkpt lat="47.28225" lon="4.97267">
        <ele>330</ele>
        <time>2015-08-29T06:13:29.000Z</time>
      </trkpt>
      <trkpt lat="47.28226" lon="4.97263">
        <ele>329.79998779297</ele>
        <time>2015-08-29T06:13:31.000Z</time>
      </trkpt>
      <trkpt lat="47.28232" lon="4.97257">
        <ele>329.20001220703</ele>
        <time>2015-08-29T06:13:35.000Z</time>
      </trkpt>
      <trkpt lat="47.28236" lon="4.97252">
        <ele>328.79998779297</ele>
        <time>2015-08-29T06:13:39.000Z</time>
      </trkpt>
      <trkpt lat="47.28238" lon="4.97249">
        <ele>328.60000610352</ele>
        <time>2015-08-29T06:13:41.000Z</time>
      </trkpt>
      <trkpt lat="47.28237" lon="4.9724">
        <ele>328.39999389648</ele>
        <time>2015-08-29T06:13:46.000Z</time>
      </trkpt>
      <trkpt lat="47.2824" lon="4.97234">
        <ele>328.20001220703</ele>
        <time>2015-08-29T06:13:49.000Z</time>
      </trkpt>
      <trkpt lat="47.28238" lon="4.97226">
        <ele>328</ele>
        <time>2015-08-29T06:13:52.000Z</time>
      </trkpt>
      <trkpt lat="47.28237" lon="4.97224">
        <ele>328</ele>
        <time>2015-08-29T06:13:53.000Z</time>
      </trkpt>
      <trkpt lat="47.28238" lon="4.97218">
        <ele>327.79998779297</ele>
        <time>2015-08-29T06:13:56.000Z</time>
      </trkpt>
      <trkpt lat="47.28239" lon="4.97215">
        <ele>327.79998779297</ele>
        <time>2015-08-29T06:13:58.000Z</time>
      </trkpt>
      <trkpt lat="47.28234" lon="4.97203">
        <ele>328.20001220703</ele>
        <time>2015-08-29T06:14:03.000Z</time>
      </trkpt>
      <trkpt lat="47.28234" lon="4.97201">
        <ele>328.39999389648</ele>
        <time>2015-08-29T06:14:04.000Z</time>
      </trkpt>
      <trkpt lat="47.28233" lon="4.97198">
        <ele>328.60000610352</ele>
        <time>2015-08-29T06:14:05.000Z</time>
      </trkpt>
      <trkpt lat="47.28232" lon="4.97184">
        <ele>329</ele>
        <time>2015-08-29T06:14:10.000Z</time>
      </trkpt>
      <trkpt lat="47.28232" lon="4.9718">
        <ele>329</ele>
        <time>2015-08-29T06:14:12.000Z</time>
      </trkpt>
      <trkpt lat="47.28234" lon="4.97177">
        <ele>328.60000610352</ele>
        <time>2015-08-29T06:14:14.000Z</time>
      </trkpt>
      <trkpt lat="47.28232" lon="4.97166">
        <ele>329</ele>
        <time>2015-08-29T06:14:19.000Z</time>
      </trkpt>
      <trkpt lat="47.28232" lon="4.97156">
        <ele>329</ele>
        <time>2015-08-29T06:14:23.000Z</time>
      </trkpt>
      <trkpt lat="47.28236" lon="4.97146">
        <ele>328.39999389648</ele>
        <time>2015-08-29T06:14:28.000Z</time>
      </trkpt>
      <trkpt lat="47.28237" lon="4.97137">
        <ele>328.20001220703</ele>
        <time>2015-08-29T06:14:31.000Z</time>
      </trkpt>
      <trkpt lat="47.2824" lon="4.97128">
        <ele>327.79998779297</ele>
        <time>2015-08-29T06:14:35.000Z</time>
      </trkpt>
      <trkpt lat="47.28238" lon="4.97121">
        <ele>328.39999389648</ele>
        <time>2015-08-29T06:14:38.000Z</time>
      </trkpt>
      <trkpt lat="47.2824" lon="4.97118">
        <ele>328.39999389648</ele>
        <time>2015-08-29T06:14:40.000Z</time>
      </trkpt>
      <trkpt lat="47.28242" lon="4.97109">
        <ele>328.20001220703</ele>
        <time>2015-08-29T06:14:44.000Z</time>
      </trkpt>
      <trkpt lat="47.28242" lon="4.97107">
        <ele>328.20001220703</ele>
        <time>2015-08-29T06:14:45.000Z</time>
      </trkpt>
      <trkpt lat="47.28243" lon="4.97099">
        <ele>328.20001220703</ele>
        <time>2015-08-29T06:14:49.000Z</time>
      </trkpt>
      <trkpt lat="47.28246" lon="4.97087">
        <ele>328</ele>
        <time>2015-08-29T06:14:54.000Z</time>
      </trkpt>
      <trkpt lat="47.28247" lon="4.97086">
        <ele>328</ele>
        <time>2015-08-29T06:14:55.000Z</time>
      </trkpt>
      <trkpt lat="47.28245" lon="4.97082">
        <ele>328.20001220703</ele>
        <time>2015-08-29T06:14:56.000Z</time>
      </trkpt>
      <trkpt lat="47.28245" lon="4.9708">
        <ele>328.39999389648</ele>
        <time>2015-08-29T06:14:57.000Z</time>
      </trkpt>
      <trkpt lat="47.28244" lon="4.97066">
        <ele>328.79998779297</ele>
        <time>2015-08-29T06:15:04.000Z</time>
      </trkpt>
      <trkpt lat="47.28246" lon="4.97061">
        <ele>328.60000610352</ele>
        <time>2015-08-29T06:15:07.000Z</time>
      </trkpt>
      <trkpt lat="47.28247" lon="4.97058">
        <ele>328.60000610352</ele>
        <time>2015-08-29T06:15:09.000Z</time>
      </trkpt>
      <trkpt lat="47.28246" lon="4.9705">
        <ele>329</ele>
        <time>2015-08-29T06:15:13.000Z</time>
      </trkpt>
      <trkpt lat="47.28247" lon="4.97043">
        <ele>329.20001220703</ele>
        <time>2015-08-29T06:15:15.000Z</time>
      </trkpt>
      <trkpt lat="47.28249" lon="4.97039">
        <ele>329.60000610352</ele>
        <time>2015-08-29T06:15:19.000Z</time>
      </trkpt>
      <trkpt lat="47.28249" lon="4.97029">
        <ele>329.79998779297</ele>
        <time>2015-08-29T06:15:23.000Z</time>
      </trkpt>
      <trkpt lat="47.2825" lon="4.97021">
        <ele>330.20001220703</ele>
        <time>2015-08-29T06:15:27.000Z</time>
      </trkpt>
      <trkpt lat="47.28251" lon="4.97016">
        <ele>330.39999389648</ele>
        <time>2015-08-29T06:15:29.000Z</time>
      </trkpt>
      <trkpt lat="47.28253" lon="4.97011">
        <ele>331</ele>
        <time>2015-08-29T06:15:31.000Z</time>
      </trkpt>
      <trkpt lat="47.28253" lon="4.97002">
        <ele>331</ele>
        <time>2015-08-29T06:15:35.000Z</time>
      </trkpt>
      <trkpt lat="47.28254" lon="4.97001">
        <ele>331.39999389648</ele>
        <time>2015-08-29T06:15:36.000Z</time>
      </trkpt>
      <trkpt lat="47.28253" lon="4.96994">
        <ele>331.20001220703</ele>
        <time>2015-08-29T06:15:39.000Z</time>
      </trkpt>
      <trkpt lat="47.28254" lon="4.96991">
        <ele>331.39999389648</ele>
        <time>2015-08-29T06:15:42.000Z</time>
      </trkpt>
      <trkpt lat="47.28258" lon="4.96979">
        <ele>332.60000610352</ele>
        <time>2015-08-29T06:15:47.000Z</time>
      </trkpt>
      <trkpt lat="47.28256" lon="4.96976">
        <ele>332.20001220703</ele>
        <time>2015-08-29T06:15:48.000Z</time>
      </trkpt>
      <trkpt lat="47.28258" lon="4.96972">
        <ele>332.79998779297</ele>
        <time>2015-08-29T06:15:51.000Z</time>
      </trkpt>
      <trkpt lat="47.28262" lon="4.96965">
        <ele>333.20001220703</ele>
        <time>2015-08-29T06:15:55.000Z</time>
      </trkpt>
      <trkpt lat="47.28264" lon="4.96955">
        <ele>333.39999389648</ele>
        <time>2015-08-29T06:15:59.000Z</time>
      </trkpt>
      <trkpt lat="47.28264" lon="4.96952">
        <ele>333.60000610352</ele>
        <time>2015-08-29T06:16:01.000Z</time>
      </trkpt>
      <trkpt lat="47.28264" lon="4.96949">
        <ele>333.60000610352</ele>
        <time>2015-08-29T06:16:03.000Z</time>
      </trkpt>
      <trkpt lat="47.28265" lon="4.96939">
        <ele>334.20001220703</ele>
        <time>2015-08-29T06:16:08.000Z</time>
      </trkpt>
      <trkpt lat="47.28267" lon="4.96928">
        <ele>335</ele>
        <time>2015-08-29T06:16:13.000Z</time>
      </trkpt>
      <trkpt lat="47.28267" lon="4.96925">
        <ele>335.20001220703</ele>
        <time>2015-08-29T06:16:15.000Z</time>
      </trkpt>
      <trkpt lat="47.28268" lon="4.96917">
        <ele>335.60000610352</ele>
        <time>2015-08-29T06:16:19.000Z</time>
      </trkpt>
      <trkpt lat="47.28274" lon="4.96904">
        <ele>337.20001220703</ele>
        <time>2015-08-29T06:16:25.000Z</time>
      </trkpt>
      <trkpt lat="47.28276" lon="4.96896">
        <ele>337.20001220703</ele>
        <time>2015-08-29T06:16:29.000Z</time>
      </trkpt>
      <trkpt lat="47.28276" lon="4.96886">
        <ele>336.60000610352</ele>
        <time>2015-08-29T06:16:34.000Z</time>
      </trkpt>
      <trkpt lat="47.28276" lon="4.96884">
        <ele>336.39999389648</ele>
        <time>2015-08-29T06:16:35.000Z</time>
      </trkpt>
      <trkpt lat="47.28277" lon="4.96881">
        <ele>336.20001220703</ele>
        <time>2015-08-29T06:16:37.000Z</time>
      </trkpt>
      <trkpt lat="47.28276" lon="4.96879">
        <ele>336.20001220703</ele>
        <time>2015-08-29T06:16:39.000Z</time>
      </trkpt>
      <trkpt lat="47.28282" lon="4.96869">
        <ele>337</ele>
        <time>2015-08-29T06:16:45.000Z</time>
      </trkpt>
      <trkpt lat="47.28282" lon="4.96862">
        <ele>337.60000610352</ele>
        <time>2015-08-29T06:16:48.000Z</time>
      </trkpt>
      <trkpt lat="47.28289" lon="4.96856">
        <ele>338.79998779297</ele>
        <time>2015-08-29T06:16:52.000Z</time>
      </trkpt>
      <trkpt lat="47.28293" lon="4.9685">
        <ele>339.79998779297</ele>
        <time>2015-08-29T06:16:56.000Z</time>
      </trkpt>
      <trkpt lat="47.28294" lon="4.96845">
        <ele>340.39999389648</ele>
        <time>2015-08-29T06:16:58.000Z</time>
      </trkpt>
      <trkpt lat="47.28296" lon="4.96842">
        <ele>340.79998779297</ele>
        <time>2015-08-29T06:17:00.000Z</time>
      </trkpt>
      <trkpt lat="47.28299" lon="4.96831">
        <ele>340.20001220703</ele>
        <time>2015-08-29T06:17:05.000Z</time>
      </trkpt>
      <trkpt lat="47.28299" lon="4.96825">
        <ele>339.79998779297</ele>
        <time>2015-08-29T06:17:07.000Z</time>
      </trkpt>
      <trkpt lat="47.283" lon="4.96822">
        <ele>339.60000610352</ele>
        <time>2015-08-29T06:17:09.000Z</time>
      </trkpt>
      <trkpt lat="47.28304" lon="4.96811">
        <ele>338.79998779297</ele>
        <time>2015-08-29T06:17:14.000Z</time>
      </trkpt>
      <trkpt lat="47.28303" lon="4.96808">
        <ele>338.60000610352</ele>
        <time>2015-08-29T06:17:16.000Z</time>
      </trkpt>
      <trkpt lat="47.28307" lon="4.96801">
        <ele>338</ele>
        <time>2015-08-29T06:17:20.000Z</time>
      </trkpt>
      <trkpt lat="47.28309" lon="4.96796">
        <ele>337.60000610352</ele>
        <time>2015-08-29T06:17:23.000Z</time>
      </trkpt>
      <trkpt lat="47.28311" lon="4.96787">
        <ele>337.39999389648</ele>
        <time>2015-08-29T06:17:28.000Z</time>
      </trkpt>
      <trkpt lat="47.28311" lon="4.96785">
        <ele>337.39999389648</ele>
        <time>2015-08-29T06:17:29.000Z</time>
      </trkpt>
      <trkpt lat="47.28312" lon="4.96782">
        <ele>337.60000610352</ele>
        <time>2015-08-29T06:17:31.000Z</time>
      </trkpt>
      <trkpt lat="47.28317" lon="4.96775">
        <ele>337.39999389648</ele>
        <time>2015-08-29T06:17:35.000Z</time>
      </trkpt>
      <trkpt lat="47.2832" lon="4.96767">
        <ele>336.60000610352</ele>
        <time>2015-08-29T06:17:39.000Z</time>
      </trkpt>
      <trkpt lat="47.28326" lon="4.96762">
        <ele>335.60000610352</ele>
        <time>2015-08-29T06:17:43.000Z</time>
      </trkpt>
      <trkpt lat="47.28328" lon="4.96755">
        <ele>335</ele>
        <time>2015-08-29T06:17:46.000Z</time>
      </trkpt>
      <trkpt lat="47.28329" lon="4.96754">
        <ele>334.79998779297</ele>
        <time>2015-08-29T06:17:47.000Z</time>
      </trkpt>
      <trkpt lat="47.28332" lon="4.96748">
        <ele>335.20001220703</ele>
        <time>2015-08-29T06:17:50.000Z</time>
      </trkpt>
      <trkpt lat="47.28334" lon="4.96737">
        <ele>335.60000610352</ele>
        <time>2015-08-29T06:17:55.000Z</time>
      </trkpt>
      <trkpt lat="47.28336" lon="4.9673">
        <ele>336.20001220703</ele>
        <time>2015-08-29T06:17:58.000Z</time>
      </trkpt>
      <trkpt lat="47.28342" lon="4.96725">
        <ele>338.20001220703</ele>
        <time>2015-08-29T06:18:03.000Z</time>
      </trkpt>
      <trkpt lat="47.28345" lon="4.96711">
        <ele>337</ele>
        <time>2015-08-29T06:18:09.000Z</time>
      </trkpt>
      <trkpt lat="47.28345" lon="4.9671">
        <ele>336.79998779297</ele>
        <time>2015-08-29T06:18:10.000Z</time>
      </trkpt>
      <trkpt lat="47.28345" lon="4.96708">
        <ele>336.39999389648</ele>
        <time>2015-08-29T06:18:11.000Z</time>
      </trkpt>
      <trkpt lat="47.28348" lon="4.96696">
        <ele>337.79998779297</ele>
        <time>2015-08-29T06:18:16.000Z</time>
      </trkpt>
      <trkpt lat="47.28349" lon="4.96694">
        <ele>338.20001220703</ele>
        <time>2015-08-29T06:18:18.000Z</time>
      </trkpt>
      <trkpt lat="47.2835" lon="4.9669">
        <ele>338.60000610352</ele>
        <time>2015-08-29T06:18:20.000Z</time>
      </trkpt>
      <trkpt lat="47.28349" lon="4.96679">
        <ele>339.20001220703</ele>
        <time>2015-08-29T06:18:24.000Z</time>
      </trkpt>
      <trkpt lat="47.28348" lon="4.96678">
        <ele>339.20001220703</ele>
        <time>2015-08-29T06:18:25.000Z</time>
      </trkpt>
      <trkpt lat="47.2835" lon="4.96675">
        <ele>339.60000610352</ele>
        <time>2015-08-29T06:18:26.000Z</time>
      </trkpt>
      <trkpt lat="47.28347" lon="4.96665">
        <ele>339.79998779297</ele>
        <time>2015-08-29T06:18:29.000Z</time>
      </trkpt>
      <trkpt lat="47.28346" lon="4.96663">
        <ele>339.79998779297</ele>
        <time>2015-08-29T06:18:30.000Z</time>
      </trkpt>
      <trkpt lat="47.28347" lon="4.96661">
        <ele>340.20001220703</ele>
        <time>2015-08-29T06:18:31.000Z</time>
      </trkpt>
      <trkpt lat="47.28342" lon="4.96651">
        <ele>339.79998779297</ele>
        <time>2015-08-29T06:18:35.000Z</time>
      </trkpt>
      <trkpt lat="47.28338" lon="4.96643">
        <ele>339.39999389648</ele>
        <time>2015-08-29T06:18:38.000Z</time>
      </trkpt>
      <trkpt lat="47.28337" lon="4.9664">
        <ele>339.60000610352</ele>
        <time>2015-08-29T06:18:39.000Z</time>
      </trkpt>
      <trkpt lat="47.28337" lon="4.96636">
        <ele>339.79998779297</ele>
        <time>2015-08-29T06:18:41.000Z</time>
      </trkpt>
      <trkpt lat="47.28342" lon="4.96627">
        <ele>339.60000610352</ele>
        <time>2015-08-29T06:18:46.000Z</time>
      </trkpt>
      <trkpt lat="47.28341" lon="4.96621">
        <ele>339.39999389648</ele>
        <time>2015-08-29T06:18:49.000Z</time>
      </trkpt>
      <trkpt lat="47.28343" lon="4.96618">
        <ele>339.39999389648</ele>
        <time>2015-08-29T06:18:50.000Z</time>
      </trkpt>
      <trkpt lat="47.28347" lon="4.9661">
        <ele>339.79998779297</ele>
        <time>2015-08-29T06:18:56.000Z</time>
      </trkpt>
      <trkpt lat="47.28343" lon="4.96596">
        <ele>340</ele>
        <time>2015-08-29T06:19:02.000Z</time>
      </trkpt>
      <trkpt lat="47.28341" lon="4.96592">
        <ele>340</ele>
        <time>2015-08-29T06:19:03.000Z</time>
      </trkpt>
      <trkpt lat="47.28338" lon="4.96585">
        <ele>340.20001220703</ele>
        <time>2015-08-29T06:19:06.000Z</time>
      </trkpt>
      <trkpt lat="47.28336" lon="4.9658">
        <ele>340.20001220703</ele>
        <time>2015-08-29T06:19:08.000Z</time>
      </trkpt>
      <trkpt lat="47.28336" lon="4.96567">
        <ele>340.60000610352</ele>
        <time>2015-08-29T06:19:13.000Z</time>
      </trkpt>
      <trkpt lat="47.28336" lon="4.96565">
        <ele>340.60000610352</ele>
        <time>2015-08-29T06:19:14.000Z</time>
      </trkpt>
      <trkpt lat="47.28335" lon="4.9656">
        <ele>340.60000610352</ele>
        <time>2015-08-29T06:19:16.000Z</time>
      </trkpt>
      <trkpt lat="47.28335" lon="4.96552">
        <ele>340.79998779297</ele>
        <time>2015-08-29T06:19:20.000Z</time>
      </trkpt>
      <trkpt lat="47.28335" lon="4.96545">
        <ele>341</ele>
        <time>2015-08-29T06:19:22.000Z</time>
      </trkpt>
      <trkpt lat="47.28334" lon="4.96541">
        <ele>341.20001220703</ele>
        <time>2015-08-29T06:19:24.000Z</time>
      </trkpt>
      <trkpt lat="47.28333" lon="4.96535">
        <ele>341.20001220703</ele>
        <time>2015-08-29T06:19:27.000Z</time>
      </trkpt>
      <trkpt lat="47.28335" lon="4.96529">
        <ele>341.20001220703</ele>
        <time>2015-08-29T06:19:30.000Z</time>
      </trkpt>
      <trkpt lat="47.28334" lon="4.9652">
        <ele>341.39999389648</ele>
        <time>2015-08-29T06:19:35.000Z</time>
      </trkpt>
      <trkpt lat="47.28333" lon="4.96514">
        <ele>341.39999389648</ele>
        <time>2015-08-29T06:19:38.000Z</time>
      </trkpt>
      <trkpt lat="47.28329" lon="4.9651">
        <ele>341.39999389648</ele>
        <time>2015-08-29T06:19:40.000Z</time>
      </trkpt>
      <trkpt lat="47.28328" lon="4.96498">
        <ele>341.79998779297</ele>
        <time>2015-08-29T06:19:45.000Z</time>
      </trkpt>
      <trkpt lat="47.28327" lon="4.96491">
        <ele>342</ele>
        <time>2015-08-29T06:19:48.000Z</time>
      </trkpt>
      <trkpt lat="47.28327" lon="4.96482">
        <ele>342.20001220703</ele>
        <time>2015-08-29T06:19:53.000Z</time>
      </trkpt>
      <trkpt lat="47.28327" lon="4.96481">
        <ele>342.20001220703</ele>
        <time>2015-08-29T06:19:54.000Z</time>
      </trkpt>
      <trkpt lat="47.28327" lon="4.96476">
        <ele>342.39999389648</ele>
        <time>2015-08-29T06:19:56.000Z</time>
      </trkpt>
      <trkpt lat="47.28327" lon="4.96475">
        <ele>342.39999389648</ele>
        <time>2015-08-29T06:19:57.000Z</time>
      </trkpt>
      <trkpt lat="47.28321" lon="4.96461">
        <ele>343.79998779297</ele>
        <time>2015-08-29T06:20:04.000Z</time>
      </trkpt>
      <trkpt lat="47.28317" lon="4.96449">
        <ele>344.20001220703</ele>
        <time>2015-08-29T06:20:10.000Z</time>
      </trkpt>
      <trkpt lat="47.28316" lon="4.9644">
        <ele>344.60000610352</ele>
        <time>2015-08-29T06:20:15.000Z</time>
      </trkpt>
      <trkpt lat="47.28316" lon="4.96438">
        <ele>344.60000610352</ele>
        <time>2015-08-29T06:20:16.000Z</time>
      </trkpt>
      <trkpt lat="47.28315" lon="4.9643">
        <ele>345.20001220703</ele>
        <time>2015-08-29T06:20:20.000Z</time>
      </trkpt>
      <trkpt lat="47.28315" lon="4.96422">
        <ele>345.79998779297</ele>
        <time>2015-08-29T06:20:24.000Z</time>
      </trkpt>
      <trkpt lat="47.28311" lon="4.96413">
        <ele>346.79998779297</ele>
        <time>2015-08-29T06:20:28.000Z</time>
      </trkpt>
      <trkpt lat="47.2831" lon="4.96404">
        <ele>347.39999389648</ele>
        <time>2015-08-29T06:20:32.000Z</time>
      </trkpt>
      <trkpt lat="47.28309" lon="4.96402">
        <ele>347.60000610352</ele>
        <time>2015-08-29T06:20:33.000Z</time>
      </trkpt>
      <trkpt lat="47.28308" lon="4.96397">
        <ele>348</ele>
        <time>2015-08-29T06:20:37.000Z</time>
      </trkpt>
      <trkpt lat="47.28304" lon="4.9639">
        <ele>349</ele>
        <time>2015-08-29T06:20:41.000Z</time>
      </trkpt>
      <trkpt lat="47.28303" lon="4.96388">
        <ele>349</ele>
        <time>2015-08-29T06:20:42.000Z</time>
      </trkpt>
      <trkpt lat="47.28299" lon="4.96379">
        <ele>350</ele>
        <time>2015-08-29T06:20:47.000Z</time>
      </trkpt>
      <trkpt lat="47.28299" lon="4.96376">
        <ele>350.20001220703</ele>
        <time>2015-08-29T06:20:49.000Z</time>
      </trkpt>
      <trkpt lat="47.28298" lon="4.96372">
        <ele>350.20001220703</ele>
        <time>2015-08-29T06:20:51.000Z</time>
      </trkpt>
      <trkpt lat="47.28294" lon="4.96363">
        <ele>350.39999389648</ele>
        <time>2015-08-29T06:20:57.000Z</time>
      </trkpt>
      <trkpt lat="47.28292" lon="4.9636">
        <ele>350.39999389648</ele>
        <time>2015-08-29T06:21:00.000Z</time>
      </trkpt>
      <trkpt lat="47.28292" lon="4.96356">
        <ele>350.20001220703</ele>
        <time>2015-08-29T06:21:02.000Z</time>
      </trkpt>
      <trkpt lat="47.28292" lon="4.96354">
        <ele>350</ele>
        <time>2015-08-29T06:21:04.000Z</time>
      </trkpt>
      <trkpt lat="47.28292" lon="4.96351">
        <ele>350</ele>
        <time>2015-08-29T06:21:05.000Z</time>
      </trkpt>
      <trkpt lat="47.2829" lon="4.9634">
        <ele>349.60000610352</ele>
        <time>2015-08-29T06:21:12.000Z</time>
      </trkpt>
      <trkpt lat="47.2829" lon="4.96339">
        <ele>349.60000610352</ele>
        <time>2015-08-29T06:21:13.000Z</time>
      </trkpt>
      <trkpt lat="47.28289" lon="4.96336">
        <ele>349.60000610352</ele>
        <time>2015-08-29T06:21:15.000Z</time>
      </trkpt>
      <trkpt lat="47.28283" lon="4.96327">
        <ele>350</ele>
        <time>2015-08-29T06:21:19.000Z</time>
      </trkpt>
      <trkpt lat="47.28279" lon="4.96315">
        <ele>351</ele>
        <time>2015-08-29T06:21:25.000Z</time>
      </trkpt>
      <trkpt lat="47.28271" lon="4.96306">
        <ele>351.60000610352</ele>
        <time>2015-08-29T06:21:29.000Z</time>
      </trkpt>
      <trkpt lat="47.28269" lon="4.96304">
        <ele>351.79998779297</ele>
        <time>2015-08-29T06:21:30.000Z</time>
      </trkpt>
      <trkpt lat="47.28268" lon="4.96302">
        <ele>352</ele>
        <time>2015-08-29T06:21:31.000Z</time>
      </trkpt>
      <trkpt lat="47.28265" lon="4.96295">
        <ele>352.60000610352</ele>
        <time>2015-08-29T06:21:35.000Z</time>
      </trkpt>
      <trkpt lat="47.28261" lon="4.9629">
        <ele>353</ele>
        <time>2015-08-29T06:21:38.000Z</time>
      </trkpt>
      <trkpt lat="47.28258" lon="4.96284">
        <ele>353.39999389648</ele>
        <time>2015-08-29T06:21:42.000Z</time>
      </trkpt>
      <trkpt lat="47.28252" lon="4.96276">
        <ele>353.79998779297</ele>
        <time>2015-08-29T06:21:46.000Z</time>
      </trkpt>
      <trkpt lat="47.28249" lon="4.96269">
        <ele>354.20001220703</ele>
        <time>2015-08-29T06:21:50.000Z</time>
      </trkpt>
      <trkpt lat="47.28251" lon="4.96266">
        <ele>354.60000610352</ele>
        <time>2015-08-29T06:21:54.000Z</time>
      </trkpt>
      <trkpt lat="47.28246" lon="4.96256">
        <ele>355.39999389648</ele>
        <time>2015-08-29T06:21:59.000Z</time>
      </trkpt>
      <trkpt lat="47.28247" lon="4.96254">
        <ele>355.60000610352</ele>
        <time>2015-08-29T06:22:00.000Z</time>
      </trkpt>
      <trkpt lat="47.28247" lon="4.96251">
        <ele>355.79998779297</ele>
        <time>2015-08-29T06:22:02.000Z</time>
      </trkpt>
      <trkpt lat="47.28241" lon="4.96241">
        <ele>356.79998779297</ele>
        <time>2015-08-29T06:22:07.000Z</time>
      </trkpt>
      <trkpt lat="47.28238" lon="4.96233">
        <ele>357.60000610352</ele>
        <time>2015-08-29T06:22:11.000Z</time>
      </trkpt>
      <trkpt lat="47.28242" lon="4.96232">
        <ele>357.60000610352</ele>
        <time>2015-08-29T06:22:14.000Z</time>
      </trkpt>
      <trkpt lat="47.28241" lon="4.9623">
        <ele>357.79998779297</ele>
        <time>2015-08-29T06:22:15.000Z</time>
      </trkpt>
      <trkpt lat="47.28239" lon="4.96225">
        <ele>358.39999389648</ele>
        <time>2015-08-29T06:22:17.000Z</time>
      </trkpt>
      <trkpt lat="47.28233" lon="4.96218">
        <ele>359</ele>
        <time>2015-08-29T06:22:22.000Z</time>
      </trkpt>
      <trkpt lat="47.28232" lon="4.96217">
        <ele>359</ele>
        <time>2015-08-29T06:22:23.000Z</time>
      </trkpt>
      <trkpt lat="47.28225" lon="4.96211">
        <ele>359.60000610352</ele>
        <time>2015-08-29T06:22:27.000Z</time>
      </trkpt>
      <trkpt lat="47.28221" lon="4.96207">
        <ele>360</ele>
        <time>2015-08-29T06:22:30.000Z</time>
      </trkpt>
      <trkpt lat="47.28219" lon="4.96205">
        <ele>360</ele>
        <time>2015-08-29T06:22:32.000Z</time>
      </trkpt>
      <trkpt lat="47.28218" lon="4.96198">
        <ele>360</ele>
        <time>2015-08-29T06:22:35.000Z</time>
      </trkpt>
      <trkpt lat="47.28215" lon="4.96191">
        <ele>360</ele>
        <time>2015-08-29T06:22:39.000Z</time>
      </trkpt>
      <trkpt lat="47.28213" lon="4.96185">
        <ele>360</ele>
        <time>2015-08-29T06:22:42.000Z</time>
      </trkpt>
      <trkpt lat="47.28209" lon="4.96177">
        <ele>360</ele>
        <time>2015-08-29T06:22:47.000Z</time>
      </trkpt>
      <trkpt lat="47.28208" lon="4.96176">
        <ele>360</ele>
        <time>2015-08-29T06:22:48.000Z</time>
      </trkpt>
      <trkpt lat="47.28199" lon="4.96164">
        <ele>360</ele>
        <time>2015-08-29T06:22:55.000Z</time>
      </trkpt>
      <trkpt lat="47.28199" lon="4.96163">
        <ele>360</ele>
        <time>2015-08-29T06:22:56.000Z</time>
      </trkpt>
      <trkpt lat="47.28197" lon="4.96157">
        <ele>360.20001220703</ele>
        <time>2015-08-29T06:23:00.000Z</time>
      </trkpt>
      <trkpt lat="47.28198" lon="4.96149">
        <ele>361.79998779297</ele>
        <time>2015-08-29T06:23:04.000Z</time>
      </trkpt>
      <trkpt lat="47.28194" lon="4.96143">
        <ele>362.20001220703</ele>
        <time>2015-08-29T06:23:07.000Z</time>
      </trkpt>
      <trkpt lat="47.2819" lon="4.96136">
        <ele>362.79998779297</ele>
        <time>2015-08-29T06:23:10.000Z</time>
      </trkpt>
      <trkpt lat="47.28188" lon="4.96127">
        <ele>363.79998779297</ele>
        <time>2015-08-29T06:23:13.000Z</time>
      </trkpt>
      <trkpt lat="47.28181" lon="4.96118">
        <ele>363.79998779297</ele>
        <time>2015-08-29T06:23:18.000Z</time>
      </trkpt>
      <trkpt lat="47.28178" lon="4.9611">
        <ele>364</ele>
        <time>2015-08-29T06:23:21.000Z</time>
      </trkpt>
      <trkpt lat="47.28178" lon="4.96109">
        <ele>364</ele>
        <time>2015-08-29T06:23:22.000Z</time>
      </trkpt>
      <trkpt lat="47.28177" lon="4.96107">
        <ele>364</ele>
        <time>2015-08-29T06:23:23.000Z</time>
      </trkpt>
      <trkpt lat="47.28173" lon="4.96102">
        <ele>363.79998779297</ele>
        <time>2015-08-29T06:23:26.000Z</time>
      </trkpt>
      <trkpt lat="47.2817" lon="4.96094">
        <ele>363.79998779297</ele>
        <time>2015-08-29T06:23:30.000Z</time>
      </trkpt>
      <trkpt lat="47.2817" lon="4.9609">
        <ele>364.20001220703</ele>
        <time>2015-08-29T06:23:32.000Z</time>
      </trkpt>
      <trkpt lat="47.28169" lon="4.96084">
        <ele>364.39999389648</ele>
        <time>2015-08-29T06:23:36.000Z</time>
      </trkpt>
      <trkpt lat="47.28167" lon="4.96081">
        <ele>364.39999389648</ele>
        <time>2015-08-29T06:23:38.000Z</time>
      </trkpt>
      <trkpt lat="47.28162" lon="4.96076">
        <ele>364.20001220703</ele>
        <time>2015-08-29T06:23:41.000Z</time>
      </trkpt>
      <trkpt lat="47.28158" lon="4.96063">
        <ele>365.60000610352</ele>
        <time>2015-08-29T06:23:46.000Z</time>
      </trkpt>
      <trkpt lat="47.28159" lon="4.96063">
        <ele>365.39999389648</ele>
        <time>2015-08-29T06:23:47.000Z</time>
      </trkpt>
      <trkpt lat="47.28161" lon="4.96058">
        <ele>365.79998779297</ele>
        <time>2015-08-29T06:23:51.000Z</time>
      </trkpt>
      <trkpt lat="47.2816" lon="4.96054">
        <ele>366.20001220703</ele>
        <time>2015-08-29T06:23:54.000Z</time>
      </trkpt>
      <trkpt lat="47.28157" lon="4.96046">
        <ele>367</ele>
        <time>2015-08-29T06:23:59.000Z</time>
      </trkpt>
      <trkpt lat="47.28153" lon="4.96042">
        <ele>367.60000610352</ele>
        <time>2015-08-29T06:24:02.000Z</time>
      </trkpt>
      <trkpt lat="47.28153" lon="4.96039">
        <ele>367.79998779297</ele>
        <time>2015-08-29T06:24:04.000Z</time>
      </trkpt>
      <trkpt lat="47.28144" lon="4.9603">
        <ele>368</ele>
        <time>2015-08-29T06:24:08.000Z</time>
      </trkpt>
      <trkpt lat="47.28142" lon="4.96022">
        <ele>368</ele>
        <time>2015-08-29T06:24:13.000Z</time>
      </trkpt>
      <trkpt lat="47.28141" lon="4.96018">
        <ele>368.20001220703</ele>
        <time>2015-08-29T06:24:15.000Z</time>
      </trkpt>
      <trkpt lat="47.28128" lon="4.96007">
        <ele>368.79998779297</ele>
        <time>2015-08-29T06:24:20.000Z</time>
      </trkpt>
      <trkpt lat="47.28127" lon="4.96006">
        <ele>368.79998779297</ele>
        <time>2015-08-29T06:24:21.000Z</time>
      </trkpt>
      <trkpt lat="47.28125" lon="4.96004">
        <ele>368.79998779297</ele>
        <time>2015-08-29T06:24:22.000Z</time>
      </trkpt>
      <trkpt lat="47.28123" lon="4.95997">
        <ele>369.79998779297</ele>
        <time>2015-08-29T06:24:26.000Z</time>
      </trkpt>
      <trkpt lat="47.28118" lon="4.95989">
        <ele>370.79998779297</ele>
        <time>2015-08-29T06:24:31.000Z</time>
      </trkpt>
      <trkpt lat="47.28117" lon="4.95987">
        <ele>371</ele>
        <time>2015-08-29T06:24:32.000Z</time>
      </trkpt>
      <trkpt lat="47.28116" lon="4.95985">
        <ele>371.39999389648</ele>
        <time>2015-08-29T06:24:34.000Z</time>
      </trkpt>
      <trkpt lat="47.28116" lon="4.95978">
        <ele>372.60000610352</ele>
        <time>2015-08-29T06:24:39.000Z</time>
      </trkpt>
      <trkpt lat="47.28113" lon="4.95974">
        <ele>373</ele>
        <time>2015-08-29T06:24:41.000Z</time>
      </trkpt>
      <trkpt lat="47.28111" lon="4.95971">
        <ele>373.20001220703</ele>
        <time>2015-08-29T06:24:43.000Z</time>
      </trkpt>
      <trkpt lat="47.28104" lon="4.95962">
        <ele>374.20001220703</ele>
        <time>2015-08-29T06:24:47.000Z</time>
      </trkpt>
      <trkpt lat="47.28101" lon="4.95959">
        <ele>374.20001220703</ele>
        <time>2015-08-29T06:24:49.000Z</time>
      </trkpt>
      <trkpt lat="47.28098" lon="4.95954">
        <ele>374.20001220703</ele>
        <time>2015-08-29T06:24:53.000Z</time>
      </trkpt>
      <trkpt lat="47.28095" lon="4.95946">
        <ele>374.39999389648</ele>
        <time>2015-08-29T06:24:58.000Z</time>
      </trkpt>
      <trkpt lat="47.28094" lon="4.95945">
        <ele>374.60000610352</ele>
        <time>2015-08-29T06:24:59.000Z</time>
      </trkpt>
      <trkpt lat="47.28089" lon="4.95938">
        <ele>374.20001220703</ele>
        <time>2015-08-29T06:25:04.000Z</time>
      </trkpt>
      <trkpt lat="47.28089" lon="4.95936">
        <ele>374.20001220703</ele>
        <time>2015-08-29T06:25:05.000Z</time>
      </trkpt>
      <trkpt lat="47.28082" lon="4.95928">
        <ele>374</ele>
        <time>2015-08-29T06:25:10.000Z</time>
      </trkpt>
      <trkpt lat="47.28077" lon="4.95922">
        <ele>374</ele>
        <time>2015-08-29T06:25:13.000Z</time>
      </trkpt>
      <trkpt lat="47.28077" lon="4.9592">
        <ele>374.20001220703</ele>
        <time>2015-08-29T06:25:14.000Z</time>
      </trkpt>
      <trkpt lat="47.28069" lon="4.95912">
        <ele>375.20001220703</ele>
        <time>2015-08-29T06:25:18.000Z</time>
      </trkpt>
      <trkpt lat="47.28066" lon="4.95906">
        <ele>375.79998779297</ele>
        <time>2015-08-29T06:25:22.000Z</time>
      </trkpt>
      <trkpt lat="47.28064" lon="4.95901">
        <ele>376.39999389648</ele>
        <time>2015-08-29T06:25:26.000Z</time>
      </trkpt>
      <trkpt lat="47.28061" lon="4.95892">
        <ele>377.20001220703</ele>
        <time>2015-08-29T06:25:31.000Z</time>
      </trkpt>
      <trkpt lat="47.2806" lon="4.95889">
        <ele>377.39999389648</ele>
        <time>2015-08-29T06:25:32.000Z</time>
      </trkpt>
      <trkpt lat="47.28056" lon="4.95881">
        <ele>378.39999389648</ele>
        <time>2015-08-29T06:25:37.000Z</time>
      </trkpt>
      <trkpt lat="47.28053" lon="4.95875">
        <ele>379</ele>
        <time>2015-08-29T06:25:41.000Z</time>
      </trkpt>
      <trkpt lat="47.2805" lon="4.95872">
        <ele>379</ele>
        <time>2015-08-29T06:25:43.000Z</time>
      </trkpt>
      <trkpt lat="47.28047" lon="4.95865">
        <ele>379</ele>
        <time>2015-08-29T06:25:47.000Z</time>
      </trkpt>
      <trkpt lat="47.28044" lon="4.95856">
        <ele>379</ele>
        <time>2015-08-29T06:25:52.000Z</time>
      </trkpt>
      <trkpt lat="47.28043" lon="4.95854">
        <ele>379</ele>
        <time>2015-08-29T06:25:53.000Z</time>
      </trkpt>
      <trkpt lat="47.28041" lon="4.95849">
        <ele>379</ele>
        <time>2015-08-29T06:25:55.000Z</time>
      </trkpt>
      <trkpt lat="47.28038" lon="4.95838">
        <ele>379</ele>
        <time>2015-08-29T06:26:00.000Z</time>
      </trkpt>
      <trkpt lat="47.28035" lon="4.95832">
        <ele>379</ele>
        <time>2015-08-29T06:26:05.000Z</time>
      </trkpt>
      <trkpt lat="47.28031" lon="4.95825">
        <ele>379.20001220703</ele>
        <time>2015-08-29T06:26:09.000Z</time>
      </trkpt>
      <trkpt lat="47.28029" lon="4.95821">
        <ele>379.79998779297</ele>
        <time>2015-08-29T06:26:13.000Z</time>
      </trkpt>
      <trkpt lat="47.28028" lon="4.95817">
        <ele>380.60000610352</ele>
        <time>2015-08-29T06:26:15.000Z</time>
      </trkpt>
      <trkpt lat="47.28026" lon="4.95813">
        <ele>381</ele>
        <time>2015-08-29T06:26:19.000Z</time>
      </trkpt>
      <trkpt lat="47.28019" lon="4.95801">
        <ele>382.20001220703</ele>
        <time>2015-08-29T06:26:25.000Z</time>
      </trkpt>
      <trkpt lat="47.28017" lon="4.95799">
        <ele>382.39999389648</ele>
        <time>2015-08-29T06:26:26.000Z</time>
      </trkpt>
      <trkpt lat="47.28016" lon="4.95797">
        <ele>382.39999389648</ele>
        <time>2015-08-29T06:26:27.000Z</time>
      </trkpt>
      <trkpt lat="47.28009" lon="4.9579">
        <ele>382.60000610352</ele>
        <time>2015-08-29T06:26:32.000Z</time>
      </trkpt>
      <trkpt lat="47.28007" lon="4.95789">
        <ele>382.39999389648</ele>
        <time>2015-08-29T06:26:33.000Z</time>
      </trkpt>
      <trkpt lat="47.27995" lon="4.95785">
        <ele>380.79998779297</ele>
        <time>2015-08-29T06:26:37.000Z</time>
      </trkpt>
      <trkpt lat="47.27995" lon="4.95784">
        <ele>381</ele>
        <time>2015-08-29T06:26:38.000Z</time>
      </trkpt>
      <trkpt lat="47.27994" lon="4.95775">
        <ele>382</ele>
        <time>2015-08-29T06:26:43.000Z</time>
      </trkpt>
      <trkpt lat="47.27993" lon="4.95768">
        <ele>383</ele>
        <time>2015-08-29T06:26:47.000Z</time>
      </trkpt>
      <trkpt lat="47.27989" lon="4.95759">
        <ele>383.79998779297</ele>
        <time>2015-08-29T06:26:53.000Z</time>
      </trkpt>
      <trkpt lat="47.27986" lon="4.95752">
        <ele>384.60000610352</ele>
        <time>2015-08-29T06:26:57.000Z</time>
      </trkpt>
      <trkpt lat="47.2798" lon="4.95742">
        <ele>385.60000610352</ele>
        <time>2015-08-29T06:27:03.000Z</time>
      </trkpt>
      <trkpt lat="47.27973" lon="4.95734">
        <ele>386</ele>
        <time>2015-08-29T06:27:07.000Z</time>
      </trkpt>
      <trkpt lat="47.27972" lon="4.95733">
        <ele>386</ele>
        <time>2015-08-29T06:27:08.000Z</time>
      </trkpt>
      <trkpt lat="47.27968" lon="4.95728">
        <ele>386.39999389648</ele>
        <time>2015-08-29T06:27:11.000Z</time>
      </trkpt>
      <trkpt lat="47.27967" lon="4.95727">
        <ele>386.39999389648</ele>
        <time>2015-08-29T06:27:12.000Z</time>
      </trkpt>
      <trkpt lat="47.27964" lon="4.9572">
        <ele>387</ele>
        <time>2015-08-29T06:27:16.000Z</time>
      </trkpt>
      <trkpt lat="47.27959" lon="4.95713">
        <ele>387.60000610352</ele>
        <time>2015-08-29T06:27:20.000Z</time>
      </trkpt>
      <trkpt lat="47.27954" lon="4.95708">
        <ele>388</ele>
        <time>2015-08-29T06:27:23.000Z</time>
      </trkpt>
      <trkpt lat="47.27948" lon="4.95699">
        <ele>388.60000610352</ele>
        <time>2015-08-29T06:27:28.000Z</time>
      </trkpt>
      <trkpt lat="47.27945" lon="4.95696">
        <ele>388.79998779297</ele>
        <time>2015-08-29T06:27:31.000Z</time>
      </trkpt>
      <trkpt lat="47.27942" lon="4.95691">
        <ele>389</ele>
        <time>2015-08-29T06:27:34.000Z</time>
      </trkpt>
      <trkpt lat="47.27936" lon="4.95686">
        <ele>389.39999389648</ele>
        <time>2015-08-29T06:27:39.000Z</time>
      </trkpt>
      <trkpt lat="47.27936" lon="4.95685">
        <ele>389.39999389648</ele>
        <time>2015-08-29T06:27:40.000Z</time>
      </trkpt>
      <trkpt lat="47.27932" lon="4.9568">
        <ele>389.79998779297</ele>
        <time>2015-08-29T06:27:44.000Z</time>
      </trkpt>
      <trkpt lat="47.2793" lon="4.95679">
        <ele>389.79998779297</ele>
        <time>2015-08-29T06:27:45.000Z</time>
      </trkpt>
      <trkpt lat="47.27929" lon="4.95675">
        <ele>390.20001220703</ele>
        <time>2015-08-29T06:27:46.000Z</time>
      </trkpt>
      <trkpt lat="47.27924" lon="4.95668">
        <ele>390.79998779297</ele>
        <time>2015-08-29T06:27:50.000Z</time>
      </trkpt>
      <trkpt lat="47.27922" lon="4.95666">
        <ele>391</ele>
        <time>2015-08-29T06:27:51.000Z</time>
      </trkpt>
      <trkpt lat="47.2792" lon="4.95664">
        <ele>391</ele>
        <time>2015-08-29T06:27:53.000Z</time>
      </trkpt>
      <trkpt lat="47.27914" lon="4.95657">
        <ele>391.39999389648</ele>
        <time>2015-08-29T06:27:59.000Z</time>
      </trkpt>
      <trkpt lat="47.27912" lon="4.95655">
        <ele>391.39999389648</ele>
        <time>2015-08-29T06:28:01.000Z</time>
      </trkpt>
      <trkpt lat="47.27906" lon="4.95649">
        <ele>391.60000610352</ele>
        <time>2015-08-29T06:28:06.000Z</time>
      </trkpt>
      <trkpt lat="47.27899" lon="4.95642">
        <ele>391.79998779297</ele>
        <time>2015-08-29T06:28:13.000Z</time>
      </trkpt>
      <trkpt lat="47.27892" lon="4.95635">
        <ele>392.20001220703</ele>
        <time>2015-08-29T06:28:18.000Z</time>
      </trkpt>
      <trkpt lat="47.27883" lon="4.95628">
        <ele>392.20001220703</ele>
        <time>2015-08-29T06:28:25.000Z</time>
      </trkpt>
      <trkpt lat="47.27881" lon="4.95627">
        <ele>392.20001220703</ele>
        <time>2015-08-29T06:28:26.000Z</time>
      </trkpt>
      <trkpt lat="47.27879" lon="4.95624">
        <ele>392.39999389648</ele>
        <time>2015-08-29T06:28:28.000Z</time>
      </trkpt>
      <trkpt lat="47.27875" lon="4.95625">
        <ele>391.79998779297</ele>
        <time>2015-08-29T06:28:33.000Z</time>
      </trkpt>
      <trkpt lat="47.27869" lon="4.9562">
        <ele>392.39999389648</ele>
        <time>2015-08-29T06:28:37.000Z</time>
      </trkpt>
      <trkpt lat="47.27865" lon="4.95617">
        <ele>392.79998779297</ele>
        <time>2015-08-29T06:28:41.000Z</time>
      </trkpt>
      <trkpt lat="47.27861" lon="4.95615">
        <ele>393</ele>
        <time>2015-08-29T06:28:45.000Z</time>
      </trkpt>
      <trkpt lat="47.2786" lon="4.95613">
        <ele>393.39999389648</ele>
        <time>2015-08-29T06:28:47.000Z</time>
      </trkpt>
      <trkpt lat="47.27858" lon="4.9561">
        <ele>394</ele>
        <time>2015-08-29T06:28:48.000Z</time>
      </trkpt>
      <trkpt lat="47.27856" lon="4.95607">
        <ele>394.79998779297</ele>
        <time>2015-08-29T06:28:50.000Z</time>
      </trkpt>
      <trkpt lat="47.27854" lon="4.95605">
        <ele>394.79998779297</ele>
        <time>2015-08-29T06:28:51.000Z</time>
      </trkpt>
      <trkpt lat="47.2785" lon="4.95602">
        <ele>395.20001220703</ele>
        <time>2015-08-29T06:28:56.000Z</time>
      </trkpt>
      <trkpt lat="47.27847" lon="4.95599">
        <ele>395.79998779297</ele>
        <time>2015-08-29T06:28:59.000Z</time>
      </trkpt>
      <trkpt lat="47.27841" lon="4.95595">
        <ele>396.20001220703</ele>
        <time>2015-08-29T06:29:03.000Z</time>
      </trkpt>
      <trkpt lat="47.27838" lon="4.95594">
        <ele>396.39999389648</ele>
        <time>2015-08-29T06:29:05.000Z</time>
      </trkpt>
      <trkpt lat="47.27834" lon="4.95591">
        <ele>396.79998779297</ele>
        <time>2015-08-29T06:29:10.000Z</time>
      </trkpt>
      <trkpt lat="47.27833" lon="4.9559">
        <ele>396.79998779297</ele>
        <time>2015-08-29T06:29:11.000Z</time>
      </trkpt>
      <trkpt lat="47.27824" lon="4.95585">
        <ele>397</ele>
        <time>2015-08-29T06:29:16.000Z</time>
      </trkpt>
      <trkpt lat="47.2782" lon="4.95584">
        <ele>396.60000610352</ele>
        <time>2015-08-29T06:29:18.000Z</time>
      </trkpt>
      <trkpt lat="47.27814" lon="4.95581">
        <ele>397</ele>
        <time>2015-08-29T06:29:23.000Z</time>
      </trkpt>
      <trkpt lat="47.27811" lon="4.9558">
        <ele>396.79998779297</ele>
        <time>2015-08-29T06:29:25.000Z</time>
      </trkpt>
      <trkpt lat="47.2781" lon="4.95581">
        <ele>396.39999389648</ele>
        <time>2015-08-29T06:29:27.000Z</time>
      </trkpt>
      <trkpt lat="47.27802" lon="4.95577">
        <ele>396.39999389648</ele>
        <time>2015-08-29T06:29:33.000Z</time>
      </trkpt>
      <trkpt lat="47.27802" lon="4.95576">
        <ele>396.60000610352</ele>
        <time>2015-08-29T06:29:34.000Z</time>
      </trkpt>
      <trkpt lat="47.27801" lon="4.95575">
        <ele>396.79998779297</ele>
        <time>2015-08-29T06:29:35.000Z</time>
      </trkpt>
      <trkpt lat="47.27796" lon="4.9557">
        <ele>397.60000610352</ele>
        <time>2015-08-29T06:29:40.000Z</time>
      </trkpt>
      <trkpt lat="47.27789" lon="4.95567">
        <ele>397.60000610352</ele>
        <time>2015-08-29T06:29:44.000Z</time>
      </trkpt>
      <trkpt lat="47.27787" lon="4.95565">
        <ele>397.60000610352</ele>
        <time>2015-08-29T06:29:47.000Z</time>
      </trkpt>
      <trkpt lat="47.27784" lon="4.95564">
        <ele>397.60000610352</ele>
        <time>2015-08-29T06:29:49.000Z</time>
      </trkpt>
      <trkpt lat="47.2778" lon="4.9556">
        <ele>398</ele>
        <time>2015-08-29T06:29:54.000Z</time>
      </trkpt>
      <trkpt lat="47.27776" lon="4.95555">
        <ele>399</ele>
        <time>2015-08-29T06:29:58.000Z</time>
      </trkpt>
      <trkpt lat="47.27776" lon="4.95554">
        <ele>399.39999389648</ele>
        <time>2015-08-29T06:30:00.000Z</time>
      </trkpt>
      <trkpt lat="47.27774" lon="4.95552">
        <ele>399.79998779297</ele>
        <time>2015-08-29T06:30:02.000Z</time>
      </trkpt>
      <trkpt lat="47.27768" lon="4.95546">
        <ele>400.39999389648</ele>
        <time>2015-08-29T06:30:06.000Z</time>
      </trkpt>
      <trkpt lat="47.27764" lon="4.9554">
        <ele>401.60000610352</ele>
        <time>2015-08-29T06:30:12.000Z</time>
      </trkpt>
      <trkpt lat="47.27764" lon="4.9554">
        <ele>401.60000610352</ele>
        <time>2015-08-29T06:30:13.000Z</time>
      </trkpt>
      <trkpt lat="47.27759" lon="4.95537">
        <ele>402</ele>
        <time>2015-08-29T06:30:17.000Z</time>
      </trkpt>
      <trkpt lat="47.27757" lon="4.95536">
        <ele>401.79998779297</ele>
        <time>2015-08-29T06:30:18.000Z</time>
      </trkpt>
      <trkpt lat="47.27753" lon="4.95532">
        <ele>402.60000610352</ele>
        <time>2015-08-29T06:30:23.000Z</time>
      </trkpt>
      <trkpt lat="47.27749" lon="4.95529">
        <ele>402.79998779297</ele>
        <time>2015-08-29T06:30:29.000Z</time>
      </trkpt>
      <trkpt lat="47.27745" lon="4.95525">
        <ele>403.60000610352</ele>
        <time>2015-08-29T06:30:33.000Z</time>
      </trkpt>
      <trkpt lat="47.27741" lon="4.95521">
        <ele>404.20001220703</ele>
        <time>2015-08-29T06:30:37.000Z</time>
      </trkpt>
      <trkpt lat="47.27741" lon="4.9552">
        <ele>404.39999389648</ele>
        <time>2015-08-29T06:30:38.000Z</time>
      </trkpt>
      <trkpt lat="47.27739" lon="4.95517">
        <ele>405.20001220703</ele>
        <time>2015-08-29T06:30:41.000Z</time>
      </trkpt>
      <trkpt lat="47.27738" lon="4.95515">
        <ele>405.39999389648</ele>
        <time>2015-08-29T06:30:42.000Z</time>
      </trkpt>
      <trkpt lat="47.2773" lon="4.95509">
        <ele>406.39999389648</ele>
        <time>2015-08-29T06:30:47.000Z</time>
      </trkpt>
      <trkpt lat="47.27728" lon="4.95507">
        <ele>406.60000610352</ele>
        <time>2015-08-29T06:30:50.000Z</time>
      </trkpt>
      <trkpt lat="47.27726" lon="4.95504">
        <ele>407.20001220703</ele>
        <time>2015-08-29T06:30:52.000Z</time>
      </trkpt>
      <trkpt lat="47.27722" lon="4.95498">
        <ele>408.20001220703</ele>
        <time>2015-08-29T06:30:57.000Z</time>
      </trkpt>
      <trkpt lat="47.27716" lon="4.95493">
        <ele>408.79998779297</ele>
        <time>2015-08-29T06:31:02.000Z</time>
      </trkpt>
      <trkpt lat="47.27714" lon="4.95491">
        <ele>409.20001220703</ele>
        <time>2015-08-29T06:31:04.000Z</time>
      </trkpt>
      <trkpt lat="47.27711" lon="4.95487">
        <ele>410</ele>
        <time>2015-08-29T06:31:09.000Z</time>
      </trkpt>
      <trkpt lat="47.2771" lon="4.95487">
        <ele>410</ele>
        <time>2015-08-29T06:31:10.000Z</time>
      </trkpt>
      <trkpt lat="47.27702" lon="4.95478">
        <ele>411.60000610352</ele>
        <time>2015-08-29T06:31:16.000Z</time>
      </trkpt>
      <trkpt lat="47.27699" lon="4.95476">
        <ele>411.60000610352</ele>
        <time>2015-08-29T06:31:18.000Z</time>
      </trkpt>
      <trkpt lat="47.27697" lon="4.95469">
        <ele>413.39999389648</ele>
        <time>2015-08-29T06:31:22.000Z</time>
      </trkpt>
      <trkpt lat="47.27694" lon="4.95464">
        <ele>414.79998779297</ele>
        <time>2015-08-29T06:31:26.000Z</time>
      </trkpt>
      <trkpt lat="47.27691" lon="4.95458">
        <ele>415.79998779297</ele>
        <time>2015-08-29T06:31:30.000Z</time>
      </trkpt>
      <trkpt lat="47.27691" lon="4.95456">
        <ele>416.20001220703</ele>
        <time>2015-08-29T06:31:31.000Z</time>
      </trkpt>
      <trkpt lat="47.27688" lon="4.95453">
        <ele>416.79998779297</ele>
        <time>2015-08-29T06:31:36.000Z</time>
      </trkpt>
      <trkpt lat="47.27685" lon="4.95449">
        <ele>417.39999389648</ele>
        <time>2015-08-29T06:31:41.000Z</time>
      </trkpt>
      <trkpt lat="47.2768" lon="4.95442">
        <ele>418</ele>
        <time>2015-08-29T06:31:46.000Z</time>
      </trkpt>
      <trkpt lat="47.27678" lon="4.95441">
        <ele>418</ele>
        <time>2015-08-29T06:31:48.000Z</time>
      </trkpt>
      <trkpt lat="47.27679" lon="4.95442">
        <ele>418</ele>
        <time>2015-08-29T06:31:50.000Z</time>
      </trkpt>
      <trkpt lat="47.27671" lon="4.95436">
        <ele>418.20001220703</ele>
        <time>2015-08-29T06:31:56.000Z</time>
      </trkpt>
      <trkpt lat="47.27667" lon="4.95432">
        <ele>418.60000610352</ele>
        <time>2015-08-29T06:32:03.000Z</time>
      </trkpt>
      <trkpt lat="47.27664" lon="4.95429">
        <ele>419</ele>
        <time>2015-08-29T06:32:07.000Z</time>
      </trkpt>
      <trkpt lat="47.27664" lon="4.95421">
        <ele>420.79998779297</ele>
        <time>2015-08-29T06:32:13.000Z</time>
      </trkpt>
      <trkpt lat="47.27662" lon="4.95419">
        <ele>421.20001220703</ele>
        <time>2015-08-29T06:32:16.000Z</time>
      </trkpt>
      <trkpt lat="47.2766" lon="4.95419">
        <ele>421</ele>
        <time>2015-08-29T06:32:18.000Z</time>
      </trkpt>
      <trkpt lat="47.27659" lon="4.95418">
        <ele>421.20001220703</ele>
        <time>2015-08-29T06:32:20.000Z</time>
      </trkpt>
      <trkpt lat="47.27653" lon="4.95415">
        <ele>421.39999389648</ele>
        <time>2015-08-29T06:32:24.000Z</time>
      </trkpt>
      <trkpt lat="47.27646" lon="4.9541">
        <ele>422</ele>
        <time>2015-08-29T06:32:29.000Z</time>
      </trkpt>
      <trkpt lat="47.2764" lon="4.95404">
        <ele>422.79998779297</ele>
        <time>2015-08-29T06:32:34.000Z</time>
      </trkpt>
      <trkpt lat="47.27638" lon="4.95403">
        <ele>423</ele>
        <time>2015-08-29T06:32:36.000Z</time>
      </trkpt>
      <trkpt lat="47.27638" lon="4.95401">
        <ele>423.39999389648</ele>
        <time>2015-08-29T06:32:38.000Z</time>
      </trkpt>
      <trkpt lat="47.27634" lon="4.95395">
        <ele>424.60000610352</ele>
        <time>2015-08-29T06:32:43.000Z</time>
      </trkpt>
      <trkpt lat="47.27629" lon="4.95389">
        <ele>425.39999389648</ele>
        <time>2015-08-29T06:32:49.000Z</time>
      </trkpt>
      <trkpt lat="47.27624" lon="4.95383">
        <ele>426.60000610352</ele>
        <time>2015-08-29T06:32:54.000Z</time>
      </trkpt>
      <trkpt lat="47.27616" lon="4.95374">
        <ele>428</ele>
        <time>2015-08-29T06:33:01.000Z</time>
      </trkpt>
      <trkpt lat="47.27609" lon="4.95367">
        <ele>428.39999389648</ele>
        <time>2015-08-29T06:33:05.000Z</time>
      </trkpt>
      <trkpt lat="47.27603" lon="4.95359">
        <ele>428.79998779297</ele>
        <time>2015-08-29T06:33:11.000Z</time>
      </trkpt>
      <trkpt lat="47.27601" lon="4.95358">
        <ele>429</ele>
        <time>2015-08-29T06:33:12.000Z</time>
      </trkpt>
      <trkpt lat="47.27598" lon="4.95348">
        <ele>430</ele>
        <time>2015-08-29T06:33:17.000Z</time>
      </trkpt>
      <trkpt lat="47.27597" lon="4.95346">
        <ele>430.20001220703</ele>
        <time>2015-08-29T06:33:18.000Z</time>
      </trkpt>
      <trkpt lat="47.27593" lon="4.95336">
        <ele>431.20001220703</ele>
        <time>2015-08-29T06:33:23.000Z</time>
      </trkpt>
      <trkpt lat="47.27587" lon="4.95331">
        <ele>431.39999389648</ele>
        <time>2015-08-29T06:33:26.000Z</time>
      </trkpt>
      <trkpt lat="47.27584" lon="4.95322">
        <ele>432.20001220703</ele>
        <time>2015-08-29T06:33:32.000Z</time>
      </trkpt>
      <trkpt lat="47.27582" lon="4.95314">
        <ele>433</ele>
        <time>2015-08-29T06:33:37.000Z</time>
      </trkpt>
      <trkpt lat="47.27581" lon="4.95308">
        <ele>433.79998779297</ele>
        <time>2015-08-29T06:33:40.000Z</time>
      </trkpt>
      <trkpt lat="47.27578" lon="4.95304">
        <ele>434.39999389648</ele>
        <time>2015-08-29T06:33:45.000Z</time>
      </trkpt>
      <trkpt lat="47.27574" lon="4.95298">
        <ele>435</ele>
        <time>2015-08-29T06:33:50.000Z</time>
      </trkpt>
      <trkpt lat="47.27572" lon="4.95297">
        <ele>435.20001220703</ele>
        <time>2015-08-29T06:33:53.000Z</time>
      </trkpt>
      <trkpt lat="47.27568" lon="4.95295">
        <ele>435.60000610352</ele>
        <time>2015-08-29T06:33:57.000Z</time>
      </trkpt>
      <trkpt lat="47.27567" lon="4.95295">
        <ele>435.60000610352</ele>
        <time>2015-08-29T06:33:58.000Z</time>
      </trkpt>
      <trkpt lat="47.27561" lon="4.95286">
        <ele>436.60000610352</ele>
        <time>2015-08-29T06:34:05.000Z</time>
      </trkpt>
      <trkpt lat="47.27558" lon="4.95282">
        <ele>437</ele>
        <time>2015-08-29T06:34:07.000Z</time>
      </trkpt>
      <trkpt lat="47.27555" lon="4.95277">
        <ele>437.39999389648</ele>
        <time>2015-08-29T06:34:11.000Z</time>
      </trkpt>
      <trkpt lat="47.27555" lon="4.95276">
        <ele>437.60000610352</ele>
        <time>2015-08-29T06:34:12.000Z</time>
      </trkpt>
      <trkpt lat="47.27552" lon="4.95274">
        <ele>437.79998779297</ele>
        <time>2015-08-29T06:34:16.000Z</time>
      </trkpt>
      <trkpt lat="47.2755" lon="4.95271">
        <ele>438</ele>
        <time>2015-08-29T06:34:20.000Z</time>
      </trkpt>
      <trkpt lat="47.27547" lon="4.95269">
        <ele>438.20001220703</ele>
        <time>2015-08-29T06:34:23.000Z</time>
      </trkpt>
      <trkpt lat="47.27546" lon="4.95265">
        <ele>438.60000610352</ele>
        <time>2015-08-29T06:34:28.000Z</time>
      </trkpt>
      <trkpt lat="47.27545" lon="4.95262">
        <ele>438.79998779297</ele>
        <time>2015-08-29T06:34:30.000Z</time>
      </trkpt>
      <trkpt lat="47.27544" lon="4.9526">
        <ele>439</ele>
        <time>2015-08-29T06:34:33.000Z</time>
      </trkpt>
      <trkpt lat="47.27541" lon="4.95259">
        <ele>439.20001220703</ele>
        <time>2015-08-29T06:34:38.000Z</time>
      </trkpt>
      <trkpt lat="47.27537" lon="4.95256">
        <ele>439.39999389648</ele>
        <time>2015-08-29T06:34:42.000Z</time>
      </trkpt>
      <trkpt lat="47.27534" lon="4.95254">
        <ele>439.60000610352</ele>
        <time>2015-08-29T06:34:46.000Z</time>
      </trkpt>
      <trkpt lat="47.27537" lon="4.95256">
        <ele>439.39999389648</ele>
        <time>2015-08-29T06:34:53.000Z</time>
      </trkpt>
      <trkpt lat="47.27534" lon="4.95258">
        <ele>439.39999389648</ele>
        <time>2015-08-29T06:35:10.000Z</time>
      </trkpt>
      <trkpt lat="47.27532" lon="4.95258">
        <ele>439.20001220703</ele>
        <time>2015-08-29T06:35:14.000Z</time>
      </trkpt>
      <trkpt lat="47.27526" lon="4.95256">
        <ele>439.60000610352</ele>
        <time>2015-08-29T06:35:19.000Z</time>
      </trkpt>
      <trkpt lat="47.27518" lon="4.9525">
        <ele>440.20001220703</ele>
        <time>2015-08-29T06:35:26.000Z</time>
      </trkpt>
      <trkpt lat="47.27512" lon="4.95246">
        <ele>440.60000610352</ele>
        <time>2015-08-29T06:35:31.000Z</time>
      </trkpt>
      <trkpt lat="47.27509" lon="4.95242">
        <ele>441</ele>
        <time>2015-08-29T06:35:35.000Z</time>
      </trkpt>
      <trkpt lat="47.27506" lon="4.95241">
        <ele>441</ele>
        <time>2015-08-29T06:35:38.000Z</time>
      </trkpt>
      <trkpt lat="47.27502" lon="4.9524">
        <ele>441.20001220703</ele>
        <time>2015-08-29T06:35:42.000Z</time>
      </trkpt>
      <trkpt lat="47.27495" lon="4.95235">
        <ele>441.79998779297</ele>
        <time>2015-08-29T06:35:45.000Z</time>
      </trkpt>
      <trkpt lat="47.27494" lon="4.95232">
        <ele>442.20001220703</ele>
        <time>2015-08-29T06:35:48.000Z</time>
      </trkpt>
      <trkpt lat="47.27494" lon="4.95232">
        <ele>442.20001220703</ele>
        <time>2015-08-29T06:35:49.000Z</time>
      </trkpt>
      <trkpt lat="47.27492" lon="4.95229">
        <ele>442.60000610352</ele>
        <time>2015-08-29T06:35:54.000Z</time>
      </trkpt>
      <trkpt lat="47.27492" lon="4.95224">
        <ele>443.20001220703</ele>
        <time>2015-08-29T06:36:01.000Z</time>
      </trkpt>
      <trkpt lat="47.27491" lon="4.95223">
        <ele>443.39999389648</ele>
        <time>2015-08-29T06:36:06.000Z</time>
      </trkpt>
      <trkpt lat="47.27491" lon="4.95219">
        <ele>443.79998779297</ele>
        <time>2015-08-29T06:36:22.000Z</time>
      </trkpt>
      <trkpt lat="47.27492" lon="4.95221">
        <ele>443.39999389648</ele>
        <time>2015-08-29T06:36:28.000Z</time>
      </trkpt>
      <trkpt lat="47.27498" lon="4.95224">
        <ele>442.60000610352</ele>
        <time>2015-08-29T06:36:54.000Z</time>
      </trkpt>
      <trkpt lat="47.27503" lon="4.95226">
        <ele>442.39999389648</ele>
        <time>2015-08-29T06:37:04.000Z</time>
      </trkpt>
      <trkpt lat="47.27496" lon="4.95229">
        <ele>442.20001220703</ele>
        <time>2015-08-29T06:37:23.000Z</time>
      </trkpt>
      <trkpt lat="47.27488" lon="4.95231">
        <ele>443.20001220703</ele>
        <time>2015-08-29T06:37:29.000Z</time>
      </trkpt>
      <trkpt lat="47.27487" lon="4.95232">
        <ele>443.20001220703</ele>
        <time>2015-08-29T06:37:30.000Z</time>
      </trkpt>
      <trkpt lat="47.2748" lon="4.95234">
        <ele>444</ele>
        <time>2015-08-29T06:37:34.000Z</time>
      </trkpt>
      <trkpt lat="47.27477" lon="4.95238">
        <ele>444</ele>
        <time>2015-08-29T06:37:37.000Z</time>
      </trkpt>
      <trkpt lat="47.27472" lon="4.9524">
        <ele>444.60000610352</ele>
        <time>2015-08-29T06:37:41.000Z</time>
      </trkpt>
      <trkpt lat="47.27467" lon="4.95244">
        <ele>444.79998779297</ele>
        <time>2015-08-29T06:37:45.000Z</time>
      </trkpt>
      <trkpt lat="47.27467" lon="4.95245">
        <ele>444.79998779297</ele>
        <time>2015-08-29T06:37:46.000Z</time>
      </trkpt>
      <trkpt lat="47.27466" lon="4.95246">
        <ele>444.79998779297</ele>
        <time>2015-08-29T06:37:47.000Z</time>
      </trkpt>
      <trkpt lat="47.27462" lon="4.95249">
        <ele>445</ele>
        <time>2015-08-29T06:37:51.000Z</time>
      </trkpt>
      <trkpt lat="47.27459" lon="4.95252">
        <ele>445.20001220703</ele>
        <time>2015-08-29T06:37:55.000Z</time>
      </trkpt>
      <trkpt lat="47.27455" lon="4.95254">
        <ele>445.60000610352</ele>
        <time>2015-08-29T06:37:59.000Z</time>
      </trkpt>
      <trkpt lat="47.27449" lon="4.95255">
        <ele>446.39999389648</ele>
        <time>2015-08-29T06:38:05.000Z</time>
      </trkpt>
      <trkpt lat="47.27445" lon="4.95255">
        <ele>447</ele>
        <time>2015-08-29T06:38:09.000Z</time>
      </trkpt>
      <trkpt lat="47.27443" lon="4.95254">
        <ele>447.39999389648</ele>
        <time>2015-08-29T06:38:10.000Z</time>
      </trkpt>
      <trkpt lat="47.27438" lon="4.95255">
        <ele>448</ele>
        <time>2015-08-29T06:38:14.000Z</time>
      </trkpt>
      <trkpt lat="47.27435" lon="4.95254">
        <ele>448.39999389648</ele>
        <time>2015-08-29T06:38:16.000Z</time>
      </trkpt>
      <trkpt lat="47.2743" lon="4.95253">
        <ele>449.20001220703</ele>
        <time>2015-08-29T06:38:19.000Z</time>
      </trkpt>
      <trkpt lat="47.27425" lon="4.95252">
        <ele>450</ele>
        <time>2015-08-29T06:38:24.000Z</time>
      </trkpt>
      <trkpt lat="47.27423" lon="4.9525">
        <ele>450.60000610352</ele>
        <time>2015-08-29T06:38:25.000Z</time>
      </trkpt>
      <trkpt lat="47.27411" lon="4.95245">
        <ele>452.39999389648</ele>
        <time>2015-08-29T06:38:31.000Z</time>
      </trkpt>
      <trkpt lat="47.2741" lon="4.95244">
        <ele>452.39999389648</ele>
        <time>2015-08-29T06:38:32.000Z</time>
      </trkpt>
      <trkpt lat="47.27407" lon="4.9524">
        <ele>453</ele>
        <time>2015-08-29T06:38:35.000Z</time>
      </trkpt>
      <trkpt lat="47.274" lon="4.95237">
        <ele>453.39999389648</ele>
        <time>2015-08-29T06:38:39.000Z</time>
      </trkpt>
      <trkpt lat="47.27396" lon="4.95238">
        <ele>453.60000610352</ele>
        <time>2015-08-29T06:38:43.000Z</time>
      </trkpt>
      <trkpt lat="47.27389" lon="4.95237">
        <ele>454</ele>
        <time>2015-08-29T06:38:49.000Z</time>
      </trkpt>
      <trkpt lat="47.27387" lon="4.95235">
        <ele>454.20001220703</ele>
        <time>2015-08-29T06:38:52.000Z</time>
      </trkpt>
      <trkpt lat="47.27385" lon="4.95233">
        <ele>454.39999389648</ele>
        <time>2015-08-29T06:38:56.000Z</time>
      </trkpt>
      <trkpt lat="47.27381" lon="4.9523">
        <ele>455</ele>
        <time>2015-08-29T06:39:01.000Z</time>
      </trkpt>
      <trkpt lat="47.27376" lon="4.95226">
        <ele>455.39999389648</ele>
        <time>2015-08-29T06:39:07.000Z</time>
      </trkpt>
      <trkpt lat="47.27374" lon="4.95226">
        <ele>455.60000610352</ele>
        <time>2015-08-29T06:39:08.000Z</time>
      </trkpt>
      <trkpt lat="47.27372" lon="4.95222">
        <ele>456</ele>
        <time>2015-08-29T06:39:10.000Z</time>
      </trkpt>
      <trkpt lat="47.27368" lon="4.9522">
        <ele>456.20001220703</ele>
        <time>2015-08-29T06:39:13.000Z</time>
      </trkpt>
      <trkpt lat="47.27361" lon="4.95215">
        <ele>457</ele>
        <time>2015-08-29T06:39:18.000Z</time>
      </trkpt>
      <trkpt lat="47.27358" lon="4.95214">
        <ele>457.20001220703</ele>
        <time>2015-08-29T06:39:20.000Z</time>
      </trkpt>
      <trkpt lat="47.27353" lon="4.95211">
        <ele>457.60000610352</ele>
        <time>2015-08-29T06:39:25.000Z</time>
      </trkpt>
      <trkpt lat="47.27347" lon="4.95207">
        <ele>458.20001220703</ele>
        <time>2015-08-29T06:39:30.000Z</time>
      </trkpt>
      <trkpt lat="47.27346" lon="4.95207">
        <ele>458.20001220703</ele>
        <time>2015-08-29T06:39:31.000Z</time>
      </trkpt>
      <trkpt lat="47.27345" lon="4.95207">
        <ele>458.20001220703</ele>
        <time>2015-08-29T06:39:33.000Z</time>
      </trkpt>
      <trkpt lat="47.27342" lon="4.95206">
        <ele>458.39999389648</ele>
        <time>2015-08-29T06:39:37.000Z</time>
      </trkpt>
      <trkpt lat="47.2734" lon="4.95205">
        <ele>458.60000610352</ele>
        <time>2015-08-29T06:39:39.000Z</time>
      </trkpt>
      <trkpt lat="47.27336" lon="4.95201">
        <ele>459</ele>
        <time>2015-08-29T06:39:44.000Z</time>
      </trkpt>
      <trkpt lat="47.27332" lon="4.95198">
        <ele>459.20001220703</ele>
        <time>2015-08-29T06:39:46.000Z</time>
      </trkpt>
      <trkpt lat="47.27329" lon="4.95185">
        <ele>459.79998779297</ele>
        <time>2015-08-29T06:39:58.000Z</time>
      </trkpt>
      <trkpt lat="47.27328" lon="4.95185">
        <ele>459.79998779297</ele>
        <time>2015-08-29T06:40:00.000Z</time>
      </trkpt>
      <trkpt lat="47.27321" lon="4.95183">
        <ele>460.20001220703</ele>
        <time>2015-08-29T06:40:07.000Z</time>
      </trkpt>
      <trkpt lat="47.27315" lon="4.9518">
        <ele>460.60000610352</ele>
        <time>2015-08-29T06:40:14.000Z</time>
      </trkpt>
      <trkpt lat="47.27312" lon="4.95179">
        <ele>460.60000610352</ele>
        <time>2015-08-29T06:40:18.000Z</time>
      </trkpt>
      <trkpt lat="47.27308" lon="4.95177">
        <ele>460.79998779297</ele>
        <time>2015-08-29T06:40:21.000Z</time>
      </trkpt>
      <trkpt lat="47.27304" lon="4.9517">
        <ele>461.20001220703</ele>
        <time>2015-08-29T06:40:27.000Z</time>
      </trkpt>
      <trkpt lat="47.27303" lon="4.9517">
        <ele>461.39999389648</ele>
        <time>2015-08-29T06:40:28.000Z</time>
      </trkpt>
      <trkpt lat="47.27303" lon="4.95168">
        <ele>461.39999389648</ele>
        <time>2015-08-29T06:40:30.000Z</time>
      </trkpt>
      <trkpt lat="47.27295" lon="4.95164">
        <ele>461.79998779297</ele>
        <time>2015-08-29T06:40:36.000Z</time>
      </trkpt>
      <trkpt lat="47.27294" lon="4.95163">
        <ele>462</ele>
        <time>2015-08-29T06:40:38.000Z</time>
      </trkpt>
      <trkpt lat="47.27288" lon="4.95162">
        <ele>462.20001220703</ele>
        <time>2015-08-29T06:40:42.000Z</time>
      </trkpt>
      <trkpt lat="47.27283" lon="4.9516">
        <ele>462.39999389648</ele>
        <time>2015-08-29T06:40:47.000Z</time>
      </trkpt>
      <trkpt lat="47.27282" lon="4.9516">
        <ele>462.39999389648</ele>
        <time>2015-08-29T06:40:48.000Z</time>
      </trkpt>
      <trkpt lat="47.27277" lon="4.95151">
        <ele>463</ele>
        <time>2015-08-29T06:40:54.000Z</time>
      </trkpt>
      <trkpt lat="47.27274" lon="4.95143">
        <ele>463.39999389648</ele>
        <time>2015-08-29T06:40:57.000Z</time>
      </trkpt>
      <trkpt lat="47.2727" lon="4.95136">
        <ele>463.79998779297</ele>
        <time>2015-08-29T06:41:02.000Z</time>
      </trkpt>
      <trkpt lat="47.27269" lon="4.95132">
        <ele>463.79998779297</ele>
        <time>2015-08-29T06:41:05.000Z</time>
      </trkpt>
      <trkpt lat="47.27266" lon="4.95128">
        <ele>464.20001220703</ele>
        <time>2015-08-29T06:41:17.000Z</time>
      </trkpt>
      <trkpt lat="47.27258" lon="4.95138">
        <ele>464</ele>
        <time>2015-08-29T06:41:24.000Z</time>
      </trkpt>
      <trkpt lat="47.27257" lon="4.95141">
        <ele>464</ele>
        <time>2015-08-29T06:41:26.000Z</time>
      </trkpt>
      <trkpt lat="47.27254" lon="4.9515">
        <ele>463.60000610352</ele>
        <time>2015-08-29T06:41:30.000Z</time>
      </trkpt>
      <trkpt lat="47.27253" lon="4.95155">
        <ele>463.39999389648</ele>
        <time>2015-08-29T06:41:32.000Z</time>
      </trkpt>
      <trkpt lat="47.27252" lon="4.95165">
        <ele>463</ele>
        <time>2015-08-29T06:41:39.000Z</time>
      </trkpt>
      <trkpt lat="47.27248" lon="4.95166">
        <ele>463</ele>
        <time>2015-08-29T06:41:41.000Z</time>
      </trkpt>
      <trkpt lat="47.27241" lon="4.95171">
        <ele>462.60000610352</ele>
        <time>2015-08-29T06:41:47.000Z</time>
      </trkpt>
      <trkpt lat="47.27233" lon="4.95179">
        <ele>461.79998779297</ele>
        <time>2015-08-29T06:41:54.000Z</time>
      </trkpt>
      <trkpt lat="47.27225" lon="4.95184">
        <ele>461.39999389648</ele>
        <time>2015-08-29T06:42:00.000Z</time>
      </trkpt>
      <trkpt lat="47.27219" lon="4.95187">
        <ele>461.39999389648</ele>
        <time>2015-08-29T06:42:04.000Z</time>
      </trkpt>
      <trkpt lat="47.27213" lon="4.95192">
        <ele>461.60000610352</ele>
        <time>2015-08-29T06:42:09.000Z</time>
      </trkpt>
      <trkpt lat="47.27213" lon="4.95192">
        <ele>461.60000610352</ele>
        <time>2015-08-29T06:42:10.000Z</time>
      </trkpt>
      <trkpt lat="47.2721" lon="4.95191">
        <ele>461.60000610352</ele>
        <time>2015-08-29T06:42:12.000Z</time>
      </trkpt>
      <trkpt lat="47.27202" lon="4.95196">
        <ele>462</ele>
        <time>2015-08-29T06:42:18.000Z</time>
      </trkpt>
      <trkpt lat="47.272" lon="4.95198">
        <ele>462</ele>
        <time>2015-08-29T06:42:19.000Z</time>
      </trkpt>
      <trkpt lat="47.27194" lon="4.95201">
        <ele>462.20001220703</ele>
        <time>2015-08-29T06:42:23.000Z</time>
      </trkpt>
      <trkpt lat="47.27186" lon="4.95207">
        <ele>462.39999389648</ele>
        <time>2015-08-29T06:42:29.000Z</time>
      </trkpt>
      <trkpt lat="47.27178" lon="4.95214">
        <ele>462.79998779297</ele>
        <time>2015-08-29T06:42:36.000Z</time>
      </trkpt>
      <trkpt lat="47.27177" lon="4.95217">
        <ele>462.79998779297</ele>
        <time>2015-08-29T06:42:38.000Z</time>
      </trkpt>
      <trkpt lat="47.2717" lon="4.95218">
        <ele>463.20001220703</ele>
        <time>2015-08-29T06:42:42.000Z</time>
      </trkpt>
      <trkpt lat="47.27169" lon="4.95219">
        <ele>463.20001220703</ele>
        <time>2015-08-29T06:42:43.000Z</time>
      </trkpt>
      <trkpt lat="47.27163" lon="4.95223">
        <ele>463.79998779297</ele>
        <time>2015-08-29T06:42:48.000Z</time>
      </trkpt>
      <trkpt lat="47.27156" lon="4.95232">
        <ele>464</ele>
        <time>2015-08-29T06:42:54.000Z</time>
      </trkpt>
      <trkpt lat="47.27148" lon="4.95245">
        <ele>464.60000610352</ele>
        <time>2015-08-29T06:43:03.000Z</time>
      </trkpt>
      <trkpt lat="47.27147" lon="4.95247">
        <ele>464.60000610352</ele>
        <time>2015-08-29T06:43:04.000Z</time>
      </trkpt>
      <trkpt lat="47.27139" lon="4.9526">
        <ele>465.20001220703</ele>
        <time>2015-08-29T06:43:11.000Z</time>
      </trkpt>
      <trkpt lat="47.27136" lon="4.95263">
        <ele>465.39999389648</ele>
        <time>2015-08-29T06:43:15.000Z</time>
      </trkpt>
      <trkpt lat="47.27131" lon="4.95273">
        <ele>465</ele>
        <time>2015-08-29T06:43:21.000Z</time>
      </trkpt>
      <trkpt lat="47.27123" lon="4.95278">
        <ele>464.60000610352</ele>
        <time>2015-08-29T06:43:25.000Z</time>
      </trkpt>
      <trkpt lat="47.27117" lon="4.95288">
        <ele>464.20001220703</ele>
        <time>2015-08-29T06:43:31.000Z</time>
      </trkpt>
      <trkpt lat="47.27116" lon="4.95288">
        <ele>464.20001220703</ele>
        <time>2015-08-29T06:43:32.000Z</time>
      </trkpt>
      <trkpt lat="47.27108" lon="4.95296">
        <ele>463.79998779297</ele>
        <time>2015-08-29T06:43:38.000Z</time>
      </trkpt>
      <trkpt lat="47.271" lon="4.95304">
        <ele>463.39999389648</ele>
        <time>2015-08-29T06:43:45.000Z</time>
      </trkpt>
      <trkpt lat="47.27091" lon="4.95307">
        <ele>463</ele>
        <time>2015-08-29T06:43:51.000Z</time>
      </trkpt>
      <trkpt lat="47.27076" lon="4.95322">
        <ele>462.79998779297</ele>
        <time>2015-08-29T06:44:02.000Z</time>
      </trkpt>
      <trkpt lat="47.27071" lon="4.95329">
        <ele>463</ele>
        <time>2015-08-29T06:44:07.000Z</time>
      </trkpt>
      <trkpt lat="47.27066" lon="4.95333">
        <ele>463.20001220703</ele>
        <time>2015-08-29T06:44:11.000Z</time>
      </trkpt>
      <trkpt lat="47.27065" lon="4.95334">
        <ele>463.20001220703</ele>
        <time>2015-08-29T06:44:12.000Z</time>
      </trkpt>
      <trkpt lat="47.27059" lon="4.95344">
        <ele>463.60000610352</ele>
        <time>2015-08-29T06:44:18.000Z</time>
      </trkpt>
      <trkpt lat="47.27052" lon="4.95353">
        <ele>463.60000610352</ele>
        <time>2015-08-29T06:44:24.000Z</time>
      </trkpt>
      <trkpt lat="47.27046" lon="4.95364">
        <ele>463.60000610352</ele>
        <time>2015-08-29T06:44:30.000Z</time>
      </trkpt>
      <trkpt lat="47.27037" lon="4.95377">
        <ele>463.39999389648</ele>
        <time>2015-08-29T06:44:38.000Z</time>
      </trkpt>
      <trkpt lat="47.27027" lon="4.95389">
        <ele>463.20001220703</ele>
        <time>2015-08-29T06:44:46.000Z</time>
      </trkpt>
      <trkpt lat="47.27026" lon="4.95391">
        <ele>463.20001220703</ele>
        <time>2015-08-29T06:44:47.000Z</time>
      </trkpt>
      <trkpt lat="47.2702" lon="4.95403">
        <ele>463</ele>
        <time>2015-08-29T06:44:54.000Z</time>
      </trkpt>
      <trkpt lat="47.27004" lon="4.95422">
        <ele>462.60000610352</ele>
        <time>2015-08-29T06:45:07.000Z</time>
      </trkpt>
      <trkpt lat="47.26997" lon="4.95433">
        <ele>462.39999389648</ele>
        <time>2015-08-29T06:45:14.000Z</time>
      </trkpt>
      <trkpt lat="47.26996" lon="4.95434">
        <ele>462.20001220703</ele>
        <time>2015-08-29T06:45:15.000Z</time>
      </trkpt>
      <trkpt lat="47.26994" lon="4.95437">
        <ele>462.20001220703</ele>
        <time>2015-08-29T06:45:17.000Z</time>
      </trkpt>
      <trkpt lat="47.26987" lon="4.95445">
        <ele>462.20001220703</ele>
        <time>2015-08-29T06:45:22.000Z</time>
      </trkpt>
      <trkpt lat="47.26982" lon="4.95453">
        <ele>462.20001220703</ele>
        <time>2015-08-29T06:45:27.000Z</time>
      </trkpt>
      <trkpt lat="47.26975" lon="4.95463">
        <ele>462.60000610352</ele>
        <time>2015-08-29T06:45:34.000Z</time>
      </trkpt>
      <trkpt lat="47.26969" lon="4.95477">
        <ele>462.60000610352</ele>
        <time>2015-08-29T06:45:41.000Z</time>
      </trkpt>
      <trkpt lat="47.26968" lon="4.95479">
        <ele>462.60000610352</ele>
        <time>2015-08-29T06:45:42.000Z</time>
      </trkpt>
      <trkpt lat="47.26961" lon="4.95488">
        <ele>462.79998779297</ele>
        <time>2015-08-29T06:45:48.000Z</time>
      </trkpt>
      <trkpt lat="47.26954" lon="4.955">
        <ele>463</ele>
        <time>2015-08-29T06:45:56.000Z</time>
      </trkpt>
      <trkpt lat="47.26951" lon="4.95507">
        <ele>463</ele>
        <time>2015-08-29T06:46:00.000Z</time>
      </trkpt>
      <trkpt lat="47.26947" lon="4.95513">
        <ele>463</ele>
        <time>2015-08-29T06:46:04.000Z</time>
      </trkpt>
      <trkpt lat="47.26942" lon="4.95526">
        <ele>462.79998779297</ele>
        <time>2015-08-29T06:46:09.000Z</time>
      </trkpt>
      <trkpt lat="47.26935" lon="4.95538">
        <ele>462.79998779297</ele>
        <time>2015-08-29T06:46:16.000Z</time>
      </trkpt>
      <trkpt lat="47.26925" lon="4.9555">
        <ele>462.79998779297</ele>
        <time>2015-08-29T06:46:25.000Z</time>
      </trkpt>
      <trkpt lat="47.26918" lon="4.95565">
        <ele>462.79998779297</ele>
        <time>2015-08-29T06:46:34.000Z</time>
      </trkpt>
      <trkpt lat="47.26912" lon="4.95574">
        <ele>462.60000610352</ele>
        <time>2015-08-29T06:46:40.000Z</time>
      </trkpt>
      <trkpt lat="47.26905" lon="4.95582">
        <ele>462.60000610352</ele>
        <time>2015-08-29T06:46:47.000Z</time>
      </trkpt>
      <trkpt lat="47.26896" lon="4.95591">
        <ele>462.79998779297</ele>
        <time>2015-08-29T06:46:55.000Z</time>
      </trkpt>
      <trkpt lat="47.2689" lon="4.95597">
        <ele>462.79998779297</ele>
        <time>2015-08-29T06:47:00.000Z</time>
      </trkpt>
      <trkpt lat="47.26885" lon="4.95601">
        <ele>463</ele>
        <time>2015-08-29T06:47:04.000Z</time>
      </trkpt>
      <trkpt lat="47.26879" lon="4.95607">
        <ele>463</ele>
        <time>2015-08-29T06:47:10.000Z</time>
      </trkpt>
      <trkpt lat="47.2687" lon="4.95618">
        <ele>463</ele>
        <time>2015-08-29T06:47:18.000Z</time>
      </trkpt>
      <trkpt lat="47.26863" lon="4.95627">
        <ele>463.20001220703</ele>
        <time>2015-08-29T06:47:25.000Z</time>
      </trkpt>
      <trkpt lat="47.26857" lon="4.95636">
        <ele>463.39999389648</ele>
        <time>2015-08-29T06:47:31.000Z</time>
      </trkpt>
      <trkpt lat="47.26849" lon="4.95647">
        <ele>463.39999389648</ele>
        <time>2015-08-29T06:47:39.000Z</time>
      </trkpt>
      <trkpt lat="47.26844" lon="4.9566">
        <ele>463.39999389648</ele>
        <time>2015-08-29T06:47:46.000Z</time>
      </trkpt>
      <trkpt lat="47.26837" lon="4.95674">
        <ele>463.39999389648</ele>
        <time>2015-08-29T06:47:54.000Z</time>
      </trkpt>
      <trkpt lat="47.26829" lon="4.95691">
        <ele>463.20001220703</ele>
        <time>2015-08-29T06:48:04.000Z</time>
      </trkpt>
      <trkpt lat="47.26827" lon="4.95694">
        <ele>463.20001220703</ele>
        <time>2015-08-29T06:48:06.000Z</time>
      </trkpt>
      <trkpt lat="47.26817" lon="4.95706">
        <ele>463.39999389648</ele>
        <time>2015-08-29T06:48:15.000Z</time>
      </trkpt>
      <trkpt lat="47.26806" lon="4.95717">
        <ele>463.60000610352</ele>
        <time>2015-08-29T06:48:23.000Z</time>
      </trkpt>
      <trkpt lat="47.268" lon="4.95731">
        <ele>463.79998779297</ele>
        <time>2015-08-29T06:48:31.000Z</time>
      </trkpt>
      <trkpt lat="47.26793" lon="4.95746">
        <ele>463.79998779297</ele>
        <time>2015-08-29T06:48:39.000Z</time>
      </trkpt>
      <trkpt lat="47.26787" lon="4.9576">
        <ele>463.79998779297</ele>
        <time>2015-08-29T06:48:46.000Z</time>
      </trkpt>
      <trkpt lat="47.2678" lon="4.95775">
        <ele>463.79998779297</ele>
        <time>2015-08-29T06:48:54.000Z</time>
      </trkpt>
      <trkpt lat="47.26776" lon="4.95784">
        <ele>463.79998779297</ele>
        <time>2015-08-29T06:48:59.000Z</time>
      </trkpt>
      <trkpt lat="47.26767" lon="4.95797">
        <ele>463.79998779297</ele>
        <time>2015-08-29T06:49:07.000Z</time>
      </trkpt>
      <trkpt lat="47.26758" lon="4.95805">
        <ele>463.79998779297</ele>
        <time>2015-08-29T06:49:14.000Z</time>
      </trkpt>
      <trkpt lat="47.26751" lon="4.95809">
        <ele>463.79998779297</ele>
        <time>2015-08-29T06:49:18.000Z</time>
      </trkpt>
      <trkpt lat="47.26743" lon="4.95815">
        <ele>463.79998779297</ele>
        <time>2015-08-29T06:49:24.000Z</time>
      </trkpt>
      <trkpt lat="47.26731" lon="4.95816">
        <ele>464</ele>
        <time>2015-08-29T06:49:32.000Z</time>
      </trkpt>
      <trkpt lat="47.26725" lon="4.9581">
        <ele>464.20001220703</ele>
        <time>2015-08-29T06:49:38.000Z</time>
      </trkpt>
      <trkpt lat="47.26719" lon="4.95793">
        <ele>464.60000610352</ele>
        <time>2015-08-29T06:49:46.000Z</time>
      </trkpt>
      <trkpt lat="47.26715" lon="4.95782">
        <ele>465</ele>
        <time>2015-08-29T06:49:51.000Z</time>
      </trkpt>
      <trkpt lat="47.2671" lon="4.9577">
        <ele>465.60000610352</ele>
        <time>2015-08-29T06:49:58.000Z</time>
      </trkpt>
      <trkpt lat="47.26706" lon="4.95758">
        <ele>466.20001220703</ele>
        <time>2015-08-29T06:50:05.000Z</time>
      </trkpt>
      <trkpt lat="47.26705" lon="4.95756">
        <ele>466.20001220703</ele>
        <time>2015-08-29T06:50:06.000Z</time>
      </trkpt>
      <trkpt lat="47.26702" lon="4.95743">
        <ele>466.79998779297</ele>
        <time>2015-08-29T06:50:12.000Z</time>
      </trkpt>
      <trkpt lat="47.26701" lon="4.95735">
        <ele>466.79998779297</ele>
        <time>2015-08-29T06:50:16.000Z</time>
      </trkpt>
      <trkpt lat="47.26699" lon="4.95725">
        <ele>467</ele>
        <time>2015-08-29T06:50:21.000Z</time>
      </trkpt>
      <trkpt lat="47.26699" lon="4.95714">
        <ele>467.20001220703</ele>
        <time>2015-08-29T06:50:26.000Z</time>
      </trkpt>
      <trkpt lat="47.26699" lon="4.95709">
        <ele>467.20001220703</ele>
        <time>2015-08-29T06:50:28.000Z</time>
      </trkpt>
      <trkpt lat="47.26698" lon="4.95703">
        <ele>467.39999389648</ele>
        <time>2015-08-29T06:50:31.000Z</time>
      </trkpt>
      <trkpt lat="47.26699" lon="4.95693">
        <ele>467.39999389648</ele>
        <time>2015-08-29T06:50:37.000Z</time>
      </trkpt>
      <trkpt lat="47.26699" lon="4.95684">
        <ele>467.60000610352</ele>
        <time>2015-08-29T06:50:41.000Z</time>
      </trkpt>
      <trkpt lat="47.26698" lon="4.95675">
        <ele>467.79998779297</ele>
        <time>2015-08-29T06:50:45.000Z</time>
      </trkpt>
      <trkpt lat="47.26698" lon="4.95673">
        <ele>467.79998779297</ele>
        <time>2015-08-29T06:50:46.000Z</time>
      </trkpt>
      <trkpt lat="47.26697" lon="4.95662">
        <ele>468</ele>
        <time>2015-08-29T06:50:52.000Z</time>
      </trkpt>
      <trkpt lat="47.26698" lon="4.95656">
        <ele>468</ele>
        <time>2015-08-29T06:50:55.000Z</time>
      </trkpt>
      <trkpt lat="47.26698" lon="4.95646">
        <ele>468.20001220703</ele>
        <time>2015-08-29T06:51:00.000Z</time>
      </trkpt>
      <trkpt lat="47.26698" lon="4.95643">
        <ele>468.39999389648</ele>
        <time>2015-08-29T06:51:02.000Z</time>
      </trkpt>
      <trkpt lat="47.26698" lon="4.95637">
        <ele>468.39999389648</ele>
        <time>2015-08-29T06:51:05.000Z</time>
      </trkpt>
      <trkpt lat="47.26699" lon="4.95627">
        <ele>468.60000610352</ele>
        <time>2015-08-29T06:51:09.000Z</time>
      </trkpt>
      <trkpt lat="47.26699" lon="4.95612">
        <ele>469</ele>
        <time>2015-08-29T06:51:16.000Z</time>
      </trkpt>
      <trkpt lat="47.26699" lon="4.95605">
        <ele>469.20001220703</ele>
        <time>2015-08-29T06:51:19.000Z</time>
      </trkpt>
      <trkpt lat="47.26701" lon="4.95592">
        <ele>469.39999389648</ele>
        <time>2015-08-29T06:51:25.000Z</time>
      </trkpt>
      <trkpt lat="47.26703" lon="4.95585">
        <ele>469.39999389648</ele>
        <time>2015-08-29T06:51:29.000Z</time>
      </trkpt>
      <trkpt lat="47.26702" lon="4.95584">
        <ele>469.60000610352</ele>
        <time>2015-08-29T06:51:31.000Z</time>
      </trkpt>
      <trkpt lat="47.26697" lon="4.95573">
        <ele>470</ele>
        <time>2015-08-29T06:51:37.000Z</time>
      </trkpt>
      <trkpt lat="47.26695" lon="4.9557">
        <ele>470</ele>
        <time>2015-08-29T06:51:39.000Z</time>
      </trkpt>
      <trkpt lat="47.26694" lon="4.95566">
        <ele>470</ele>
        <time>2015-08-29T06:51:42.000Z</time>
      </trkpt>
      <trkpt lat="47.26691" lon="4.95561">
        <ele>470.20001220703</ele>
        <time>2015-08-29T06:51:46.000Z</time>
      </trkpt>
      <trkpt lat="47.26691" lon="4.95559">
        <ele>470.20001220703</ele>
        <time>2015-08-29T06:51:48.000Z</time>
      </trkpt>
      <trkpt lat="47.26687" lon="4.95552">
        <ele>470.39999389648</ele>
        <time>2015-08-29T06:51:54.000Z</time>
      </trkpt>
      <trkpt lat="47.26685" lon="4.95547">
        <ele>470.39999389648</ele>
        <time>2015-08-29T06:51:57.000Z</time>
      </trkpt>
      <trkpt lat="47.2668" lon="4.95539">
        <ele>470.79998779297</ele>
        <time>2015-08-29T06:52:03.000Z</time>
      </trkpt>
      <trkpt lat="47.26677" lon="4.95533">
        <ele>471.20001220703</ele>
        <time>2015-08-29T06:52:07.000Z</time>
      </trkpt>
      <trkpt lat="47.26676" lon="4.95532">
        <ele>471.20001220703</ele>
        <time>2015-08-29T06:52:08.000Z</time>
      </trkpt>
      <trkpt lat="47.26674" lon="4.95529">
        <ele>471.39999389648</ele>
        <time>2015-08-29T06:52:10.000Z</time>
      </trkpt>
      <trkpt lat="47.26669" lon="4.95517">
        <ele>472.20001220703</ele>
        <time>2015-08-29T06:52:16.000Z</time>
      </trkpt>
      <trkpt lat="47.26663" lon="4.95506">
        <ele>472.79998779297</ele>
        <time>2015-08-29T06:52:21.000Z</time>
      </trkpt>
      <trkpt lat="47.26662" lon="4.95505">
        <ele>472.79998779297</ele>
        <time>2015-08-29T06:52:22.000Z</time>
      </trkpt>
      <trkpt lat="47.26657" lon="4.95496">
        <ele>473.20001220703</ele>
        <time>2015-08-29T06:52:27.000Z</time>
      </trkpt>
      <trkpt lat="47.26656" lon="4.95496">
        <ele>473.20001220703</ele>
        <time>2015-08-29T06:52:28.000Z</time>
      </trkpt>
      <trkpt lat="47.26652" lon="4.95489">
        <ele>473.39999389648</ele>
        <time>2015-08-29T06:52:32.000Z</time>
      </trkpt>
      <trkpt lat="47.2665" lon="4.95487">
        <ele>473.39999389648</ele>
        <time>2015-08-29T06:52:33.000Z</time>
      </trkpt>
      <trkpt lat="47.26647" lon="4.9548">
        <ele>473.60000610352</ele>
        <time>2015-08-29T06:52:37.000Z</time>
      </trkpt>
      <trkpt lat="47.26642" lon="4.95476">
        <ele>473.79998779297</ele>
        <time>2015-08-29T06:52:40.000Z</time>
      </trkpt>
      <trkpt lat="47.26638" lon="4.95464">
        <ele>474.20001220703</ele>
        <time>2015-08-29T06:52:46.000Z</time>
      </trkpt>
      <trkpt lat="47.26636" lon="4.9546">
        <ele>474.20001220703</ele>
        <time>2015-08-29T06:52:49.000Z</time>
      </trkpt>
      <trkpt lat="47.26637" lon="4.95459">
        <ele>474.20001220703</ele>
        <time>2015-08-29T06:52:51.000Z</time>
      </trkpt>
      <trkpt lat="47.26636" lon="4.9545">
        <ele>474.39999389648</ele>
        <time>2015-08-29T06:52:55.000Z</time>
      </trkpt>
      <trkpt lat="47.26635" lon="4.95436">
        <ele>474.39999389648</ele>
        <time>2015-08-29T06:53:02.000Z</time>
      </trkpt>
      <trkpt lat="47.26634" lon="4.95433">
        <ele>474.39999389648</ele>
        <time>2015-08-29T06:53:04.000Z</time>
      </trkpt>
      <trkpt lat="47.26634" lon="4.9542">
        <ele>474</ele>
        <time>2015-08-29T06:53:09.000Z</time>
      </trkpt>
      <trkpt lat="47.26634" lon="4.95417">
        <ele>474</ele>
        <time>2015-08-29T06:53:11.000Z</time>
      </trkpt>
      <trkpt lat="47.26629" lon="4.95405">
        <ele>473.79998779297</ele>
        <time>2015-08-29T06:53:18.000Z</time>
      </trkpt>
      <trkpt lat="47.26626" lon="4.95387">
        <ele>473.20001220703</ele>
        <time>2015-08-29T06:53:25.000Z</time>
      </trkpt>
      <trkpt lat="47.26623" lon="4.95381">
        <ele>473.20001220703</ele>
        <time>2015-08-29T06:53:28.000Z</time>
      </trkpt>
      <trkpt lat="47.26621" lon="4.95376">
        <ele>473</ele>
        <time>2015-08-29T06:53:31.000Z</time>
      </trkpt>
      <trkpt lat="47.26615" lon="4.95366">
        <ele>473</ele>
        <time>2015-08-29T06:53:38.000Z</time>
      </trkpt>
      <trkpt lat="47.26614" lon="4.95364">
        <ele>473</ele>
        <time>2015-08-29T06:53:39.000Z</time>
      </trkpt>
      <trkpt lat="47.26606" lon="4.95354">
        <ele>473</ele>
        <time>2015-08-29T06:53:45.000Z</time>
      </trkpt>
      <trkpt lat="47.26601" lon="4.95348">
        <ele>473</ele>
        <time>2015-08-29T06:53:49.000Z</time>
      </trkpt>
      <trkpt lat="47.26599" lon="4.95344">
        <ele>473</ele>
        <time>2015-08-29T06:53:52.000Z</time>
      </trkpt>
      <trkpt lat="47.26592" lon="4.95334">
        <ele>473</ele>
        <time>2015-08-29T06:53:59.000Z</time>
      </trkpt>
      <trkpt lat="47.26587" lon="4.95327">
        <ele>473</ele>
        <time>2015-08-29T06:54:03.000Z</time>
      </trkpt>
      <trkpt lat="47.26579" lon="4.95318">
        <ele>473</ele>
        <time>2015-08-29T06:54:09.000Z</time>
      </trkpt>
      <trkpt lat="47.26579" lon="4.95317">
        <ele>473</ele>
        <time>2015-08-29T06:54:10.000Z</time>
      </trkpt>
      <trkpt lat="47.26572" lon="4.95308">
        <ele>473.20001220703</ele>
        <time>2015-08-29T06:54:16.000Z</time>
      </trkpt>
      <trkpt lat="47.26567" lon="4.95302">
        <ele>473.39999389648</ele>
        <time>2015-08-29T06:54:21.000Z</time>
      </trkpt>
      <trkpt lat="47.2656" lon="4.95289">
        <ele>473.39999389648</ele>
        <time>2015-08-29T06:54:28.000Z</time>
      </trkpt>
      <trkpt lat="47.26557" lon="4.95283">
        <ele>473.39999389648</ele>
        <time>2015-08-29T06:54:32.000Z</time>
      </trkpt>
      <trkpt lat="47.26555" lon="4.95279">
        <ele>473.39999389648</ele>
        <time>2015-08-29T06:54:35.000Z</time>
      </trkpt>
      <trkpt lat="47.26551" lon="4.95271">
        <ele>473.60000610352</ele>
        <time>2015-08-29T06:54:40.000Z</time>
      </trkpt>
      <trkpt lat="47.26547" lon="4.95263">
        <ele>473.60000610352</ele>
        <time>2015-08-29T06:54:45.000Z</time>
      </trkpt>
      <trkpt lat="47.26541" lon="4.95255">
        <ele>474</ele>
        <time>2015-08-29T06:54:51.000Z</time>
      </trkpt>
      <trkpt lat="47.26533" lon="4.95246">
        <ele>474.20001220703</ele>
        <time>2015-08-29T06:54:58.000Z</time>
      </trkpt>
      <trkpt lat="47.26527" lon="4.95239">
        <ele>474.60000610352</ele>
        <time>2015-08-29T06:55:03.000Z</time>
      </trkpt>
      <trkpt lat="47.26526" lon="4.95238">
        <ele>474.60000610352</ele>
        <time>2015-08-29T06:55:04.000Z</time>
      </trkpt>
      <trkpt lat="47.26517" lon="4.95229">
        <ele>475</ele>
        <time>2015-08-29T06:55:12.000Z</time>
      </trkpt>
      <trkpt lat="47.26514" lon="4.95225">
        <ele>475.20001220703</ele>
        <time>2015-08-29T06:55:14.000Z</time>
      </trkpt>
      <trkpt lat="47.26511" lon="4.95219">
        <ele>475.20001220703</ele>
        <time>2015-08-29T06:55:18.000Z</time>
      </trkpt>
      <trkpt lat="47.26509" lon="4.95215">
        <ele>475.20001220703</ele>
        <time>2015-08-29T06:55:20.000Z</time>
      </trkpt>
      <trkpt lat="47.26507" lon="4.95209">
        <ele>475.20001220703</ele>
        <time>2015-08-29T06:55:24.000Z</time>
      </trkpt>
      <trkpt lat="47.26504" lon="4.95204">
        <ele>475.39999389648</ele>
        <time>2015-08-29T06:55:27.000Z</time>
      </trkpt>
      <trkpt lat="47.26501" lon="4.95198">
        <ele>475.60000610352</ele>
        <time>2015-08-29T06:55:31.000Z</time>
      </trkpt>
      <trkpt lat="47.26493" lon="4.95183">
        <ele>476</ele>
        <time>2015-08-29T06:55:38.000Z</time>
      </trkpt>
      <trkpt lat="47.26492" lon="4.9518">
        <ele>476</ele>
        <time>2015-08-29T06:55:39.000Z</time>
      </trkpt>
      <trkpt lat="47.26488" lon="4.95173">
        <ele>476.20001220703</ele>
        <time>2015-08-29T06:55:43.000Z</time>
      </trkpt>
      <trkpt lat="47.26479" lon="4.95159">
        <ele>476.79998779297</ele>
        <time>2015-08-29T06:55:50.000Z</time>
      </trkpt>
      <trkpt lat="47.26471" lon="4.95149">
        <ele>477.39999389648</ele>
        <time>2015-08-29T06:55:56.000Z</time>
      </trkpt>
      <trkpt lat="47.26466" lon="4.9514">
        <ele>477.79998779297</ele>
        <time>2015-08-29T06:56:01.000Z</time>
      </trkpt>
      <trkpt lat="47.26463" lon="4.95131">
        <ele>477.79998779297</ele>
        <time>2015-08-29T06:56:06.000Z</time>
      </trkpt>
      <trkpt lat="47.2646" lon="4.95116">
        <ele>478</ele>
        <time>2015-08-29T06:56:14.000Z</time>
      </trkpt>
      <trkpt lat="47.26457" lon="4.95106">
        <ele>478.39999389648</ele>
        <time>2015-08-29T06:56:19.000Z</time>
      </trkpt>
      <trkpt lat="47.26454" lon="4.95101">
        <ele>478.60000610352</ele>
        <time>2015-08-29T06:56:25.000Z</time>
      </trkpt>
      <trkpt lat="47.26465" lon="4.95108">
        <ele>477.60000610352</ele>
        <time>2015-08-29T06:57:57.000Z</time>
      </trkpt>
      <trkpt lat="47.26462" lon="4.95094">
        <ele>477.79998779297</ele>
        <time>2015-08-29T06:58:05.000Z</time>
      </trkpt>
      <trkpt lat="47.26459" lon="4.95085">
        <ele>478.20001220703</ele>
        <time>2015-08-29T06:58:10.000Z</time>
      </trkpt>
      <trkpt lat="47.26459" lon="4.95079">
        <ele>478.20001220703</ele>
        <time>2015-08-29T06:58:13.000Z</time>
      </trkpt>
      <trkpt lat="47.26455" lon="4.95069">
        <ele>478.79998779297</ele>
        <time>2015-08-29T06:58:18.000Z</time>
      </trkpt>
      <trkpt lat="47.26447" lon="4.95056">
        <ele>479.60000610352</ele>
        <time>2015-08-29T06:58:24.000Z</time>
      </trkpt>
      <trkpt lat="47.26446" lon="4.95056">
        <ele>479.60000610352</ele>
        <time>2015-08-29T06:58:25.000Z</time>
      </trkpt>
      <trkpt lat="47.26441" lon="4.95037">
        <ele>480.20001220703</ele>
        <time>2015-08-29T06:58:33.000Z</time>
      </trkpt>
      <trkpt lat="47.26437" lon="4.95027">
        <ele>480.20001220703</ele>
        <time>2015-08-29T06:58:38.000Z</time>
      </trkpt>
      <trkpt lat="47.26433" lon="4.95017">
        <ele>480.20001220703</ele>
        <time>2015-08-29T06:58:43.000Z</time>
      </trkpt>
      <trkpt lat="47.26432" lon="4.95015">
        <ele>480.20001220703</ele>
        <time>2015-08-29T06:58:44.000Z</time>
      </trkpt>
      <trkpt lat="47.2643" lon="4.9501">
        <ele>480.20001220703</ele>
        <time>2015-08-29T06:58:47.000Z</time>
      </trkpt>
      <trkpt lat="47.26428" lon="4.95007">
        <ele>480.20001220703</ele>
        <time>2015-08-29T06:58:49.000Z</time>
      </trkpt>
      <trkpt lat="47.26421" lon="4.94993">
        <ele>480.39999389648</ele>
        <time>2015-08-29T06:58:56.000Z</time>
      </trkpt>
      <trkpt lat="47.26417" lon="4.9498">
        <ele>480.20001220703</ele>
        <time>2015-08-29T06:59:03.000Z</time>
      </trkpt>
      <trkpt lat="47.26408" lon="4.94964">
        <ele>480.39999389648</ele>
        <time>2015-08-29T06:59:11.000Z</time>
      </trkpt>
      <trkpt lat="47.26406" lon="4.94962">
        <ele>480.39999389648</ele>
        <time>2015-08-29T06:59:13.000Z</time>
      </trkpt>
      <trkpt lat="47.26399" lon="4.94954">
        <ele>480.39999389648</ele>
        <time>2015-08-29T06:59:18.000Z</time>
      </trkpt>
      <trkpt lat="47.26396" lon="4.94948">
        <ele>480.60000610352</ele>
        <time>2015-08-29T06:59:22.000Z</time>
      </trkpt>
      <trkpt lat="47.2639" lon="4.94941">
        <ele>480.60000610352</ele>
        <time>2015-08-29T06:59:28.000Z</time>
      </trkpt>
      <trkpt lat="47.26384" lon="4.94931">
        <ele>480.79998779297</ele>
        <time>2015-08-29T06:59:34.000Z</time>
      </trkpt>
      <trkpt lat="47.26379" lon="4.94923">
        <ele>480.79998779297</ele>
        <time>2015-08-29T06:59:38.000Z</time>
      </trkpt>
      <trkpt lat="47.26376" lon="4.94915">
        <ele>480.79998779297</ele>
        <time>2015-08-29T06:59:42.000Z</time>
      </trkpt>
      <trkpt lat="47.26372" lon="4.94906">
        <ele>480.79998779297</ele>
        <time>2015-08-29T06:59:46.000Z</time>
      </trkpt>
      <trkpt lat="47.26367" lon="4.94896">
        <ele>480.79998779297</ele>
        <time>2015-08-29T06:59:52.000Z</time>
      </trkpt>
      <trkpt lat="47.26366" lon="4.94894">
        <ele>480.79998779297</ele>
        <time>2015-08-29T06:59:53.000Z</time>
      </trkpt>
      <trkpt lat="47.26361" lon="4.94885">
        <ele>480.79998779297</ele>
        <time>2015-08-29T06:59:58.000Z</time>
      </trkpt>
      <trkpt lat="47.26357" lon="4.94871">
        <ele>480.60000610352</ele>
        <time>2015-08-29T07:00:05.000Z</time>
      </trkpt>
      <trkpt lat="47.26356" lon="4.94869">
        <ele>480.60000610352</ele>
        <time>2015-08-29T07:00:06.000Z</time>
      </trkpt>
      <trkpt lat="47.26352" lon="4.94855">
        <ele>480.20001220703</ele>
        <time>2015-08-29T07:00:13.000Z</time>
      </trkpt>
      <trkpt lat="47.2635" lon="4.94853">
        <ele>480.20001220703</ele>
        <time>2015-08-29T07:00:14.000Z</time>
      </trkpt>
      <trkpt lat="47.26348" lon="4.94848">
        <ele>480.20001220703</ele>
        <time>2015-08-29T07:00:17.000Z</time>
      </trkpt>
      <trkpt lat="47.26343" lon="4.94842">
        <ele>480.20001220703</ele>
        <time>2015-08-29T07:00:20.000Z</time>
      </trkpt>
      <trkpt lat="47.26339" lon="4.9483">
        <ele>480</ele>
        <time>2015-08-29T07:00:26.000Z</time>
      </trkpt>
      <trkpt lat="47.26338" lon="4.94829">
        <ele>480</ele>
        <time>2015-08-29T07:00:27.000Z</time>
      </trkpt>
      <trkpt lat="47.26332" lon="4.94811">
        <ele>479.60000610352</ele>
        <time>2015-08-29T07:00:35.000Z</time>
      </trkpt>
      <trkpt lat="47.26329" lon="4.94798">
        <ele>479.20001220703</ele>
        <time>2015-08-29T07:00:40.000Z</time>
      </trkpt>
      <trkpt lat="47.26325" lon="4.94787">
        <ele>479</ele>
        <time>2015-08-29T07:00:46.000Z</time>
      </trkpt>
      <trkpt lat="47.26321" lon="4.94772">
        <ele>478.60000610352</ele>
        <time>2015-08-29T07:00:52.000Z</time>
      </trkpt>
      <trkpt lat="47.26314" lon="4.94759">
        <ele>478.39999389648</ele>
        <time>2015-08-29T07:00:58.000Z</time>
      </trkpt>
      <trkpt lat="47.26314" lon="4.94754">
        <ele>478.39999389648</ele>
        <time>2015-08-29T07:01:01.000Z</time>
      </trkpt>
      <trkpt lat="47.2631" lon="4.94747">
        <ele>478.20001220703</ele>
        <time>2015-08-29T07:01:06.000Z</time>
      </trkpt>
      <trkpt lat="47.26309" lon="4.94746">
        <ele>478.20001220703</ele>
        <time>2015-08-29T07:01:07.000Z</time>
      </trkpt>
      <trkpt lat="47.26307" lon="4.94739">
        <ele>478.20001220703</ele>
        <time>2015-08-29T07:01:10.000Z</time>
      </trkpt>
      <trkpt lat="47.26306" lon="4.94733">
        <ele>478</ele>
        <time>2015-08-29T07:01:13.000Z</time>
      </trkpt>
      <trkpt lat="47.26304" lon="4.94721">
        <ele>477.79998779297</ele>
        <time>2015-08-29T07:01:18.000Z</time>
      </trkpt>
      <trkpt lat="47.26304" lon="4.9472">
        <ele>477.79998779297</ele>
        <time>2015-08-29T07:01:19.000Z</time>
      </trkpt>
      <trkpt lat="47.26302" lon="4.94711">
        <ele>477.79998779297</ele>
        <time>2015-08-29T07:01:23.000Z</time>
      </trkpt>
      <trkpt lat="47.263" lon="4.94704">
        <ele>477.60000610352</ele>
        <time>2015-08-29T07:01:26.000Z</time>
      </trkpt>
      <trkpt lat="47.26299" lon="4.94695">
        <ele>477.60000610352</ele>
        <time>2015-08-29T07:01:30.000Z</time>
      </trkpt>
      <trkpt lat="47.26293" lon="4.94678">
        <ele>477.60000610352</ele>
        <time>2015-08-29T07:01:38.000Z</time>
      </trkpt>
      <trkpt lat="47.26291" lon="4.94668">
        <ele>477.60000610352</ele>
        <time>2015-08-29T07:01:43.000Z</time>
      </trkpt>
      <trkpt lat="47.26289" lon="4.94666">
        <ele>477.60000610352</ele>
        <time>2015-08-29T07:01:44.000Z</time>
      </trkpt>
      <trkpt lat="47.26288" lon="4.94652">
        <ele>477.60000610352</ele>
        <time>2015-08-29T07:01:51.000Z</time>
      </trkpt>
      <trkpt lat="47.26286" lon="4.94635">
        <ele>477.79998779297</ele>
        <time>2015-08-29T07:01:59.000Z</time>
      </trkpt>
      <trkpt lat="47.26286" lon="4.94625">
        <ele>478</ele>
        <time>2015-08-29T07:02:04.000Z</time>
      </trkpt>
      <trkpt lat="47.26284" lon="4.94611">
        <ele>478</ele>
        <time>2015-08-29T07:02:10.000Z</time>
      </trkpt>
      <trkpt lat="47.26283" lon="4.94605">
        <ele>477.79998779297</ele>
        <time>2015-08-29T07:02:13.000Z</time>
      </trkpt>
      <trkpt lat="47.2628" lon="4.94594">
        <ele>477.79998779297</ele>
        <time>2015-08-29T07:02:18.000Z</time>
      </trkpt>
      <trkpt lat="47.26277" lon="4.94584">
        <ele>477.79998779297</ele>
        <time>2015-08-29T07:02:23.000Z</time>
      </trkpt>
      <trkpt lat="47.26275" lon="4.94581">
        <ele>477.60000610352</ele>
        <time>2015-08-29T07:02:25.000Z</time>
      </trkpt>
      <trkpt lat="47.2627" lon="4.94568">
        <ele>477.60000610352</ele>
        <time>2015-08-29T07:02:31.000Z</time>
      </trkpt>
      <trkpt lat="47.26269" lon="4.94566">
        <ele>477.60000610352</ele>
        <time>2015-08-29T07:02:32.000Z</time>
      </trkpt>
      <trkpt lat="47.26268" lon="4.94561">
        <ele>477.60000610352</ele>
        <time>2015-08-29T07:02:34.000Z</time>
      </trkpt>
      <trkpt lat="47.26262" lon="4.94552">
        <ele>477.39999389648</ele>
        <time>2015-08-29T07:02:40.000Z</time>
      </trkpt>
      <trkpt lat="47.2626" lon="4.94549">
        <ele>477.39999389648</ele>
        <time>2015-08-29T07:02:42.000Z</time>
      </trkpt>
      <trkpt lat="47.26253" lon="4.94539">
        <ele>477.20001220703</ele>
        <time>2015-08-29T07:02:48.000Z</time>
      </trkpt>
      <trkpt lat="47.26247" lon="4.9453">
        <ele>477.20001220703</ele>
        <time>2015-08-29T07:02:54.000Z</time>
      </trkpt>
      <trkpt lat="47.26242" lon="4.94523">
        <ele>477.39999389648</ele>
        <time>2015-08-29T07:03:14.000Z</time>
      </trkpt>
      <trkpt lat="47.26237" lon="4.94515">
        <ele>477.60000610352</ele>
        <time>2015-08-29T07:03:20.000Z</time>
      </trkpt>
      <trkpt lat="47.26231" lon="4.94508">
        <ele>477.79998779297</ele>
        <time>2015-08-29T07:03:25.000Z</time>
      </trkpt>
      <trkpt lat="47.26222" lon="4.94499">
        <ele>478</ele>
        <time>2015-08-29T07:03:33.000Z</time>
      </trkpt>
      <trkpt lat="47.26215" lon="4.94491">
        <ele>478.20001220703</ele>
        <time>2015-08-29T07:03:39.000Z</time>
      </trkpt>
      <trkpt lat="47.2621" lon="4.94486">
        <ele>478.39999389648</ele>
        <time>2015-08-29T07:03:43.000Z</time>
      </trkpt>
      <trkpt lat="47.26208" lon="4.94483">
        <ele>478.39999389648</ele>
        <time>2015-08-29T07:03:46.000Z</time>
      </trkpt>
      <trkpt lat="47.26199" lon="4.9447">
        <ele>478.60000610352</ele>
        <time>2015-08-29T07:03:54.000Z</time>
      </trkpt>
      <trkpt lat="47.26191" lon="4.94463">
        <ele>478.79998779297</ele>
        <time>2015-08-29T07:04:00.000Z</time>
      </trkpt>
      <trkpt lat="47.2619" lon="4.94461">
        <ele>479</ele>
        <time>2015-08-29T07:04:01.000Z</time>
      </trkpt>
      <trkpt lat="47.26186" lon="4.94455">
        <ele>479.20001220703</ele>
        <time>2015-08-29T07:04:06.000Z</time>
      </trkpt>
      <trkpt lat="47.2618" lon="4.94449">
        <ele>479.39999389648</ele>
        <time>2015-08-29T07:04:11.000Z</time>
      </trkpt>
      <trkpt lat="47.26174" lon="4.94444">
        <ele>479.79998779297</ele>
        <time>2015-08-29T07:04:16.000Z</time>
      </trkpt>
      <trkpt lat="47.26169" lon="4.94444">
        <ele>479.79998779297</ele>
        <time>2015-08-29T07:04:20.000Z</time>
      </trkpt>
      <trkpt lat="47.26163" lon="4.94448">
        <ele>479.60000610352</ele>
        <time>2015-08-29T07:04:25.000Z</time>
      </trkpt>
      <trkpt lat="47.26155" lon="4.94453">
        <ele>479</ele>
        <time>2015-08-29T07:04:31.000Z</time>
      </trkpt>
      <trkpt lat="47.26154" lon="4.94455">
        <ele>479</ele>
        <time>2015-08-29T07:04:32.000Z</time>
      </trkpt>
      <trkpt lat="47.26149" lon="4.94463">
        <ele>478.60000610352</ele>
        <time>2015-08-29T07:04:37.000Z</time>
      </trkpt>
      <trkpt lat="47.26147" lon="4.94469">
        <ele>478.20001220703</ele>
        <time>2015-08-29T07:04:42.000Z</time>
      </trkpt>
      <trkpt lat="47.26146" lon="4.94477">
        <ele>477.79998779297</ele>
        <time>2015-08-29T07:04:46.000Z</time>
      </trkpt>
      <trkpt lat="47.26145" lon="4.94489">
        <ele>477.20001220703</ele>
        <time>2015-08-29T07:04:52.000Z</time>
      </trkpt>
      <trkpt lat="47.26145" lon="4.94494">
        <ele>477</ele>
        <time>2015-08-29T07:04:55.000Z</time>
      </trkpt>
      <trkpt lat="47.26145" lon="4.94498">
        <ele>476.79998779297</ele>
        <time>2015-08-29T07:04:57.000Z</time>
      </trkpt>
      <trkpt lat="47.26143" lon="4.94507">
        <ele>476.39999389648</ele>
        <time>2015-08-29T07:05:02.000Z</time>
      </trkpt>
      <trkpt lat="47.26144" lon="4.94515">
        <ele>476</ele>
        <time>2015-08-29T07:05:06.000Z</time>
      </trkpt>
      <trkpt lat="47.26144" lon="4.94523">
        <ele>475.60000610352</ele>
        <time>2015-08-29T07:05:10.000Z</time>
      </trkpt>
      <trkpt lat="47.26144" lon="4.94525">
        <ele>475.60000610352</ele>
        <time>2015-08-29T07:05:11.000Z</time>
      </trkpt>
      <trkpt lat="47.26143" lon="4.94533">
        <ele>475.20001220703</ele>
        <time>2015-08-29T07:05:15.000Z</time>
      </trkpt>
      <trkpt lat="47.26143" lon="4.94536">
        <ele>475</ele>
        <time>2015-08-29T07:05:17.000Z</time>
      </trkpt>
      <trkpt lat="47.26141" lon="4.94548">
        <ele>474.39999389648</ele>
        <time>2015-08-29T07:05:23.000Z</time>
      </trkpt>
      <trkpt lat="47.26141" lon="4.94559">
        <ele>474</ele>
        <time>2015-08-29T07:05:28.000Z</time>
      </trkpt>
      <trkpt lat="47.26139" lon="4.94569">
        <ele>473.60000610352</ele>
        <time>2015-08-29T07:05:32.000Z</time>
      </trkpt>
      <trkpt lat="47.26138" lon="4.94571">
        <ele>473.60000610352</ele>
        <time>2015-08-29T07:05:33.000Z</time>
      </trkpt>
      <trkpt lat="47.26137" lon="4.94578">
        <ele>473.39999389648</ele>
        <time>2015-08-29T07:05:36.000Z</time>
      </trkpt>
      <trkpt lat="47.26136" lon="4.94587">
        <ele>473</ele>
        <time>2015-08-29T07:05:40.000Z</time>
      </trkpt>
      <trkpt lat="47.26132" lon="4.94599">
        <ele>472.39999389648</ele>
        <time>2015-08-29T07:05:46.000Z</time>
      </trkpt>
      <trkpt lat="47.26131" lon="4.94601">
        <ele>472.20001220703</ele>
        <time>2015-08-29T07:05:47.000Z</time>
      </trkpt>
      <trkpt lat="47.26128" lon="4.94609">
        <ele>471.60000610352</ele>
        <time>2015-08-29T07:05:52.000Z</time>
      </trkpt>
      <trkpt lat="47.26125" lon="4.94616">
        <ele>471.20001220703</ele>
        <time>2015-08-29T07:05:57.000Z</time>
      </trkpt>
      <trkpt lat="47.26119" lon="4.94626">
        <ele>470.39999389648</ele>
        <time>2015-08-29T07:06:04.000Z</time>
      </trkpt>
      <trkpt lat="47.26118" lon="4.94638">
        <ele>470.20001220703</ele>
        <time>2015-08-29T07:06:09.000Z</time>
      </trkpt>
      <trkpt lat="47.26116" lon="4.9465">
        <ele>470</ele>
        <time>2015-08-29T07:06:14.000Z</time>
      </trkpt>
      <trkpt lat="47.26113" lon="4.94661">
        <ele>469.60000610352</ele>
        <time>2015-08-29T07:06:19.000Z</time>
      </trkpt>
      <trkpt lat="47.26113" lon="4.94666">
        <ele>469.60000610352</ele>
        <time>2015-08-29T07:06:21.000Z</time>
      </trkpt>
      <trkpt lat="47.26109" lon="4.94682">
        <ele>468.60000610352</ele>
        <time>2015-08-29T07:06:28.000Z</time>
      </trkpt>
      <trkpt lat="47.26106" lon="4.947">
        <ele>467.79998779297</ele>
        <time>2015-08-29T07:06:36.000Z</time>
      </trkpt>
      <trkpt lat="47.26104" lon="4.94713">
        <ele>467.60000610352</ele>
        <time>2015-08-29T07:06:42.000Z</time>
      </trkpt>
      <trkpt lat="47.26104" lon="4.94717">
        <ele>467.60000610352</ele>
        <time>2015-08-29T07:06:44.000Z</time>
      </trkpt>
      <trkpt lat="47.26104" lon="4.94739">
        <ele>467.60000610352</ele>
        <time>2015-08-29T07:06:53.000Z</time>
      </trkpt>
      <trkpt lat="47.26104" lon="4.94745">
        <ele>467.20001220703</ele>
        <time>2015-08-29T07:06:56.000Z</time>
      </trkpt>
      <trkpt lat="47.26103" lon="4.94755">
        <ele>466.79998779297</ele>
        <time>2015-08-29T07:07:01.000Z</time>
      </trkpt>
      <trkpt lat="47.26099" lon="4.9477">
        <ele>465.79998779297</ele>
        <time>2015-08-29T07:07:08.000Z</time>
      </trkpt>
      <trkpt lat="47.26097" lon="4.94774">
        <ele>465.60000610352</ele>
        <time>2015-08-29T07:07:10.000Z</time>
      </trkpt>
      <trkpt lat="47.26094" lon="4.94786">
        <ele>464.79998779297</ele>
        <time>2015-08-29T07:07:16.000Z</time>
      </trkpt>
      <trkpt lat="47.26092" lon="4.94802">
        <ele>464.20001220703</ele>
        <time>2015-08-29T07:07:23.000Z</time>
      </trkpt>
      <trkpt lat="47.26086" lon="4.94834">
        <ele>463.20001220703</ele>
        <time>2015-08-29T07:07:38.000Z</time>
      </trkpt>
      <trkpt lat="47.26083" lon="4.94842">
        <ele>462.79998779297</ele>
        <time>2015-08-29T07:07:41.000Z</time>
      </trkpt>
      <trkpt lat="47.26081" lon="4.94855">
        <ele>462.39999389648</ele>
        <time>2015-08-29T07:07:47.000Z</time>
      </trkpt>
      <trkpt lat="47.26077" lon="4.94873">
        <ele>462</ele>
        <time>2015-08-29T07:07:56.000Z</time>
      </trkpt>
      <trkpt lat="47.26074" lon="4.94889">
        <ele>461.79998779297</ele>
        <time>2015-08-29T07:08:03.000Z</time>
      </trkpt>
      <trkpt lat="47.26072" lon="4.9491">
        <ele>461.79998779297</ele>
        <time>2015-08-29T07:08:12.000Z</time>
      </trkpt>
      <trkpt lat="47.2607" lon="4.94929">
        <ele>461.60000610352</ele>
        <time>2015-08-29T07:08:20.000Z</time>
      </trkpt>
      <trkpt lat="47.26068" lon="4.94942">
        <ele>461.60000610352</ele>
        <time>2015-08-29T07:08:26.000Z</time>
      </trkpt>
      <trkpt lat="47.26067" lon="4.94955">
        <ele>461</ele>
        <time>2015-08-29T07:08:32.000Z</time>
      </trkpt>
      <trkpt lat="47.26066" lon="4.94958">
        <ele>460.79998779297</ele>
        <time>2015-08-29T07:08:33.000Z</time>
      </trkpt>
      <trkpt lat="47.26067" lon="4.94976">
        <ele>461</ele>
        <time>2015-08-29T07:08:41.000Z</time>
      </trkpt>
      <trkpt lat="47.2607" lon="4.9499">
        <ele>461.20001220703</ele>
        <time>2015-08-29T07:08:47.000Z</time>
      </trkpt>
      <trkpt lat="47.26071" lon="4.95">
        <ele>461.20001220703</ele>
        <time>2015-08-29T07:08:51.000Z</time>
      </trkpt>
      <trkpt lat="47.26075" lon="4.95014">
        <ele>461.60000610352</ele>
        <time>2015-08-29T07:08:58.000Z</time>
      </trkpt>
      <trkpt lat="47.26079" lon="4.95027">
        <ele>462</ele>
        <time>2015-08-29T07:09:04.000Z</time>
      </trkpt>
      <trkpt lat="47.26084" lon="4.95043">
        <ele>462.39999389648</ele>
        <time>2015-08-29T07:09:11.000Z</time>
      </trkpt>
      <trkpt lat="47.26088" lon="4.95059">
        <ele>462.79998779297</ele>
        <time>2015-08-29T07:09:18.000Z</time>
      </trkpt>
      <trkpt lat="47.26092" lon="4.95075">
        <ele>463</ele>
        <time>2015-08-29T07:09:25.000Z</time>
      </trkpt>
      <trkpt lat="47.26093" lon="4.95089">
        <ele>463.20001220703</ele>
        <time>2015-08-29T07:09:31.000Z</time>
      </trkpt>
      <trkpt lat="47.26093" lon="4.95091">
        <ele>463.20001220703</ele>
        <time>2015-08-29T07:09:32.000Z</time>
      </trkpt>
      <trkpt lat="47.26094" lon="4.951">
        <ele>463.20001220703</ele>
        <time>2015-08-29T07:09:37.000Z</time>
      </trkpt>
      <trkpt lat="47.26098" lon="4.95116">
        <ele>463.60000610352</ele>
        <time>2015-08-29T07:09:44.000Z</time>
      </trkpt>
      <trkpt lat="47.26101" lon="4.9513">
        <ele>463.79998779297</ele>
        <time>2015-08-29T07:09:51.000Z</time>
      </trkpt>
      <trkpt lat="47.26103" lon="4.95143">
        <ele>463.79998779297</ele>
        <time>2015-08-29T07:09:57.000Z</time>
      </trkpt>
      <trkpt lat="47.26103" lon="4.95148">
        <ele>463.79998779297</ele>
        <time>2015-08-29T07:09:59.000Z</time>
      </trkpt>
      <trkpt lat="47.26104" lon="4.95164">
        <ele>463.79998779297</ele>
        <time>2015-08-29T07:10:06.000Z</time>
      </trkpt>
      <trkpt lat="47.26105" lon="4.95175">
        <ele>463.79998779297</ele>
        <time>2015-08-29T07:10:11.000Z</time>
      </trkpt>
      <trkpt lat="47.26105" lon="4.95182">
        <ele>463.79998779297</ele>
        <time>2015-08-29T07:10:14.000Z</time>
      </trkpt>
      <trkpt lat="47.26104" lon="4.95192">
        <ele>463.79998779297</ele>
        <time>2015-08-29T07:10:18.000Z</time>
      </trkpt>
      <trkpt lat="47.26105" lon="4.9521">
        <ele>463.79998779297</ele>
        <time>2015-08-29T07:10:25.000Z</time>
      </trkpt>
      <trkpt lat="47.26104" lon="4.95222">
        <ele>463.39999389648</ele>
        <time>2015-08-29T07:10:30.000Z</time>
      </trkpt>
      <trkpt lat="47.26104" lon="4.95229">
        <ele>463.20001220703</ele>
        <time>2015-08-29T07:10:33.000Z</time>
      </trkpt>
      <trkpt lat="47.26105" lon="4.95238">
        <ele>463.20001220703</ele>
        <time>2015-08-29T07:10:37.000Z</time>
      </trkpt>
      <trkpt lat="47.26107" lon="4.95245">
        <ele>463.39999389648</ele>
        <time>2015-08-29T07:10:41.000Z</time>
      </trkpt>
      <trkpt lat="47.26112" lon="4.95265">
        <ele>463.60000610352</ele>
        <time>2015-08-29T07:10:50.000Z</time>
      </trkpt>
      <trkpt lat="47.26117" lon="4.95281">
        <ele>463.79998779297</ele>
        <time>2015-08-29T07:10:58.000Z</time>
      </trkpt>
      <trkpt lat="47.26121" lon="4.95294">
        <ele>464</ele>
        <time>2015-08-29T07:11:04.000Z</time>
      </trkpt>
      <trkpt lat="47.26126" lon="4.95306">
        <ele>463.79998779297</ele>
        <time>2015-08-29T07:11:10.000Z</time>
      </trkpt>
      <trkpt lat="47.26128" lon="4.95315">
        <ele>463.79998779297</ele>
        <time>2015-08-29T07:11:14.000Z</time>
      </trkpt>
      <trkpt lat="47.26132" lon="4.95324">
        <ele>463.79998779297</ele>
        <time>2015-08-29T07:11:20.000Z</time>
      </trkpt>
      <trkpt lat="47.26134" lon="4.95328">
        <ele>463.79998779297</ele>
        <time>2015-08-29T07:11:23.000Z</time>
      </trkpt>
      <trkpt lat="47.26136" lon="4.95336">
        <ele>463.60000610352</ele>
        <time>2015-08-29T07:11:27.000Z</time>
      </trkpt>
      <trkpt lat="47.26143" lon="4.9535">
        <ele>463.60000610352</ele>
        <time>2015-08-29T07:11:35.000Z</time>
      </trkpt>
      <trkpt lat="47.26148" lon="4.95362">
        <ele>463.60000610352</ele>
        <time>2015-08-29T07:11:41.000Z</time>
      </trkpt>
      <trkpt lat="47.26152" lon="4.95373">
        <ele>463.39999389648</ele>
        <time>2015-08-29T07:11:47.000Z</time>
      </trkpt>
      <trkpt lat="47.26158" lon="4.95382">
        <ele>463.60000610352</ele>
        <time>2015-08-29T07:11:52.000Z</time>
      </trkpt>
      <trkpt lat="47.26165" lon="4.95402">
        <ele>464.20001220703</ele>
        <time>2015-08-29T07:12:01.000Z</time>
      </trkpt>
      <trkpt lat="47.26169" lon="4.95416">
        <ele>464.39999389648</ele>
        <time>2015-08-29T07:12:07.000Z</time>
      </trkpt>
      <trkpt lat="47.26174" lon="4.95431">
        <ele>464.60000610352</ele>
        <time>2015-08-29T07:12:14.000Z</time>
      </trkpt>
      <trkpt lat="47.26179" lon="4.95443">
        <ele>465</ele>
        <time>2015-08-29T07:12:20.000Z</time>
      </trkpt>
      <trkpt lat="47.26181" lon="4.95449">
        <ele>465.20001220703</ele>
        <time>2015-08-29T07:12:23.000Z</time>
      </trkpt>
      <trkpt lat="47.26182" lon="4.95463">
        <ele>465.20001220703</ele>
        <time>2015-08-29T07:12:29.000Z</time>
      </trkpt>
      <trkpt lat="47.26182" lon="4.95465">
        <ele>465</ele>
        <time>2015-08-29T07:12:30.000Z</time>
      </trkpt>
      <trkpt lat="47.26183" lon="4.95473">
        <ele>465</ele>
        <time>2015-08-29T07:12:33.000Z</time>
      </trkpt>
      <trkpt lat="47.26186" lon="4.95484">
        <ele>465.20001220703</ele>
        <time>2015-08-29T07:12:40.000Z</time>
      </trkpt>
      <trkpt lat="47.26187" lon="4.95493">
        <ele>465.39999389648</ele>
        <time>2015-08-29T07:12:45.000Z</time>
      </trkpt>
      <trkpt lat="47.26187" lon="4.95498">
        <ele>465.39999389648</ele>
        <time>2015-08-29T07:12:48.000Z</time>
      </trkpt>
      <trkpt lat="47.26189" lon="4.95513">
        <ele>465.60000610352</ele>
        <time>2015-08-29T07:12:55.000Z</time>
      </trkpt>
      <trkpt lat="47.2619" lon="4.95521">
        <ele>465.79998779297</ele>
        <time>2015-08-29T07:12:59.000Z</time>
      </trkpt>
      <trkpt lat="47.26191" lon="4.95533">
        <ele>466</ele>
        <time>2015-08-29T07:13:04.000Z</time>
      </trkpt>
      <trkpt lat="47.26193" lon="4.95544">
        <ele>466</ele>
        <time>2015-08-29T07:13:09.000Z</time>
      </trkpt>
      <trkpt lat="47.26194" lon="4.95555">
        <ele>465.79998779297</ele>
        <time>2015-08-29T07:13:14.000Z</time>
      </trkpt>
      <trkpt lat="47.26194" lon="4.95557">
        <ele>465.79998779297</ele>
        <time>2015-08-29T07:13:15.000Z</time>
      </trkpt>
      <trkpt lat="47.26196" lon="4.95563">
        <ele>465.60000610352</ele>
        <time>2015-08-29T07:13:17.000Z</time>
      </trkpt>
      <trkpt lat="47.26197" lon="4.95576">
        <ele>465.39999389648</ele>
        <time>2015-08-29T07:13:23.000Z</time>
      </trkpt>
      <trkpt lat="47.26196" lon="4.95578">
        <ele>465.39999389648</ele>
        <time>2015-08-29T07:13:24.000Z</time>
      </trkpt>
      <trkpt lat="47.26196" lon="4.9558">
        <ele>465.39999389648</ele>
        <time>2015-08-29T07:13:25.000Z</time>
      </trkpt>
      <trkpt lat="47.26198" lon="4.95592">
        <ele>465.39999389648</ele>
        <time>2015-08-29T07:13:30.000Z</time>
      </trkpt>
      <trkpt lat="47.26199" lon="4.95599">
        <ele>465.39999389648</ele>
        <time>2015-08-29T07:13:33.000Z</time>
      </trkpt>
      <trkpt lat="47.26202" lon="4.95611">
        <ele>465.39999389648</ele>
        <time>2015-08-29T07:13:39.000Z</time>
      </trkpt>
      <trkpt lat="47.26207" lon="4.95619">
        <ele>465.60000610352</ele>
        <time>2015-08-29T07:13:44.000Z</time>
      </trkpt>
      <trkpt lat="47.26216" lon="4.95634">
        <ele>465.20001220703</ele>
        <time>2015-08-29T07:13:53.000Z</time>
      </trkpt>
      <trkpt lat="47.26219" lon="4.95643">
        <ele>464.79998779297</ele>
        <time>2015-08-29T07:13:57.000Z</time>
      </trkpt>
      <trkpt lat="47.2622" lon="4.95646">
        <ele>464.60000610352</ele>
        <time>2015-08-29T07:13:58.000Z</time>
      </trkpt>
      <trkpt lat="47.26228" lon="4.95664">
        <ele>463.79998779297</ele>
        <time>2015-08-29T07:14:07.000Z</time>
      </trkpt>
      <trkpt lat="47.26234" lon="4.95678">
        <ele>463.20001220703</ele>
        <time>2015-08-29T07:14:14.000Z</time>
      </trkpt>
      <trkpt lat="47.26238" lon="4.95687">
        <ele>462.79998779297</ele>
        <time>2015-08-29T07:14:18.000Z</time>
      </trkpt>
      <trkpt lat="47.26241" lon="4.95701">
        <ele>462.20001220703</ele>
        <time>2015-08-29T07:14:24.000Z</time>
      </trkpt>
      <trkpt lat="47.26243" lon="4.95714">
        <ele>461.79998779297</ele>
        <time>2015-08-29T07:14:30.000Z</time>
      </trkpt>
      <trkpt lat="47.26248" lon="4.95728">
        <ele>461.39999389648</ele>
        <time>2015-08-29T07:14:37.000Z</time>
      </trkpt>
      <trkpt lat="47.26249" lon="4.9573">
        <ele>461.20001220703</ele>
        <time>2015-08-29T07:14:38.000Z</time>
      </trkpt>
      <trkpt lat="47.26253" lon="4.95742">
        <ele>461</ele>
        <time>2015-08-29T07:14:44.000Z</time>
      </trkpt>
      <trkpt lat="47.26259" lon="4.95752">
        <ele>460.79998779297</ele>
        <time>2015-08-29T07:14:50.000Z</time>
      </trkpt>
      <trkpt lat="47.26266" lon="4.95762">
        <ele>460.60000610352</ele>
        <time>2015-08-29T07:14:56.000Z</time>
      </trkpt>
      <trkpt lat="47.26274" lon="4.95773">
        <ele>460.20001220703</ele>
        <time>2015-08-29T07:15:03.000Z</time>
      </trkpt>
      <trkpt lat="47.2628" lon="4.95785">
        <ele>460</ele>
        <time>2015-08-29T07:15:10.000Z</time>
      </trkpt>
      <trkpt lat="47.26282" lon="4.95787">
        <ele>460</ele>
        <time>2015-08-29T07:15:11.000Z</time>
      </trkpt>
      <trkpt lat="47.26287" lon="4.95792">
        <ele>460</ele>
        <time>2015-08-29T07:15:15.000Z</time>
      </trkpt>
      <trkpt lat="47.26292" lon="4.958">
        <ele>459.79998779297</ele>
        <time>2015-08-29T07:15:20.000Z</time>
      </trkpt>
      <trkpt lat="47.26297" lon="4.95803">
        <ele>459.79998779297</ele>
        <time>2015-08-29T07:15:24.000Z</time>
      </trkpt>
      <trkpt lat="47.263" lon="4.95802">
        <ele>459.79998779297</ele>
        <time>2015-08-29T07:15:31.000Z</time>
      </trkpt>
      <trkpt lat="47.26304" lon="4.95795">
        <ele>460.20001220703</ele>
        <time>2015-08-29T07:15:36.000Z</time>
      </trkpt>
      <trkpt lat="47.26306" lon="4.95793">
        <ele>460.39999389648</ele>
        <time>2015-08-29T07:15:40.000Z</time>
      </trkpt>
      <trkpt lat="47.26303" lon="4.95805">
        <ele>459.79998779297</ele>
        <time>2015-08-29T07:15:46.000Z</time>
      </trkpt>
      <trkpt lat="47.26307" lon="4.95813">
        <ele>459.60000610352</ele>
        <time>2015-08-29T07:15:51.000Z</time>
      </trkpt>
      <trkpt lat="47.26313" lon="4.95817">
        <ele>459.60000610352</ele>
        <time>2015-08-29T07:15:58.000Z</time>
      </trkpt>
      <trkpt lat="47.26318" lon="4.95823">
        <ele>459.60000610352</ele>
        <time>2015-08-29T07:16:03.000Z</time>
      </trkpt>
      <trkpt lat="47.26324" lon="4.95828">
        <ele>459.60000610352</ele>
        <time>2015-08-29T07:16:08.000Z</time>
      </trkpt>
      <trkpt lat="47.26329" lon="4.95832">
        <ele>459.39999389648</ele>
        <time>2015-08-29T07:16:12.000Z</time>
      </trkpt>
      <trkpt lat="47.26331" lon="4.95836">
        <ele>459.39999389648</ele>
        <time>2015-08-29T07:16:17.000Z</time>
      </trkpt>
      <trkpt lat="47.26339" lon="4.95845">
        <ele>459</ele>
        <time>2015-08-29T07:16:25.000Z</time>
      </trkpt>
      <trkpt lat="47.26348" lon="4.95855">
        <ele>458.60000610352</ele>
        <time>2015-08-29T07:16:33.000Z</time>
      </trkpt>
      <trkpt lat="47.26354" lon="4.9586">
        <ele>458.60000610352</ele>
        <time>2015-08-29T07:16:38.000Z</time>
      </trkpt>
      <trkpt lat="47.26361" lon="4.95864">
        <ele>458.39999389648</ele>
        <time>2015-08-29T07:16:43.000Z</time>
      </trkpt>
      <trkpt lat="47.26363" lon="4.95867">
        <ele>458.20001220703</ele>
        <time>2015-08-29T07:16:46.000Z</time>
      </trkpt>
      <trkpt lat="47.26367" lon="4.95874">
        <ele>458</ele>
        <time>2015-08-29T07:16:51.000Z</time>
      </trkpt>
      <trkpt lat="47.26374" lon="4.95887">
        <ele>457.20001220703</ele>
        <time>2015-08-29T07:17:00.000Z</time>
      </trkpt>
      <trkpt lat="47.26378" lon="4.95891">
        <ele>457</ele>
        <time>2015-08-29T07:17:03.000Z</time>
      </trkpt>
      <trkpt lat="47.26385" lon="4.95885">
        <ele>457.39999389648</ele>
        <time>2015-08-29T07:17:09.000Z</time>
      </trkpt>
      <trkpt lat="47.26387" lon="4.95879">
        <ele>457.60000610352</ele>
        <time>2015-08-29T07:17:14.000Z</time>
      </trkpt>
      <trkpt lat="47.26394" lon="4.9588">
        <ele>457.60000610352</ele>
        <time>2015-08-29T07:17:19.000Z</time>
      </trkpt>
      <trkpt lat="47.26403" lon="4.95885">
        <ele>457.39999389648</ele>
        <time>2015-08-29T07:17:26.000Z</time>
      </trkpt>
      <trkpt lat="47.26404" lon="4.95886">
        <ele>457.20001220703</ele>
        <time>2015-08-29T07:17:27.000Z</time>
      </trkpt>
      <trkpt lat="47.26413" lon="4.95892">
        <ele>457</ele>
        <time>2015-08-29T07:17:34.000Z</time>
      </trkpt>
      <trkpt lat="47.2642" lon="4.959">
        <ele>456.79998779297</ele>
        <time>2015-08-29T07:17:40.000Z</time>
      </trkpt>
      <trkpt lat="47.26421" lon="4.95901">
        <ele>456.79998779297</ele>
        <time>2015-08-29T07:17:41.000Z</time>
      </trkpt>
      <trkpt lat="47.26428" lon="4.95908">
        <ele>456.60000610352</ele>
        <time>2015-08-29T07:17:47.000Z</time>
      </trkpt>
      <trkpt lat="47.26435" lon="4.95918">
        <ele>456.39999389648</ele>
        <time>2015-08-29T07:17:53.000Z</time>
      </trkpt>
      <trkpt lat="47.26436" lon="4.95919">
        <ele>456.39999389648</ele>
        <time>2015-08-29T07:17:54.000Z</time>
      </trkpt>
      <trkpt lat="47.26447" lon="4.95935">
        <ele>456</ele>
        <time>2015-08-29T07:18:05.000Z</time>
      </trkpt>
      <trkpt lat="47.26454" lon="4.95948">
        <ele>455.60000610352</ele>
        <time>2015-08-29T07:18:12.000Z</time>
      </trkpt>
      <trkpt lat="47.26462" lon="4.95961">
        <ele>455.20001220703</ele>
        <time>2015-08-29T07:18:19.000Z</time>
      </trkpt>
      <trkpt lat="47.26471" lon="4.95973">
        <ele>454.79998779297</ele>
        <time>2015-08-29T07:18:27.000Z</time>
      </trkpt>
      <trkpt lat="47.26482" lon="4.95986">
        <ele>454.60000610352</ele>
        <time>2015-08-29T07:18:36.000Z</time>
      </trkpt>
      <trkpt lat="47.26494" lon="4.95999">
        <ele>454.39999389648</ele>
        <time>2015-08-29T07:18:45.000Z</time>
      </trkpt>
      <trkpt lat="47.26502" lon="4.96006">
        <ele>454.60000610352</ele>
        <time>2015-08-29T07:18:51.000Z</time>
      </trkpt>
      <trkpt lat="47.26511" lon="4.96016">
        <ele>454.79998779297</ele>
        <time>2015-08-29T07:18:58.000Z</time>
      </trkpt>
      <trkpt lat="47.26519" lon="4.96024">
        <ele>455</ele>
        <time>2015-08-29T07:19:04.000Z</time>
      </trkpt>
      <trkpt lat="47.26528" lon="4.96034">
        <ele>455</ele>
        <time>2015-08-29T07:19:11.000Z</time>
      </trkpt>
      <trkpt lat="47.26534" lon="4.96042">
        <ele>455.20001220703</ele>
        <time>2015-08-29T07:19:16.000Z</time>
      </trkpt>
      <trkpt lat="47.2654" lon="4.9605">
        <ele>455.20001220703</ele>
        <time>2015-08-29T07:19:21.000Z</time>
      </trkpt>
      <trkpt lat="47.26551" lon="4.96062">
        <ele>455.60000610352</ele>
        <time>2015-08-29T07:19:30.000Z</time>
      </trkpt>
      <trkpt lat="47.2656" lon="4.96069">
        <ele>456</ele>
        <time>2015-08-29T07:19:37.000Z</time>
      </trkpt>
      <trkpt lat="47.26568" lon="4.96078">
        <ele>456.20001220703</ele>
        <time>2015-08-29T07:19:44.000Z</time>
      </trkpt>
      <trkpt lat="47.26573" lon="4.96083">
        <ele>456.39999389648</ele>
        <time>2015-08-29T07:19:48.000Z</time>
      </trkpt>
      <trkpt lat="47.26579" lon="4.96087">
        <ele>456.79998779297</ele>
        <time>2015-08-29T07:19:52.000Z</time>
      </trkpt>
      <trkpt lat="47.2659" lon="4.96098">
        <ele>456.20001220703</ele>
        <time>2015-08-29T07:20:00.000Z</time>
      </trkpt>
      <trkpt lat="47.26599" lon="4.96104">
        <ele>455.79998779297</ele>
        <time>2015-08-29T07:20:06.000Z</time>
      </trkpt>
      <trkpt lat="47.26605" lon="4.96109">
        <ele>455.39999389648</ele>
        <time>2015-08-29T07:20:11.000Z</time>
      </trkpt>
      <trkpt lat="47.26612" lon="4.96116">
        <ele>455</ele>
        <time>2015-08-29T07:20:17.000Z</time>
      </trkpt>
      <trkpt lat="47.26622" lon="4.96122">
        <ele>454.60000610352</ele>
        <time>2015-08-29T07:20:24.000Z</time>
      </trkpt>
      <trkpt lat="47.2663" lon="4.96126">
        <ele>454.39999389648</ele>
        <time>2015-08-29T07:20:29.000Z</time>
      </trkpt>
      <trkpt lat="47.26632" lon="4.96125">
        <ele>454.39999389648</ele>
        <time>2015-08-29T07:20:31.000Z</time>
      </trkpt>
      <trkpt lat="47.26637" lon="4.96115">
        <ele>454.79998779297</ele>
        <time>2015-08-29T07:20:39.000Z</time>
      </trkpt>
      <trkpt lat="47.26643" lon="4.96105">
        <ele>455.20001220703</ele>
        <time>2015-08-29T07:20:46.000Z</time>
      </trkpt>
      <trkpt lat="47.26645" lon="4.96101">
        <ele>455.20001220703</ele>
        <time>2015-08-29T07:20:49.000Z</time>
      </trkpt>
      <trkpt lat="47.26651" lon="4.96093">
        <ele>455.39999389648</ele>
        <time>2015-08-29T07:20:54.000Z</time>
      </trkpt>
      <trkpt lat="47.26656" lon="4.96083">
        <ele>455.60000610352</ele>
        <time>2015-08-29T07:21:00.000Z</time>
      </trkpt>
      <trkpt lat="47.26663" lon="4.96071">
        <ele>456</ele>
        <time>2015-08-29T07:21:07.000Z</time>
      </trkpt>
      <trkpt lat="47.26663" lon="4.96069">
        <ele>456</ele>
        <time>2015-08-29T07:21:08.000Z</time>
      </trkpt>
      <trkpt lat="47.26666" lon="4.96062">
        <ele>456.39999389648</ele>
        <time>2015-08-29T07:21:12.000Z</time>
      </trkpt>
      <trkpt lat="47.26671" lon="4.96046">
        <ele>457</ele>
        <time>2015-08-29T07:21:20.000Z</time>
      </trkpt>
      <trkpt lat="47.26671" lon="4.96044">
        <ele>457</ele>
        <time>2015-08-29T07:21:21.000Z</time>
      </trkpt>
      <trkpt lat="47.26677" lon="4.96029">
        <ele>457.60000610352</ele>
        <time>2015-08-29T07:21:29.000Z</time>
      </trkpt>
      <trkpt lat="47.2668" lon="4.96018">
        <ele>458</ele>
        <time>2015-08-29T07:21:34.000Z</time>
      </trkpt>
      <trkpt lat="47.26683" lon="4.96004">
        <ele>458.60000610352</ele>
        <time>2015-08-29T07:21:41.000Z</time>
      </trkpt>
      <trkpt lat="47.26686" lon="4.95989">
        <ele>459.20001220703</ele>
        <time>2015-08-29T07:21:48.000Z</time>
      </trkpt>
      <trkpt lat="47.26687" lon="4.9597">
        <ele>459.79998779297</ele>
        <time>2015-08-29T07:21:57.000Z</time>
      </trkpt>
      <trkpt lat="47.26688" lon="4.95957">
        <ele>460</ele>
        <time>2015-08-29T07:22:03.000Z</time>
      </trkpt>
      <trkpt lat="47.26691" lon="4.95939">
        <ele>460.39999389648</ele>
        <time>2015-08-29T07:22:11.000Z</time>
      </trkpt>
      <trkpt lat="47.26692" lon="4.95935">
        <ele>460.60000610352</ele>
        <time>2015-08-29T07:22:13.000Z</time>
      </trkpt>
      <trkpt lat="47.26698" lon="4.9593">
        <ele>460.60000610352</ele>
        <time>2015-08-29T07:22:18.000Z</time>
      </trkpt>
      <trkpt lat="47.267" lon="4.95929">
        <ele>460.60000610352</ele>
        <time>2015-08-29T07:22:20.000Z</time>
      </trkpt>
      <trkpt lat="47.26703" lon="4.95929">
        <ele>460.60000610352</ele>
        <time>2015-08-29T07:22:24.000Z</time>
      </trkpt>
      <trkpt lat="47.26707" lon="4.95936">
        <ele>460.60000610352</ele>
        <time>2015-08-29T07:22:28.000Z</time>
      </trkpt>
      <trkpt lat="47.26717" lon="4.95945">
        <ele>460.20001220703</ele>
        <time>2015-08-29T07:22:36.000Z</time>
      </trkpt>
      <trkpt lat="47.26724" lon="4.95954">
        <ele>460</ele>
        <time>2015-08-29T07:22:42.000Z</time>
      </trkpt>
      <trkpt lat="47.26729" lon="4.95959">
        <ele>460</ele>
        <time>2015-08-29T07:22:46.000Z</time>
      </trkpt>
      <trkpt lat="47.26738" lon="4.95964">
        <ele>459.79998779297</ele>
        <time>2015-08-29T07:22:52.000Z</time>
      </trkpt>
      <trkpt lat="47.26745" lon="4.95972">
        <ele>459.60000610352</ele>
        <time>2015-08-29T07:22:58.000Z</time>
      </trkpt>
      <trkpt lat="47.26753" lon="4.9598">
        <ele>459.60000610352</ele>
        <time>2015-08-29T07:23:04.000Z</time>
      </trkpt>
      <trkpt lat="47.26757" lon="4.95986">
        <ele>459.39999389648</ele>
        <time>2015-08-29T07:23:08.000Z</time>
      </trkpt>
      <trkpt lat="47.26759" lon="4.95989">
        <ele>459.39999389648</ele>
        <time>2015-08-29T07:23:10.000Z</time>
      </trkpt>
      <trkpt lat="47.26763" lon="4.95997">
        <ele>459.20001220703</ele>
        <time>2015-08-29T07:23:15.000Z</time>
      </trkpt>
      <trkpt lat="47.26764" lon="4.95999">
        <ele>459.20001220703</ele>
        <time>2015-08-29T07:23:16.000Z</time>
      </trkpt>
      <trkpt lat="47.26771" lon="4.96017">
        <ele>458.79998779297</ele>
        <time>2015-08-29T07:23:24.000Z</time>
      </trkpt>
      <trkpt lat="47.26786" lon="4.96043">
        <ele>458.39999389648</ele>
        <time>2015-08-29T07:23:39.000Z</time>
      </trkpt>
      <trkpt lat="47.26792" lon="4.96054">
        <ele>458.20001220703</ele>
        <time>2015-08-29T07:23:45.000Z</time>
      </trkpt>
      <trkpt lat="47.26794" lon="4.96058">
        <ele>458.20001220703</ele>
        <time>2015-08-29T07:23:47.000Z</time>
      </trkpt>
      <trkpt lat="47.26798" lon="4.96073">
        <ele>457.79998779297</ele>
        <time>2015-08-29T07:23:54.000Z</time>
      </trkpt>
      <trkpt lat="47.26801" lon="4.96085">
        <ele>457.60000610352</ele>
        <time>2015-08-29T07:24:00.000Z</time>
      </trkpt>
      <trkpt lat="47.26799" lon="4.96101">
        <ele>457.20001220703</ele>
        <time>2015-08-29T07:24:07.000Z</time>
      </trkpt>
      <trkpt lat="47.26794" lon="4.96114">
        <ele>456.79998779297</ele>
        <time>2015-08-29T07:24:13.000Z</time>
      </trkpt>
      <trkpt lat="47.26792" lon="4.96123">
        <ele>456.60000610352</ele>
        <time>2015-08-29T07:24:17.000Z</time>
      </trkpt>
      <trkpt lat="47.26788" lon="4.96135">
        <ele>456.20001220703</ele>
        <time>2015-08-29T07:24:22.000Z</time>
      </trkpt>
      <trkpt lat="47.26782" lon="4.96154">
        <ele>455.39999389648</ele>
        <time>2015-08-29T07:24:31.000Z</time>
      </trkpt>
      <trkpt lat="47.26776" lon="4.9617">
        <ele>454.60000610352</ele>
        <time>2015-08-29T07:24:39.000Z</time>
      </trkpt>
      <trkpt lat="47.26775" lon="4.96172">
        <ele>454.39999389648</ele>
        <time>2015-08-29T07:24:40.000Z</time>
      </trkpt>
      <trkpt lat="47.26773" lon="4.9618">
        <ele>454</ele>
        <time>2015-08-29T07:24:44.000Z</time>
      </trkpt>
      <trkpt lat="47.26768" lon="4.96192">
        <ele>453.20001220703</ele>
        <time>2015-08-29T07:24:51.000Z</time>
      </trkpt>
      <trkpt lat="47.26762" lon="4.96206">
        <ele>452.39999389648</ele>
        <time>2015-08-29T07:24:58.000Z</time>
      </trkpt>
      <trkpt lat="47.26758" lon="4.96221">
        <ele>451</ele>
        <time>2015-08-29T07:25:06.000Z</time>
      </trkpt>
      <trkpt lat="47.26757" lon="4.96231">
        <ele>450.39999389648</ele>
        <time>2015-08-29T07:25:11.000Z</time>
      </trkpt>
      <trkpt lat="47.26763" lon="4.96235">
        <ele>450.20001220703</ele>
        <time>2015-08-29T07:25:16.000Z</time>
      </trkpt>
      <trkpt lat="47.26773" lon="4.96231">
        <ele>450.39999389648</ele>
        <time>2015-08-29T07:25:23.000Z</time>
      </trkpt>
      <trkpt lat="47.2678" lon="4.96228">
        <ele>451</ele>
        <time>2015-08-29T07:25:28.000Z</time>
      </trkpt>
      <trkpt lat="47.26791" lon="4.96221">
        <ele>451.79998779297</ele>
        <time>2015-08-29T07:25:35.000Z</time>
      </trkpt>
      <trkpt lat="47.26799" lon="4.96216">
        <ele>452.39999389648</ele>
        <time>2015-08-29T07:25:41.000Z</time>
      </trkpt>
      <trkpt lat="47.268" lon="4.96216">
        <ele>452.60000610352</ele>
        <time>2015-08-29T07:25:42.000Z</time>
      </trkpt>
      <trkpt lat="47.26812" lon="4.96215">
        <ele>453</ele>
        <time>2015-08-29T07:25:50.000Z</time>
      </trkpt>
      <trkpt lat="47.26818" lon="4.96212">
        <ele>453.39999389648</ele>
        <time>2015-08-29T07:25:54.000Z</time>
      </trkpt>
      <trkpt lat="47.26826" lon="4.962">
        <ele>454.20001220703</ele>
        <time>2015-08-29T07:26:02.000Z</time>
      </trkpt>
      <trkpt lat="47.26829" lon="4.96193">
        <ele>454.60000610352</ele>
        <time>2015-08-29T07:26:06.000Z</time>
      </trkpt>
      <trkpt lat="47.26832" lon="4.96188">
        <ele>454.60000610352</ele>
        <time>2015-08-29T07:26:09.000Z</time>
      </trkpt>
      <trkpt lat="47.26837" lon="4.96181">
        <ele>454.39999389648</ele>
        <time>2015-08-29T07:26:13.000Z</time>
      </trkpt>
      <trkpt lat="47.26845" lon="4.96167">
        <ele>454.60000610352</ele>
        <time>2015-08-29T07:26:21.000Z</time>
      </trkpt>
      <trkpt lat="47.26849" lon="4.96161">
        <ele>454.60000610352</ele>
        <time>2015-08-29T07:26:25.000Z</time>
      </trkpt>
      <trkpt lat="47.26856" lon="4.96147">
        <ele>454.60000610352</ele>
        <time>2015-08-29T07:26:33.000Z</time>
      </trkpt>
      <trkpt lat="47.2686" lon="4.96139">
        <ele>454.60000610352</ele>
        <time>2015-08-29T07:26:37.000Z</time>
      </trkpt>
      <trkpt lat="47.26867" lon="4.96127">
        <ele>454.60000610352</ele>
        <time>2015-08-29T07:26:44.000Z</time>
      </trkpt>
      <trkpt lat="47.2687" lon="4.96122">
        <ele>454.60000610352</ele>
        <time>2015-08-29T07:26:47.000Z</time>
      </trkpt>
      <trkpt lat="47.26876" lon="4.9611">
        <ele>454.60000610352</ele>
        <time>2015-08-29T07:26:54.000Z</time>
      </trkpt>
      <trkpt lat="47.26877" lon="4.96107">
        <ele>454.60000610352</ele>
        <time>2015-08-29T07:26:55.000Z</time>
      </trkpt>
      <trkpt lat="47.26882" lon="4.96098">
        <ele>454.39999389648</ele>
        <time>2015-08-29T07:27:01.000Z</time>
      </trkpt>
      <trkpt lat="47.26888" lon="4.96088">
        <ele>454.39999389648</ele>
        <time>2015-08-29T07:27:07.000Z</time>
      </trkpt>
      <trkpt lat="47.26893" lon="4.96077">
        <ele>454.39999389648</ele>
        <time>2015-08-29T07:27:13.000Z</time>
      </trkpt>
      <trkpt lat="47.26899" lon="4.96066">
        <ele>454.20001220703</ele>
        <time>2015-08-29T07:27:19.000Z</time>
      </trkpt>
      <trkpt lat="47.26906" lon="4.96058">
        <ele>454</ele>
        <time>2015-08-29T07:27:25.000Z</time>
      </trkpt>
      <trkpt lat="47.26916" lon="4.96055">
        <ele>453.60000610352</ele>
        <time>2015-08-29T07:27:32.000Z</time>
      </trkpt>
      <trkpt lat="47.26924" lon="4.96058">
        <ele>453.39999389648</ele>
        <time>2015-08-29T07:27:38.000Z</time>
      </trkpt>
      <trkpt lat="47.26926" lon="4.96058">
        <ele>453.20001220703</ele>
        <time>2015-08-29T07:27:40.000Z</time>
      </trkpt>
      <trkpt lat="47.26934" lon="4.96063">
        <ele>453</ele>
        <time>2015-08-29T07:27:45.000Z</time>
      </trkpt>
      <trkpt lat="47.26944" lon="4.96066">
        <ele>452.79998779297</ele>
        <time>2015-08-29T07:27:52.000Z</time>
      </trkpt>
      <trkpt lat="47.26948" lon="4.96066">
        <ele>452.79998779297</ele>
        <time>2015-08-29T07:27:55.000Z</time>
      </trkpt>
      <trkpt lat="47.26955" lon="4.96071">
        <ele>452.60000610352</ele>
        <time>2015-08-29T07:28:00.000Z</time>
      </trkpt>
      <trkpt lat="47.26958" lon="4.96071">
        <ele>452.60000610352</ele>
        <time>2015-08-29T07:28:02.000Z</time>
      </trkpt>
      <trkpt lat="47.26968" lon="4.96066">
        <ele>452.79998779297</ele>
        <time>2015-08-29T07:28:09.000Z</time>
      </trkpt>
      <trkpt lat="47.26973" lon="4.96057">
        <ele>453.20001220703</ele>
        <time>2015-08-29T07:28:14.000Z</time>
      </trkpt>
      <trkpt lat="47.26981" lon="4.96047">
        <ele>453.79998779297</ele>
        <time>2015-08-29T07:28:20.000Z</time>
      </trkpt>
      <trkpt lat="47.26983" lon="4.96044">
        <ele>453.79998779297</ele>
        <time>2015-08-29T07:28:22.000Z</time>
      </trkpt>
      <trkpt lat="47.26989" lon="4.96035">
        <ele>454.20001220703</ele>
        <time>2015-08-29T07:28:28.000Z</time>
      </trkpt>
      <trkpt lat="47.26991" lon="4.96034">
        <ele>454.20001220703</ele>
        <time>2015-08-29T07:28:29.000Z</time>
      </trkpt>
      <trkpt lat="47.27" lon="4.96025">
        <ele>454</ele>
        <time>2015-08-29T07:28:36.000Z</time>
      </trkpt>
      <trkpt lat="47.27009" lon="4.96018">
        <ele>453.60000610352</ele>
        <time>2015-08-29T07:28:42.000Z</time>
      </trkpt>
      <trkpt lat="47.27016" lon="4.96015">
        <ele>453.39999389648</ele>
        <time>2015-08-29T07:28:47.000Z</time>
      </trkpt>
      <trkpt lat="47.27026" lon="4.96012">
        <ele>453</ele>
        <time>2015-08-29T07:28:54.000Z</time>
      </trkpt>
      <trkpt lat="47.27028" lon="4.96012">
        <ele>452.79998779297</ele>
        <time>2015-08-29T07:28:55.000Z</time>
      </trkpt>
      <trkpt lat="47.27039" lon="4.96009">
        <ele>452.39999389648</ele>
        <time>2015-08-29T07:29:02.000Z</time>
      </trkpt>
      <trkpt lat="47.27045" lon="4.96005">
        <ele>452.20001220703</ele>
        <time>2015-08-29T07:29:06.000Z</time>
      </trkpt>
      <trkpt lat="47.27053" lon="4.95996">
        <ele>452.20001220703</ele>
        <time>2015-08-29T07:29:13.000Z</time>
      </trkpt>
      <trkpt lat="47.27058" lon="4.95991">
        <ele>452.39999389648</ele>
        <time>2015-08-29T07:29:17.000Z</time>
      </trkpt>
      <trkpt lat="47.27059" lon="4.95991">
        <ele>452.39999389648</ele>
        <time>2015-08-29T07:29:18.000Z</time>
      </trkpt>
      <trkpt lat="47.27061" lon="4.95991">
        <ele>452.20001220703</ele>
        <time>2015-08-29T07:29:20.000Z</time>
      </trkpt>
      <trkpt lat="47.27068" lon="4.95995">
        <ele>452</ele>
        <time>2015-08-29T07:29:24.000Z</time>
      </trkpt>
      <trkpt lat="47.27073" lon="4.95998">
        <ele>451.79998779297</ele>
        <time>2015-08-29T07:29:27.000Z</time>
      </trkpt>
      <trkpt lat="47.27081" lon="4.96006">
        <ele>451.39999389648</ele>
        <time>2015-08-29T07:29:33.000Z</time>
      </trkpt>
      <trkpt lat="47.27082" lon="4.96006">
        <ele>451.39999389648</ele>
        <time>2015-08-29T07:29:34.000Z</time>
      </trkpt>
      <trkpt lat="47.27093" lon="4.9601">
        <ele>451.39999389648</ele>
        <time>2015-08-29T07:29:41.000Z</time>
      </trkpt>
      <trkpt lat="47.27106" lon="4.96013">
        <ele>451.60000610352</ele>
        <time>2015-08-29T07:29:50.000Z</time>
      </trkpt>
      <trkpt lat="47.27108" lon="4.96013">
        <ele>451.60000610352</ele>
        <time>2015-08-29T07:29:52.000Z</time>
      </trkpt>
      <trkpt lat="47.27115" lon="4.96016">
        <ele>451.79998779297</ele>
        <time>2015-08-29T07:29:57.000Z</time>
      </trkpt>
      <trkpt lat="47.27124" lon="4.96028">
        <ele>451.60000610352</ele>
        <time>2015-08-29T07:30:05.000Z</time>
      </trkpt>
      <trkpt lat="47.27129" lon="4.96036">
        <ele>451.39999389648</ele>
        <time>2015-08-29T07:30:11.000Z</time>
      </trkpt>
      <trkpt lat="47.27132" lon="4.96047">
        <ele>451</ele>
        <time>2015-08-29T07:30:18.000Z</time>
      </trkpt>
      <trkpt lat="47.27133" lon="4.96052">
        <ele>450.60000610352</ele>
        <time>2015-08-29T07:30:20.000Z</time>
      </trkpt>
      <trkpt lat="47.27138" lon="4.96068">
        <ele>449.79998779297</ele>
        <time>2015-08-29T07:30:28.000Z</time>
      </trkpt>
      <trkpt lat="47.2714" lon="4.96077">
        <ele>449.20001220703</ele>
        <time>2015-08-29T07:30:33.000Z</time>
      </trkpt>
      <trkpt lat="47.2714" lon="4.96081">
        <ele>449</ele>
        <time>2015-08-29T07:30:35.000Z</time>
      </trkpt>
      <trkpt lat="47.27139" lon="4.96092">
        <ele>448.39999389648</ele>
        <time>2015-08-29T07:30:41.000Z</time>
      </trkpt>
      <trkpt lat="47.2714" lon="4.9609">
        <ele>448.60000610352</ele>
        <time>2015-08-29T07:30:46.000Z</time>
      </trkpt>
      <trkpt lat="47.27145" lon="4.96089">
        <ele>448.60000610352</ele>
        <time>2015-08-29T07:30:52.000Z</time>
      </trkpt>
      <trkpt lat="47.27146" lon="4.9609">
        <ele>448.60000610352</ele>
        <time>2015-08-29T07:30:53.000Z</time>
      </trkpt>
      <trkpt lat="47.27149" lon="4.96092">
        <ele>448.60000610352</ele>
        <time>2015-08-29T07:30:57.000Z</time>
      </trkpt>
      <trkpt lat="47.27151" lon="4.96094">
        <ele>448.60000610352</ele>
        <time>2015-08-29T07:31:01.000Z</time>
      </trkpt>
      <trkpt lat="47.27154" lon="4.96096">
        <ele>448.39999389648</ele>
        <time>2015-08-29T07:31:05.000Z</time>
      </trkpt>
      <trkpt lat="47.27155" lon="4.96097">
        <ele>448.39999389648</ele>
        <time>2015-08-29T07:31:06.000Z</time>
      </trkpt>
      <trkpt lat="47.27161" lon="4.96099">
        <ele>448.39999389648</ele>
        <time>2015-08-29T07:31:13.000Z</time>
      </trkpt>
      <trkpt lat="47.27163" lon="4.96099">
        <ele>448.60000610352</ele>
        <time>2015-08-29T07:31:15.000Z</time>
      </trkpt>
      <trkpt lat="47.27168" lon="4.96102">
        <ele>448.39999389648</ele>
        <time>2015-08-29T07:31:21.000Z</time>
      </trkpt>
      <trkpt lat="47.2717" lon="4.96103">
        <ele>448.39999389648</ele>
        <time>2015-08-29T07:31:23.000Z</time>
      </trkpt>
      <trkpt lat="47.27172" lon="4.96102">
        <ele>448.39999389648</ele>
        <time>2015-08-29T07:31:25.000Z</time>
      </trkpt>
      <trkpt lat="47.27173" lon="4.96104">
        <ele>448.39999389648</ele>
        <time>2015-08-29T07:31:27.000Z</time>
      </trkpt>
      <trkpt lat="47.2718" lon="4.96107">
        <ele>448.20001220703</ele>
        <time>2015-08-29T07:31:34.000Z</time>
      </trkpt>
      <trkpt lat="47.27184" lon="4.96108">
        <ele>448.20001220703</ele>
        <time>2015-08-29T07:31:37.000Z</time>
      </trkpt>
      <trkpt lat="47.27186" lon="4.96108">
        <ele>448.20001220703</ele>
        <time>2015-08-29T07:31:39.000Z</time>
      </trkpt>
      <trkpt lat="47.27192" lon="4.96108">
        <ele>448.39999389648</ele>
        <time>2015-08-29T07:31:45.000Z</time>
      </trkpt>
      <trkpt lat="47.27193" lon="4.96108">
        <ele>448.39999389648</ele>
        <time>2015-08-29T07:31:48.000Z</time>
      </trkpt>
      <trkpt lat="47.27199" lon="4.96111">
        <ele>448.20001220703</ele>
        <time>2015-08-29T07:31:54.000Z</time>
      </trkpt>
      <trkpt lat="47.272" lon="4.96112">
        <ele>448.20001220703</ele>
        <time>2015-08-29T07:31:55.000Z</time>
      </trkpt>
      <trkpt lat="47.27204" lon="4.96111">
        <ele>448.39999389648</ele>
        <time>2015-08-29T07:32:01.000Z</time>
      </trkpt>
      <trkpt lat="47.2721" lon="4.9611">
        <ele>448.39999389648</ele>
        <time>2015-08-29T07:32:08.000Z</time>
      </trkpt>
      <trkpt lat="47.27212" lon="4.96111">
        <ele>448.39999389648</ele>
        <time>2015-08-29T07:32:10.000Z</time>
      </trkpt>
      <trkpt lat="47.27214" lon="4.9611">
        <ele>448.39999389648</ele>
        <time>2015-08-29T07:32:12.000Z</time>
      </trkpt>
      <trkpt lat="47.27217" lon="4.96108">
        <ele>448.60000610352</ele>
        <time>2015-08-29T07:32:15.000Z</time>
      </trkpt>
      <trkpt lat="47.2722" lon="4.96107">
        <ele>448.79998779297</ele>
        <time>2015-08-29T07:32:23.000Z</time>
      </trkpt>
      <trkpt lat="47.27222" lon="4.96104">
        <ele>449</ele>
        <time>2015-08-29T07:32:27.000Z</time>
      </trkpt>
      <trkpt lat="47.27222" lon="4.961">
        <ele>449.20001220703</ele>
        <time>2015-08-29T07:32:32.000Z</time>
      </trkpt>
      <trkpt lat="47.27223" lon="4.96093">
        <ele>449.79998779297</ele>
        <time>2015-08-29T07:32:36.000Z</time>
      </trkpt>
      <trkpt lat="47.27225" lon="4.96087">
        <ele>450.20001220703</ele>
        <time>2015-08-29T07:32:40.000Z</time>
      </trkpt>
      <trkpt lat="47.27229" lon="4.96083">
        <ele>450.60000610352</ele>
        <time>2015-08-29T07:32:48.000Z</time>
      </trkpt>
      <trkpt lat="47.27235" lon="4.96083">
        <ele>450.79998779297</ele>
        <time>2015-08-29T07:32:55.000Z</time>
      </trkpt>
      <trkpt lat="47.27233" lon="4.96081">
        <ele>450.79998779297</ele>
        <time>2015-08-29T07:33:02.000Z</time>
      </trkpt>
      <trkpt lat="47.27231" lon="4.96083">
        <ele>450.60000610352</ele>
        <time>2015-08-29T07:33:09.000Z</time>
      </trkpt>
      <trkpt lat="47.27231" lon="4.96088">
        <ele>450.20001220703</ele>
        <time>2015-08-29T07:33:15.000Z</time>
      </trkpt>
      <trkpt lat="47.27232" lon="4.96089">
        <ele>450.20001220703</ele>
        <time>2015-08-29T07:33:19.000Z</time>
      </trkpt>
      <trkpt lat="47.27233" lon="4.96091">
        <ele>450</ele>
        <time>2015-08-29T07:33:20.000Z</time>
      </trkpt>
      <trkpt lat="47.27233" lon="4.96102">
        <ele>449.20001220703</ele>
        <time>2015-08-29T07:33:25.000Z</time>
      </trkpt>
      <trkpt lat="47.27233" lon="4.96112">
        <ele>448.60000610352</ele>
        <time>2015-08-29T07:33:29.000Z</time>
      </trkpt>
      <trkpt lat="47.27232" lon="4.96126">
        <ele>447.60000610352</ele>
        <time>2015-08-29T07:33:36.000Z</time>
      </trkpt>
      <trkpt lat="47.27232" lon="4.96128">
        <ele>447.60000610352</ele>
        <time>2015-08-29T07:33:37.000Z</time>
      </trkpt>
      <trkpt lat="47.27234" lon="4.96135">
        <ele>446.79998779297</ele>
        <time>2015-08-29T07:33:40.000Z</time>
      </trkpt>
      <trkpt lat="47.27236" lon="4.96148">
        <ele>445.60000610352</ele>
        <time>2015-08-29T07:33:47.000Z</time>
      </trkpt>
      <trkpt lat="47.27234" lon="4.96164">
        <ele>444</ele>
        <time>2015-08-29T07:33:53.000Z</time>
      </trkpt>
      <trkpt lat="47.27233" lon="4.96174">
        <ele>443</ele>
        <time>2015-08-29T07:34:00.000Z</time>
      </trkpt>
      <trkpt lat="47.27232" lon="4.96175">
        <ele>443</ele>
        <time>2015-08-29T07:34:01.000Z</time>
      </trkpt>
      <trkpt lat="47.27236" lon="4.96182">
        <ele>442.39999389648</ele>
        <time>2015-08-29T07:34:08.000Z</time>
      </trkpt>
      <trkpt lat="47.27237" lon="4.96183">
        <ele>442.20001220703</ele>
        <time>2015-08-29T07:34:09.000Z</time>
      </trkpt>
      <trkpt lat="47.27239" lon="4.96186">
        <ele>442</ele>
        <time>2015-08-29T07:34:11.000Z</time>
      </trkpt>
      <trkpt lat="47.27245" lon="4.96191">
        <ele>441.60000610352</ele>
        <time>2015-08-29T07:34:16.000Z</time>
      </trkpt>
      <trkpt lat="47.27247" lon="4.96193">
        <ele>441.39999389648</ele>
        <time>2015-08-29T07:34:18.000Z</time>
      </trkpt>
      <trkpt lat="47.27254" lon="4.96202">
        <ele>441.20001220703</ele>
        <time>2015-08-29T07:34:24.000Z</time>
      </trkpt>
      <trkpt lat="47.27258" lon="4.96212">
        <ele>441</ele>
        <time>2015-08-29T07:34:32.000Z</time>
      </trkpt>
      <trkpt lat="47.27259" lon="4.96216">
        <ele>441</ele>
        <time>2015-08-29T07:34:34.000Z</time>
      </trkpt>
      <trkpt lat="47.27258" lon="4.96221">
        <ele>440.79998779297</ele>
        <time>2015-08-29T07:34:42.000Z</time>
      </trkpt>
      <trkpt lat="47.27258" lon="4.96222">
        <ele>440.60000610352</ele>
        <time>2015-08-29T07:34:54.000Z</time>
      </trkpt>
      <trkpt lat="47.27255" lon="4.96221">
        <ele>440.39999389648</ele>
        <time>2015-08-29T07:35:02.000Z</time>
      </trkpt>
      <trkpt lat="47.27254" lon="4.96218">
        <ele>440.20001220703</ele>
        <time>2015-08-29T07:35:09.000Z</time>
      </trkpt>
      <trkpt lat="47.27251" lon="4.96215">
        <ele>440.20001220703</ele>
        <time>2015-08-29T07:35:14.000Z</time>
      </trkpt>
      <trkpt lat="47.27249" lon="4.96214">
        <ele>439.79998779297</ele>
        <time>2015-08-29T07:35:19.000Z</time>
      </trkpt>
      <trkpt lat="47.27247" lon="4.96212">
        <ele>439.79998779297</ele>
        <time>2015-08-29T07:35:24.000Z</time>
      </trkpt>
      <trkpt lat="47.27243" lon="4.96209">
        <ele>440</ele>
        <time>2015-08-29T07:35:31.000Z</time>
      </trkpt>
      <trkpt lat="47.27241" lon="4.96207">
        <ele>440.39999389648</ele>
        <time>2015-08-29T07:35:37.000Z</time>
      </trkpt>
      <trkpt lat="47.27239" lon="4.96209">
        <ele>440.39999389648</ele>
        <time>2015-08-29T07:35:42.000Z</time>
      </trkpt>
      <trkpt lat="47.27237" lon="4.96211">
        <ele>440.20001220703</ele>
        <time>2015-08-29T07:35:44.000Z</time>
      </trkpt>
      <trkpt lat="47.27233" lon="4.96213">
        <ele>440.39999389648</ele>
        <time>2015-08-29T07:35:49.000Z</time>
      </trkpt>
      <trkpt lat="47.27232" lon="4.96213">
        <ele>440.39999389648</ele>
        <time>2015-08-29T07:35:50.000Z</time>
      </trkpt>
      <trkpt lat="47.27228" lon="4.9622">
        <ele>440</ele>
        <time>2015-08-29T07:35:59.000Z</time>
      </trkpt>
      <trkpt lat="47.27228" lon="4.96221">
        <ele>440</ele>
        <time>2015-08-29T07:36:00.000Z</time>
      </trkpt>
      <trkpt lat="47.27227" lon="4.96225">
        <ele>439.79998779297</ele>
        <time>2015-08-29T07:36:05.000Z</time>
      </trkpt>
      <trkpt lat="47.27226" lon="4.96231">
        <ele>439.20001220703</ele>
        <time>2015-08-29T07:36:10.000Z</time>
      </trkpt>
      <trkpt lat="47.27226" lon="4.96238">
        <ele>438.60000610352</ele>
        <time>2015-08-29T07:36:16.000Z</time>
      </trkpt>
      <trkpt lat="47.27224" lon="4.96249">
        <ele>437.79998779297</ele>
        <time>2015-08-29T07:36:22.000Z</time>
      </trkpt>
      <trkpt lat="47.2722" lon="4.96257">
        <ele>437.39999389648</ele>
        <time>2015-08-29T07:36:26.000Z</time>
      </trkpt>
      <trkpt lat="47.27218" lon="4.96261">
        <ele>437.20001220703</ele>
        <time>2015-08-29T07:36:29.000Z</time>
      </trkpt>
      <trkpt lat="47.27215" lon="4.96264">
        <ele>437.20001220703</ele>
        <time>2015-08-29T07:36:35.000Z</time>
      </trkpt>
      <trkpt lat="47.27214" lon="4.96265">
        <ele>437.20001220703</ele>
        <time>2015-08-29T07:36:37.000Z</time>
      </trkpt>
      <trkpt lat="47.27211" lon="4.96269">
        <ele>437.39999389648</ele>
        <time>2015-08-29T07:36:41.000Z</time>
      </trkpt>
      <trkpt lat="47.27208" lon="4.96273">
        <ele>437.20001220703</ele>
        <time>2015-08-29T07:36:45.000Z</time>
      </trkpt>
      <trkpt lat="47.27205" lon="4.9628">
        <ele>437.20001220703</ele>
        <time>2015-08-29T07:36:51.000Z</time>
      </trkpt>
      <trkpt lat="47.27201" lon="4.96289">
        <ele>437</ele>
        <time>2015-08-29T07:36:57.000Z</time>
      </trkpt>
      <trkpt lat="47.272" lon="4.96291">
        <ele>437</ele>
        <time>2015-08-29T07:36:58.000Z</time>
      </trkpt>
      <trkpt lat="47.27198" lon="4.96298">
        <ele>437</ele>
        <time>2015-08-29T07:37:05.000Z</time>
      </trkpt>
      <trkpt lat="47.27197" lon="4.96304">
        <ele>437.20001220703</ele>
        <time>2015-08-29T07:37:11.000Z</time>
      </trkpt>
      <trkpt lat="47.27196" lon="4.96305">
        <ele>437.20001220703</ele>
        <time>2015-08-29T07:37:12.000Z</time>
      </trkpt>
      <trkpt lat="47.27192" lon="4.96317">
        <ele>437.60000610352</ele>
        <time>2015-08-29T07:37:19.000Z</time>
      </trkpt>
      <trkpt lat="47.27188" lon="4.96327">
        <ele>436.60000610352</ele>
        <time>2015-08-29T07:37:24.000Z</time>
      </trkpt>
      <trkpt lat="47.27185" lon="4.96337">
        <ele>435.39999389648</ele>
        <time>2015-08-29T07:37:28.000Z</time>
      </trkpt>
      <trkpt lat="47.27185" lon="4.96341">
        <ele>434.79998779297</ele>
        <time>2015-08-29T07:37:30.000Z</time>
      </trkpt>
      <trkpt lat="47.27184" lon="4.96355">
        <ele>433</ele>
        <time>2015-08-29T07:37:36.000Z</time>
      </trkpt>
      <trkpt lat="47.27183" lon="4.96365">
        <ele>431.79998779297</ele>
        <time>2015-08-29T07:37:40.000Z</time>
      </trkpt>
      <trkpt lat="47.27183" lon="4.96374">
        <ele>430.79998779297</ele>
        <time>2015-08-29T07:37:45.000Z</time>
      </trkpt>
      <trkpt lat="47.27184" lon="4.96376">
        <ele>430.79998779297</ele>
        <time>2015-08-29T07:37:46.000Z</time>
      </trkpt>
      <trkpt lat="47.27179" lon="4.96401">
        <ele>429.39999389648</ele>
        <time>2015-08-29T07:37:59.000Z</time>
      </trkpt>
      <trkpt lat="47.27178" lon="4.96403">
        <ele>429</ele>
        <time>2015-08-29T07:38:01.000Z</time>
      </trkpt>
      <trkpt lat="47.27177" lon="4.96405">
        <ele>428.60000610352</ele>
        <time>2015-08-29T07:38:03.000Z</time>
      </trkpt>
      <trkpt lat="47.27176" lon="4.96409">
        <ele>428</ele>
        <time>2015-08-29T07:38:05.000Z</time>
      </trkpt>
      <trkpt lat="47.27176" lon="4.96415">
        <ele>427.20001220703</ele>
        <time>2015-08-29T07:38:09.000Z</time>
      </trkpt>
      <trkpt lat="47.27173" lon="4.96426">
        <ele>425.39999389648</ele>
        <time>2015-08-29T07:38:16.000Z</time>
      </trkpt>
      <trkpt lat="47.2717" lon="4.96436">
        <ele>423.79998779297</ele>
        <time>2015-08-29T07:38:23.000Z</time>
      </trkpt>
      <trkpt lat="47.27167" lon="4.96445">
        <ele>422.20001220703</ele>
        <time>2015-08-29T07:38:29.000Z</time>
      </trkpt>
      <trkpt lat="47.27166" lon="4.96448">
        <ele>421.60000610352</ele>
        <time>2015-08-29T07:38:31.000Z</time>
      </trkpt>
      <trkpt lat="47.27163" lon="4.96451">
        <ele>420.79998779297</ele>
        <time>2015-08-29T07:38:34.000Z</time>
      </trkpt>
      <trkpt lat="47.27161" lon="4.96456">
        <ele>420.60000610352</ele>
        <time>2015-08-29T07:38:38.000Z</time>
      </trkpt>
      <trkpt lat="47.27158" lon="4.96463">
        <ele>420.20001220703</ele>
        <time>2015-08-29T07:38:44.000Z</time>
      </trkpt>
      <trkpt lat="47.27158" lon="4.96465">
        <ele>420.20001220703</ele>
        <time>2015-08-29T07:38:46.000Z</time>
      </trkpt>
      <trkpt lat="47.27155" lon="4.96471">
        <ele>420</ele>
        <time>2015-08-29T07:38:52.000Z</time>
      </trkpt>
      <trkpt lat="47.27152" lon="4.96476">
        <ele>420</ele>
        <time>2015-08-29T07:38:57.000Z</time>
      </trkpt>
      <trkpt lat="47.27151" lon="4.96481">
        <ele>419.60000610352</ele>
        <time>2015-08-29T07:39:01.000Z</time>
      </trkpt>
      <trkpt lat="47.27151" lon="4.96483">
        <ele>419.60000610352</ele>
        <time>2015-08-29T07:39:03.000Z</time>
      </trkpt>
      <trkpt lat="47.27148" lon="4.9649">
        <ele>419.20001220703</ele>
        <time>2015-08-29T07:39:08.000Z</time>
      </trkpt>
      <trkpt lat="47.27147" lon="4.96491">
        <ele>419.20001220703</ele>
        <time>2015-08-29T07:39:09.000Z</time>
      </trkpt>
      <trkpt lat="47.27141" lon="4.96504">
        <ele>419</ele>
        <time>2015-08-29T07:39:16.000Z</time>
      </trkpt>
      <trkpt lat="47.27138" lon="4.96512">
        <ele>418.60000610352</ele>
        <time>2015-08-29T07:39:23.000Z</time>
      </trkpt>
      <trkpt lat="47.27137" lon="4.96516">
        <ele>418.20001220703</ele>
        <time>2015-08-29T07:39:26.000Z</time>
      </trkpt>
      <trkpt lat="47.27133" lon="4.96524">
        <ele>416.39999389648</ele>
        <time>2015-08-29T07:39:31.000Z</time>
      </trkpt>
      <trkpt lat="47.27128" lon="4.96532">
        <ele>415</ele>
        <time>2015-08-29T07:39:37.000Z</time>
      </trkpt>
      <trkpt lat="47.27127" lon="4.96533">
        <ele>414.60000610352</ele>
        <time>2015-08-29T07:39:38.000Z</time>
      </trkpt>
      <trkpt lat="47.27121" lon="4.96539">
        <ele>413.39999389648</ele>
        <time>2015-08-29T07:39:44.000Z</time>
      </trkpt>
      <trkpt lat="47.2712" lon="4.96541">
        <ele>413.20001220703</ele>
        <time>2015-08-29T07:39:45.000Z</time>
      </trkpt>
      <trkpt lat="47.27117" lon="4.96544">
        <ele>413.39999389648</ele>
        <time>2015-08-29T07:39:47.000Z</time>
      </trkpt>
      <trkpt lat="47.27112" lon="4.96549">
        <ele>414</ele>
        <time>2015-08-29T07:39:51.000Z</time>
      </trkpt>
      <trkpt lat="47.27106" lon="4.96555">
        <ele>414.60000610352</ele>
        <time>2015-08-29T07:39:56.000Z</time>
      </trkpt>
      <trkpt lat="47.27099" lon="4.9656">
        <ele>415.20001220703</ele>
        <time>2015-08-29T07:40:01.000Z</time>
      </trkpt>
      <trkpt lat="47.27094" lon="4.96564">
        <ele>413.39999389648</ele>
        <time>2015-08-29T07:40:06.000Z</time>
      </trkpt>
      <trkpt lat="47.27093" lon="4.96564">
        <ele>413</ele>
        <time>2015-08-29T07:40:07.000Z</time>
      </trkpt>
      <trkpt lat="47.2709" lon="4.96566">
        <ele>412</ele>
        <time>2015-08-29T07:40:09.000Z</time>
      </trkpt>
      <trkpt lat="47.27082" lon="4.96572">
        <ele>408.79998779297</ele>
        <time>2015-08-29T07:40:15.000Z</time>
      </trkpt>
      <trkpt lat="47.27078" lon="4.96575">
        <ele>407.79998779297</ele>
        <time>2015-08-29T07:40:19.000Z</time>
      </trkpt>
      <trkpt lat="47.27077" lon="4.96576">
        <ele>408</ele>
        <time>2015-08-29T07:40:21.000Z</time>
      </trkpt>
      <trkpt lat="47.27073" lon="4.96582">
        <ele>407</ele>
        <time>2015-08-29T07:40:24.000Z</time>
      </trkpt>
      <trkpt lat="47.27068" lon="4.96588">
        <ele>406.39999389648</ele>
        <time>2015-08-29T07:40:28.000Z</time>
      </trkpt>
      <trkpt lat="47.27062" lon="4.96594">
        <ele>406</ele>
        <time>2015-08-29T07:40:32.000Z</time>
      </trkpt>
      <trkpt lat="47.27058" lon="4.96598">
        <ele>405.60000610352</ele>
        <time>2015-08-29T07:40:35.000Z</time>
      </trkpt>
      <trkpt lat="47.27055" lon="4.96601">
        <ele>405.60000610352</ele>
        <time>2015-08-29T07:40:37.000Z</time>
      </trkpt>
      <trkpt lat="47.27049" lon="4.96609">
        <ele>404.60000610352</ele>
        <time>2015-08-29T07:40:42.000Z</time>
      </trkpt>
      <trkpt lat="47.27044" lon="4.96613">
        <ele>404.20001220703</ele>
        <time>2015-08-29T07:40:46.000Z</time>
      </trkpt>
      <trkpt lat="47.27042" lon="4.96614">
        <ele>404.20001220703</ele>
        <time>2015-08-29T07:40:47.000Z</time>
      </trkpt>
      <trkpt lat="47.2703" lon="4.9663">
        <ele>403.79998779297</ele>
        <time>2015-08-29T07:40:58.000Z</time>
      </trkpt>
      <trkpt lat="47.27027" lon="4.96637">
        <ele>404.39999389648</ele>
        <time>2015-08-29T07:41:04.000Z</time>
      </trkpt>
      <trkpt lat="47.27025" lon="4.96642">
        <ele>405</ele>
        <time>2015-08-29T07:41:08.000Z</time>
      </trkpt>
      <trkpt lat="47.27024" lon="4.96643">
        <ele>405.20001220703</ele>
        <time>2015-08-29T07:41:09.000Z</time>
      </trkpt>
      <trkpt lat="47.2702" lon="4.96651">
        <ele>405.39999389648</ele>
        <time>2015-08-29T07:41:14.000Z</time>
      </trkpt>
      <trkpt lat="47.27016" lon="4.96658">
        <ele>402.60000610352</ele>
        <time>2015-08-29T07:41:19.000Z</time>
      </trkpt>
      <trkpt lat="47.27015" lon="4.96659">
        <ele>402.20001220703</ele>
        <time>2015-08-29T07:41:20.000Z</time>
      </trkpt>
      <trkpt lat="47.27013" lon="4.96666">
        <ele>399.60000610352</ele>
        <time>2015-08-29T07:41:26.000Z</time>
      </trkpt>
      <trkpt lat="47.2701" lon="4.9667">
        <ele>398.20001220703</ele>
        <time>2015-08-29T07:41:29.000Z</time>
      </trkpt>
      <trkpt lat="47.27007" lon="4.96678">
        <ele>395.39999389648</ele>
        <time>2015-08-29T07:41:34.000Z</time>
      </trkpt>
      <trkpt lat="47.27002" lon="4.96689">
        <ele>391.20001220703</ele>
        <time>2015-08-29T07:41:41.000Z</time>
      </trkpt>
      <trkpt lat="47.27001" lon="4.9669">
        <ele>390.79998779297</ele>
        <time>2015-08-29T07:41:42.000Z</time>
      </trkpt>
      <trkpt lat="47.27001" lon="4.96693">
        <ele>390</ele>
        <time>2015-08-29T07:41:45.000Z</time>
      </trkpt>
      <trkpt lat="47.27" lon="4.96702">
        <ele>387.39999389648</ele>
        <time>2015-08-29T07:41:49.000Z</time>
      </trkpt>
      <trkpt lat="47.26999" lon="4.96704">
        <ele>386.60000610352</ele>
        <time>2015-08-29T07:41:51.000Z</time>
      </trkpt>
      <trkpt lat="47.26998" lon="4.9671">
        <ele>385.39999389648</ele>
        <time>2015-08-29T07:41:54.000Z</time>
      </trkpt>
      <trkpt lat="47.26995" lon="4.96713">
        <ele>385</ele>
        <time>2015-08-29T07:41:57.000Z</time>
      </trkpt>
      <trkpt lat="47.2699" lon="4.96725">
        <ele>385.20001220703</ele>
        <time>2015-08-29T07:42:03.000Z</time>
      </trkpt>
      <trkpt lat="47.26987" lon="4.96733">
        <ele>385.39999389648</ele>
        <time>2015-08-29T07:42:07.000Z</time>
      </trkpt>
      <trkpt lat="47.26984" lon="4.96741">
        <ele>385.39999389648</ele>
        <time>2015-08-29T07:42:12.000Z</time>
      </trkpt>
      <trkpt lat="47.26983" lon="4.96742">
        <ele>385.39999389648</ele>
        <time>2015-08-29T07:42:13.000Z</time>
      </trkpt>
      <trkpt lat="47.26983" lon="4.96744">
        <ele>385.39999389648</ele>
        <time>2015-08-29T07:42:14.000Z</time>
      </trkpt>
      <trkpt lat="47.26978" lon="4.96754">
        <ele>386</ele>
        <time>2015-08-29T07:42:20.000Z</time>
      </trkpt>
      <trkpt lat="47.26977" lon="4.96755">
        <ele>386</ele>
        <time>2015-08-29T07:42:21.000Z</time>
      </trkpt>
      <trkpt lat="47.26976" lon="4.9676">
        <ele>386</ele>
        <time>2015-08-29T07:42:24.000Z</time>
      </trkpt>
      <trkpt lat="47.26974" lon="4.96768">
        <ele>385.79998779297</ele>
        <time>2015-08-29T07:42:29.000Z</time>
      </trkpt>
      <trkpt lat="47.26971" lon="4.96775">
        <ele>384.39999389648</ele>
        <time>2015-08-29T07:42:33.000Z</time>
      </trkpt>
      <trkpt lat="47.26967" lon="4.9678">
        <ele>383</ele>
        <time>2015-08-29T07:42:37.000Z</time>
      </trkpt>
      <trkpt lat="47.26964" lon="4.96784">
        <ele>382.20001220703</ele>
        <time>2015-08-29T07:42:40.000Z</time>
      </trkpt>
      <trkpt lat="47.26959" lon="4.96793">
        <ele>380.79998779297</ele>
        <time>2015-08-29T07:42:46.000Z</time>
      </trkpt>
      <trkpt lat="47.26956" lon="4.96797">
        <ele>381.60000610352</ele>
        <time>2015-08-29T07:42:48.000Z</time>
      </trkpt>
      <trkpt lat="47.26945" lon="4.96805">
        <ele>383.39999389648</ele>
        <time>2015-08-29T07:42:57.000Z</time>
      </trkpt>
      <trkpt lat="47.26944" lon="4.96806">
        <ele>383.39999389648</ele>
        <time>2015-08-29T07:42:58.000Z</time>
      </trkpt>
      <trkpt lat="47.26943" lon="4.96807">
        <ele>383.60000610352</ele>
        <time>2015-08-29T07:43:00.000Z</time>
      </trkpt>
      <trkpt lat="47.2694" lon="4.9681">
        <ele>384.20001220703</ele>
        <time>2015-08-29T07:43:03.000Z</time>
      </trkpt>
      <trkpt lat="47.26932" lon="4.96817">
        <ele>383.39999389648</ele>
        <time>2015-08-29T07:43:10.000Z</time>
      </trkpt>
      <trkpt lat="47.2693" lon="4.96819">
        <ele>382.20001220703</ele>
        <time>2015-08-29T07:43:12.000Z</time>
      </trkpt>
      <trkpt lat="47.26922" lon="4.96825">
        <ele>378.79998779297</ele>
        <time>2015-08-29T07:43:19.000Z</time>
      </trkpt>
      <trkpt lat="47.26921" lon="4.96826">
        <ele>378.20001220703</ele>
        <time>2015-08-29T07:43:20.000Z</time>
      </trkpt>
      <trkpt lat="47.26915" lon="4.96834">
        <ele>374.60000610352</ele>
        <time>2015-08-29T07:43:25.000Z</time>
      </trkpt>
      <trkpt lat="47.26907" lon="4.96843">
        <ele>373</ele>
        <time>2015-08-29T07:43:32.000Z</time>
      </trkpt>
      <trkpt lat="47.269" lon="4.96849">
        <ele>372.60000610352</ele>
        <time>2015-08-29T07:43:37.000Z</time>
      </trkpt>
      <trkpt lat="47.26894" lon="4.96855">
        <ele>372</ele>
        <time>2015-08-29T07:43:42.000Z</time>
      </trkpt>
      <trkpt lat="47.26891" lon="4.96857">
        <ele>372</ele>
        <time>2015-08-29T07:43:45.000Z</time>
      </trkpt>
      <trkpt lat="47.26887" lon="4.96861">
        <ele>371.60000610352</ele>
        <time>2015-08-29T07:43:48.000Z</time>
      </trkpt>
      <trkpt lat="47.26878" lon="4.96873">
        <ele>370</ele>
        <time>2015-08-29T07:43:55.000Z</time>
      </trkpt>
      <trkpt lat="47.26876" lon="4.96876">
        <ele>370</ele>
        <time>2015-08-29T07:43:58.000Z</time>
      </trkpt>
      <trkpt lat="47.26873" lon="4.96882">
        <ele>370.79998779297</ele>
        <time>2015-08-29T07:44:03.000Z</time>
      </trkpt>
      <trkpt lat="47.26872" lon="4.96886">
        <ele>371.39999389648</ele>
        <time>2015-08-29T07:44:05.000Z</time>
      </trkpt>
      <trkpt lat="47.26869" lon="4.96892">
        <ele>372.20001220703</ele>
        <time>2015-08-29T07:44:08.000Z</time>
      </trkpt>
      <trkpt lat="47.26868" lon="4.96894">
        <ele>372.60000610352</ele>
        <time>2015-08-29T07:44:09.000Z</time>
      </trkpt>
      <trkpt lat="47.26864" lon="4.96903">
        <ele>373.79998779297</ele>
        <time>2015-08-29T07:44:14.000Z</time>
      </trkpt>
      <trkpt lat="47.26861" lon="4.96911">
        <ele>373.60000610352</ele>
        <time>2015-08-29T07:44:19.000Z</time>
      </trkpt>
      <trkpt lat="47.26854" lon="4.96918">
        <ele>371.79998779297</ele>
        <time>2015-08-29T07:44:25.000Z</time>
      </trkpt>
      <trkpt lat="47.26852" lon="4.96921">
        <ele>371</ele>
        <time>2015-08-29T07:44:27.000Z</time>
      </trkpt>
      <trkpt lat="47.26849" lon="4.96928">
        <ele>369.39999389648</ele>
        <time>2015-08-29T07:44:31.000Z</time>
      </trkpt>
      <trkpt lat="47.26845" lon="4.96934">
        <ele>368</ele>
        <time>2015-08-29T07:44:36.000Z</time>
      </trkpt>
      <trkpt lat="47.26842" lon="4.96939">
        <ele>366.79998779297</ele>
        <time>2015-08-29T07:44:40.000Z</time>
      </trkpt>
      <trkpt lat="47.26836" lon="4.96949">
        <ele>364.20001220703</ele>
        <time>2015-08-29T07:44:47.000Z</time>
      </trkpt>
      <trkpt lat="47.26833" lon="4.96953">
        <ele>363.20001220703</ele>
        <time>2015-08-29T07:44:49.000Z</time>
      </trkpt>
      <trkpt lat="47.26829" lon="4.96961">
        <ele>361.79998779297</ele>
        <time>2015-08-29T07:44:54.000Z</time>
      </trkpt>
      <trkpt lat="47.26829" lon="4.96962">
        <ele>362</ele>
        <time>2015-08-29T07:44:55.000Z</time>
      </trkpt>
      <trkpt lat="47.26824" lon="4.96975">
        <ele>362.60000610352</ele>
        <time>2015-08-29T07:45:00.000Z</time>
      </trkpt>
      <trkpt lat="47.26821" lon="4.96982">
        <ele>363.20001220703</ele>
        <time>2015-08-29T07:45:04.000Z</time>
      </trkpt>
      <trkpt lat="47.2682" lon="4.96985">
        <ele>363.20001220703</ele>
        <time>2015-08-29T07:45:06.000Z</time>
      </trkpt>
      <trkpt lat="47.26819" lon="4.96988">
        <ele>363.20001220703</ele>
        <time>2015-08-29T07:45:08.000Z</time>
      </trkpt>
      <trkpt lat="47.26814" lon="4.97">
        <ele>364</ele>
        <time>2015-08-29T07:45:14.000Z</time>
      </trkpt>
      <trkpt lat="47.26812" lon="4.97006">
        <ele>364.39999389648</ele>
        <time>2015-08-29T07:45:17.000Z</time>
      </trkpt>
      <trkpt lat="47.26808" lon="4.97017">
        <ele>364.79998779297</ele>
        <time>2015-08-29T07:45:23.000Z</time>
      </trkpt>
      <trkpt lat="47.26808" lon="4.97019">
        <ele>364.79998779297</ele>
        <time>2015-08-29T07:45:24.000Z</time>
      </trkpt>
      <trkpt lat="47.26808" lon="4.97021">
        <ele>364.39999389648</ele>
        <time>2015-08-29T07:45:25.000Z</time>
      </trkpt>
      <trkpt lat="47.26806" lon="4.97026">
        <ele>364</ele>
        <time>2015-08-29T07:45:27.000Z</time>
      </trkpt>
      <trkpt lat="47.26801" lon="4.97038">
        <ele>362.20001220703</ele>
        <time>2015-08-29T07:45:33.000Z</time>
      </trkpt>
      <trkpt lat="47.26798" lon="4.97047">
        <ele>362</ele>
        <time>2015-08-29T07:45:37.000Z</time>
      </trkpt>
      <trkpt lat="47.26797" lon="4.97049">
        <ele>362.20001220703</ele>
        <time>2015-08-29T07:45:38.000Z</time>
      </trkpt>
      <trkpt lat="47.26797" lon="4.9705">
        <ele>362.20001220703</ele>
        <time>2015-08-29T07:45:39.000Z</time>
      </trkpt>
      <trkpt lat="47.26797" lon="4.9705">
        <ele>362.20001220703</ele>
        <time>2015-08-29T07:45:40.000Z</time>
      </trkpt>
      <trkpt lat="47.26791" lon="4.97062">
        <ele>363</ele>
        <time>2015-08-29T07:45:45.000Z</time>
      </trkpt>
      <trkpt lat="47.26791" lon="4.97067">
        <ele>363</ele>
        <time>2015-08-29T07:45:47.000Z</time>
      </trkpt>
      <trkpt lat="47.26789" lon="4.97073">
        <ele>363.39999389648</ele>
        <time>2015-08-29T07:45:50.000Z</time>
      </trkpt>
      <trkpt lat="47.26787" lon="4.97083">
        <ele>363.39999389648</ele>
        <time>2015-08-29T07:45:55.000Z</time>
      </trkpt>
      <trkpt lat="47.26787" lon="4.97085">
        <ele>363.20001220703</ele>
        <time>2015-08-29T07:45:56.000Z</time>
      </trkpt>
      <trkpt lat="47.26787" lon="4.97088">
        <ele>362.60000610352</ele>
        <time>2015-08-29T07:45:58.000Z</time>
      </trkpt>
      <trkpt lat="47.26785" lon="4.97098">
        <ele>360.60000610352</ele>
        <time>2015-08-29T07:46:03.000Z</time>
      </trkpt>
      <trkpt lat="47.26784" lon="4.97103">
        <ele>359.79998779297</ele>
        <time>2015-08-29T07:46:05.000Z</time>
      </trkpt>
      <trkpt lat="47.26782" lon="4.97107">
        <ele>359</ele>
        <time>2015-08-29T07:46:07.000Z</time>
      </trkpt>
      <trkpt lat="47.26779" lon="4.97117">
        <ele>357.20001220703</ele>
        <time>2015-08-29T07:46:11.000Z</time>
      </trkpt>
      <trkpt lat="47.26778" lon="4.97124">
        <ele>355.60000610352</ele>
        <time>2015-08-29T07:46:14.000Z</time>
      </trkpt>
      <trkpt lat="47.26776" lon="4.97132">
        <ele>355.39999389648</ele>
        <time>2015-08-29T07:46:17.000Z</time>
      </trkpt>
      <trkpt lat="47.26775" lon="4.97144">
        <ele>355</ele>
        <time>2015-08-29T07:46:24.000Z</time>
      </trkpt>
      <trkpt lat="47.26775" lon="4.97146">
        <ele>354.79998779297</ele>
        <time>2015-08-29T07:46:25.000Z</time>
      </trkpt>
      <trkpt lat="47.26772" lon="4.97156">
        <ele>354.20001220703</ele>
        <time>2015-08-29T07:46:29.000Z</time>
      </trkpt>
      <trkpt lat="47.26772" lon="4.97168">
        <ele>352.79998779297</ele>
        <time>2015-08-29T07:46:34.000Z</time>
      </trkpt>
      <trkpt lat="47.2677" lon="4.97175">
        <ele>352</ele>
        <time>2015-08-29T07:46:37.000Z</time>
      </trkpt>
      <trkpt lat="47.26771" lon="4.97181">
        <ele>351.39999389648</ele>
        <time>2015-08-29T07:46:41.000Z</time>
      </trkpt>
      <trkpt lat="47.26771" lon="4.97185">
        <ele>351</ele>
        <time>2015-08-29T07:46:43.000Z</time>
      </trkpt>
      <trkpt lat="47.2677" lon="4.97187">
        <ele>350.60000610352</ele>
        <time>2015-08-29T07:46:45.000Z</time>
      </trkpt>
      <trkpt lat="47.26771" lon="4.97195">
        <ele>349.79998779297</ele>
        <time>2015-08-29T07:46:48.000Z</time>
      </trkpt>
      <trkpt lat="47.26769" lon="4.97204">
        <ele>348.79998779297</ele>
        <time>2015-08-29T07:46:52.000Z</time>
      </trkpt>
      <trkpt lat="47.26768" lon="4.97218">
        <ele>347.79998779297</ele>
        <time>2015-08-29T07:46:58.000Z</time>
      </trkpt>
      <trkpt lat="47.26768" lon="4.9722">
        <ele>347.60000610352</ele>
        <time>2015-08-29T07:46:59.000Z</time>
      </trkpt>
      <trkpt lat="47.26768" lon="4.97224">
        <ele>347.39999389648</ele>
        <time>2015-08-29T07:47:01.000Z</time>
      </trkpt>
      <trkpt lat="47.26767" lon="4.97233">
        <ele>346.60000610352</ele>
        <time>2015-08-29T07:47:05.000Z</time>
      </trkpt>
      <trkpt lat="47.26769" lon="4.97244">
        <ele>345.60000610352</ele>
        <time>2015-08-29T07:47:11.000Z</time>
      </trkpt>
      <trkpt lat="47.26768" lon="4.97248">
        <ele>345.20001220703</ele>
        <time>2015-08-29T07:47:13.000Z</time>
      </trkpt>
      <trkpt lat="47.26765" lon="4.97258">
        <ele>344</ele>
        <time>2015-08-29T07:47:16.000Z</time>
      </trkpt>
      <trkpt lat="47.26766" lon="4.97266">
        <ele>343.20001220703</ele>
        <time>2015-08-29T07:47:20.000Z</time>
      </trkpt>
      <trkpt lat="47.26766" lon="4.97271">
        <ele>342.79998779297</ele>
        <time>2015-08-29T07:47:22.000Z</time>
      </trkpt>
      <trkpt lat="47.26765" lon="4.97274">
        <ele>342.39999389648</ele>
        <time>2015-08-29T07:47:23.000Z</time>
      </trkpt>
      <trkpt lat="47.26764" lon="4.97281">
        <ele>341.60000610352</ele>
        <time>2015-08-29T07:47:27.000Z</time>
      </trkpt>
      <trkpt lat="47.26765" lon="4.97286">
        <ele>341.39999389648</ele>
        <time>2015-08-29T07:47:30.000Z</time>
      </trkpt>
      <trkpt lat="47.26763" lon="4.97293">
        <ele>340.39999389648</ele>
        <time>2015-08-29T07:47:33.000Z</time>
      </trkpt>
      <trkpt lat="47.26762" lon="4.97305">
        <ele>339.60000610352</ele>
        <time>2015-08-29T07:47:39.000Z</time>
      </trkpt>
      <trkpt lat="47.26762" lon="4.9731">
        <ele>339.20001220703</ele>
        <time>2015-08-29T07:47:41.000Z</time>
      </trkpt>
      <trkpt lat="47.26761" lon="4.97319">
        <ele>338.39999389648</ele>
        <time>2015-08-29T07:47:45.000Z</time>
      </trkpt>
      <trkpt lat="47.26759" lon="4.97325">
        <ele>337.79998779297</ele>
        <time>2015-08-29T07:47:48.000Z</time>
      </trkpt>
      <trkpt lat="47.26758" lon="4.97338">
        <ele>336.79998779297</ele>
        <time>2015-08-29T07:47:54.000Z</time>
      </trkpt>
      <trkpt lat="47.26758" lon="4.9734">
        <ele>336.60000610352</ele>
        <time>2015-08-29T07:47:55.000Z</time>
      </trkpt>
      <trkpt lat="47.26758" lon="4.97343">
        <ele>336.39999389648</ele>
        <time>2015-08-29T07:47:57.000Z</time>
      </trkpt>
      <trkpt lat="47.26758" lon="4.97344">
        <ele>336.39999389648</ele>
        <time>2015-08-29T07:47:58.000Z</time>
      </trkpt>
      <trkpt lat="47.26758" lon="4.97356">
        <ele>335.39999389648</ele>
        <time>2015-08-29T07:48:04.000Z</time>
      </trkpt>
      <trkpt lat="47.26755" lon="4.97369">
        <ele>334.20001220703</ele>
        <time>2015-08-29T07:48:10.000Z</time>
      </trkpt>
      <trkpt lat="47.26753" lon="4.97379">
        <ele>333.20001220703</ele>
        <time>2015-08-29T07:48:14.000Z</time>
      </trkpt>
      <trkpt lat="47.26754" lon="4.97385">
        <ele>332.79998779297</ele>
        <time>2015-08-29T07:48:17.000Z</time>
      </trkpt>
      <trkpt lat="47.26755" lon="4.97391">
        <ele>332.20001220703</ele>
        <time>2015-08-29T07:48:20.000Z</time>
      </trkpt>
      <trkpt lat="47.26757" lon="4.97402">
        <ele>331.39999389648</ele>
        <time>2015-08-29T07:48:26.000Z</time>
      </trkpt>
      <trkpt lat="47.26762" lon="4.97414">
        <ele>330.60000610352</ele>
        <time>2015-08-29T07:48:32.000Z</time>
      </trkpt>
      <trkpt lat="47.26764" lon="4.97424">
        <ele>330</ele>
        <time>2015-08-29T07:48:37.000Z</time>
      </trkpt>
      <trkpt lat="47.26764" lon="4.9743">
        <ele>329.39999389648</ele>
        <time>2015-08-29T07:48:40.000Z</time>
      </trkpt>
      <trkpt lat="47.26766" lon="4.97445">
        <ele>328.20001220703</ele>
        <time>2015-08-29T07:48:47.000Z</time>
      </trkpt>
      <trkpt lat="47.26766" lon="4.97454">
        <ele>327.39999389648</ele>
        <time>2015-08-29T07:48:51.000Z</time>
      </trkpt>
      <trkpt lat="47.26767" lon="4.97458">
        <ele>327</ele>
        <time>2015-08-29T07:48:53.000Z</time>
      </trkpt>
      <trkpt lat="47.26768" lon="4.97464">
        <ele>326.79998779297</ele>
        <time>2015-08-29T07:48:56.000Z</time>
      </trkpt>
      <trkpt lat="47.2677" lon="4.97475">
        <ele>326</ele>
        <time>2015-08-29T07:49:01.000Z</time>
      </trkpt>
      <trkpt lat="47.26772" lon="4.97486">
        <ele>325.39999389648</ele>
        <time>2015-08-29T07:49:08.000Z</time>
      </trkpt>
      <trkpt lat="47.26774" lon="4.97495">
        <ele>325.20001220703</ele>
        <time>2015-08-29T07:49:13.000Z</time>
      </trkpt>
      <trkpt lat="47.26777" lon="4.97508">
        <ele>324.79998779297</ele>
        <time>2015-08-29T07:49:20.000Z</time>
      </trkpt>
      <trkpt lat="47.26779" lon="4.9752">
        <ele>324.39999389648</ele>
        <time>2015-08-29T07:49:26.000Z</time>
      </trkpt>
      <trkpt lat="47.26783" lon="4.97534">
        <ele>324</ele>
        <time>2015-08-29T07:49:33.000Z</time>
      </trkpt>
      <trkpt lat="47.26784" lon="4.97546">
        <ele>323.20001220703</ele>
        <time>2015-08-29T07:49:38.000Z</time>
      </trkpt>
      <trkpt lat="47.26786" lon="4.97557">
        <ele>322.39999389648</ele>
        <time>2015-08-29T07:49:43.000Z</time>
      </trkpt>
      <trkpt lat="47.26788" lon="4.97569">
        <ele>321.39999389648</ele>
        <time>2015-08-29T07:49:48.000Z</time>
      </trkpt>
      <trkpt lat="47.26792" lon="4.97568">
        <ele>321.79998779297</ele>
        <time>2015-08-29T07:49:54.000Z</time>
      </trkpt>
      <trkpt lat="47.2679" lon="4.9757">
        <ele>321.39999389648</ele>
        <time>2015-08-29T07:50:00.000Z</time>
      </trkpt>
      <trkpt lat="47.2679" lon="4.97572">
        <ele>321.20001220703</ele>
        <time>2015-08-29T07:50:03.000Z</time>
      </trkpt>
      <trkpt lat="47.26792" lon="4.97574">
        <ele>321.20001220703</ele>
        <time>2015-08-29T07:50:09.000Z</time>
      </trkpt>
      <trkpt lat="47.26791" lon="4.97576">
        <ele>321</ele>
        <time>2015-08-29T07:50:17.000Z</time>
      </trkpt>
      <trkpt lat="47.26793" lon="4.9758">
        <ele>320.60000610352</ele>
        <time>2015-08-29T07:50:21.000Z</time>
      </trkpt>
      <trkpt lat="47.26795" lon="4.97581">
        <ele>320.60000610352</ele>
        <time>2015-08-29T07:50:27.000Z</time>
      </trkpt>
      <trkpt lat="47.26796" lon="4.97585">
        <ele>320.39999389648</ele>
        <time>2015-08-29T07:50:33.000Z</time>
      </trkpt>
      <trkpt lat="47.26797" lon="4.97586">
        <ele>320.39999389648</ele>
        <time>2015-08-29T07:50:34.000Z</time>
      </trkpt>
      <trkpt lat="47.268" lon="4.97589">
        <ele>320.20001220703</ele>
        <time>2015-08-29T07:50:38.000Z</time>
      </trkpt>
      <trkpt lat="47.26802" lon="4.97591">
        <ele>320.20001220703</ele>
        <time>2015-08-29T07:50:40.000Z</time>
      </trkpt>
      <trkpt lat="47.26803" lon="4.97591">
        <ele>320.39999389648</ele>
        <time>2015-08-29T07:50:46.000Z</time>
      </trkpt>
      <trkpt lat="47.26802" lon="4.97589">
        <ele>320.39999389648</ele>
        <time>2015-08-29T07:50:55.000Z</time>
      </trkpt>
      <trkpt lat="47.26792" lon="4.97586">
        <ele>320</ele>
        <time>2015-08-29T07:51:02.000Z</time>
      </trkpt>
      <trkpt lat="47.26786" lon="4.97585">
        <ele>319.79998779297</ele>
        <time>2015-08-29T07:51:07.000Z</time>
      </trkpt>
      <trkpt lat="47.2678" lon="4.9759">
        <ele>319.39999389648</ele>
        <time>2015-08-29T07:51:13.000Z</time>
      </trkpt>
      <trkpt lat="47.26775" lon="4.97594">
        <ele>319.20001220703</ele>
        <time>2015-08-29T07:51:19.000Z</time>
      </trkpt>
      <trkpt lat="47.26778" lon="4.9759">
        <ele>319.39999389648</ele>
        <time>2015-08-29T07:51:56.000Z</time>
      </trkpt>
      <trkpt lat="47.26787" lon="4.97579">
        <ele>320.39999389648</ele>
        <time>2015-08-29T07:52:07.000Z</time>
      </trkpt>
      <trkpt lat="47.26788" lon="4.97579">
        <ele>320.39999389648</ele>
        <time>2015-08-29T07:52:13.000Z</time>
      </trkpt>
      <trkpt lat="47.26793" lon="4.97577">
        <ele>321</ele>
        <time>2015-08-29T07:52:41.000Z</time>
      </trkpt>
      <trkpt lat="47.26794" lon="4.97574">
        <ele>321.39999389648</ele>
        <time>2015-08-29T07:52:47.000Z</time>
      </trkpt>
      <trkpt lat="47.26794" lon="4.9758">
        <ele>320.79998779297</ele>
        <time>2015-08-29T07:52:52.000Z</time>
      </trkpt>
      <trkpt lat="47.26797" lon="4.97585">
        <ele>320.60000610352</ele>
        <time>2015-08-29T07:52:56.000Z</time>
      </trkpt>
      <trkpt lat="47.26804" lon="4.97589">
        <ele>320.60000610352</ele>
        <time>2015-08-29T07:53:03.000Z</time>
      </trkpt>
      <trkpt lat="47.2681" lon="4.97597">
        <ele>320.39999389648</ele>
        <time>2015-08-29T07:53:10.000Z</time>
      </trkpt>
      <trkpt lat="47.26816" lon="4.97606">
        <ele>319.79998779297</ele>
        <time>2015-08-29T07:53:17.000Z</time>
      </trkpt>
      <trkpt lat="47.26824" lon="4.97615">
        <ele>319.39999389648</ele>
        <time>2015-08-29T07:53:24.000Z</time>
      </trkpt>
      <trkpt lat="47.26831" lon="4.97625">
        <ele>319</ele>
        <time>2015-08-29T07:53:32.000Z</time>
      </trkpt>
      <trkpt lat="47.26836" lon="4.97633">
        <ele>318.79998779297</ele>
        <time>2015-08-29T07:53:37.000Z</time>
      </trkpt>
      <trkpt lat="47.26842" lon="4.97644">
        <ele>318.39999389648</ele>
        <time>2015-08-29T07:53:44.000Z</time>
      </trkpt>
      <trkpt lat="47.26846" lon="4.97658">
        <ele>317.60000610352</ele>
        <time>2015-08-29T07:53:51.000Z</time>
      </trkpt>
      <trkpt lat="47.26846" lon="4.97675">
        <ele>316.20001220703</ele>
        <time>2015-08-29T07:53:59.000Z</time>
      </trkpt>
      <trkpt lat="47.26845" lon="4.97689">
        <ele>314.79998779297</ele>
        <time>2015-08-29T07:54:05.000Z</time>
      </trkpt>
      <trkpt lat="47.26848" lon="4.97703">
        <ele>314</ele>
        <time>2015-08-29T07:54:12.000Z</time>
      </trkpt>
      <trkpt lat="47.26854" lon="4.97713">
        <ele>313.60000610352</ele>
        <time>2015-08-29T07:54:18.000Z</time>
      </trkpt>
      <trkpt lat="47.26862" lon="4.97727">
        <ele>313.39999389648</ele>
        <time>2015-08-29T07:54:27.000Z</time>
      </trkpt>
      <trkpt lat="47.26868" lon="4.97739">
        <ele>313</ele>
        <time>2015-08-29T07:54:34.000Z</time>
      </trkpt>
      <trkpt lat="47.26873" lon="4.9775">
        <ele>312.60000610352</ele>
        <time>2015-08-29T07:54:41.000Z</time>
      </trkpt>
      <trkpt lat="47.26879" lon="4.97764">
        <ele>312.39999389648</ele>
        <time>2015-08-29T07:54:49.000Z</time>
      </trkpt>
      <trkpt lat="47.26886" lon="4.97778">
        <ele>312.20001220703</ele>
        <time>2015-08-29T07:54:57.000Z</time>
      </trkpt>
      <trkpt lat="47.26893" lon="4.97779">
        <ele>312.39999389648</ele>
        <time>2015-08-29T07:55:03.000Z</time>
      </trkpt>
      <trkpt lat="47.26896" lon="4.97775">
        <ele>312.79998779297</ele>
        <time>2015-08-29T07:55:06.000Z</time>
      </trkpt>
      <trkpt lat="47.269" lon="4.97761">
        <ele>314</ele>
        <time>2015-08-29T07:55:15.000Z</time>
      </trkpt>
      <trkpt lat="47.269" lon="4.9776">
        <ele>314.20001220703</ele>
        <time>2015-08-29T07:55:16.000Z</time>
      </trkpt>
      <trkpt lat="47.26901" lon="4.97758">
        <ele>314.39999389648</ele>
        <time>2015-08-29T07:55:24.000Z</time>
      </trkpt>
      <trkpt lat="47.26907" lon="4.97751">
        <ele>315.39999389648</ele>
        <time>2015-08-29T07:55:32.000Z</time>
      </trkpt>
      <trkpt lat="47.26914" lon="4.97747">
        <ele>316.39999389648</ele>
        <time>2015-08-29T07:55:39.000Z</time>
      </trkpt>
      <trkpt lat="47.26924" lon="4.97743">
        <ele>317.20001220703</ele>
        <time>2015-08-29T07:55:47.000Z</time>
      </trkpt>
      <trkpt lat="47.26934" lon="4.9774">
        <ele>318</ele>
        <time>2015-08-29T07:55:56.000Z</time>
      </trkpt>
      <trkpt lat="47.26939" lon="4.97737">
        <ele>318.39999389648</ele>
        <time>2015-08-29T07:56:00.000Z</time>
      </trkpt>
      <trkpt lat="47.26945" lon="4.97732">
        <ele>319.60000610352</ele>
        <time>2015-08-29T07:56:06.000Z</time>
      </trkpt>
      <trkpt lat="47.26946" lon="4.9773">
        <ele>320</ele>
        <time>2015-08-29T07:56:08.000Z</time>
      </trkpt>
      <trkpt lat="47.26948" lon="4.97728">
        <ele>320.39999389648</ele>
        <time>2015-08-29T07:56:10.000Z</time>
      </trkpt>
      <trkpt lat="47.26957" lon="4.97721">
        <ele>322.20001220703</ele>
        <time>2015-08-29T07:56:19.000Z</time>
      </trkpt>
      <trkpt lat="47.26965" lon="4.97715">
        <ele>323.79998779297</ele>
        <time>2015-08-29T07:56:27.000Z</time>
      </trkpt>
      <trkpt lat="47.26973" lon="4.97712">
        <ele>325</ele>
        <time>2015-08-29T07:56:34.000Z</time>
      </trkpt>
      <trkpt lat="47.26975" lon="4.97712">
        <ele>325.20001220703</ele>
        <time>2015-08-29T07:56:36.000Z</time>
      </trkpt>
      <trkpt lat="47.26983" lon="4.97711">
        <ele>326.20001220703</ele>
        <time>2015-08-29T07:56:43.000Z</time>
      </trkpt>
      <trkpt lat="47.26991" lon="4.97712">
        <ele>327</ele>
        <time>2015-08-29T07:56:50.000Z</time>
      </trkpt>
      <trkpt lat="47.27002" lon="4.97713">
        <ele>328</ele>
        <time>2015-08-29T07:56:59.000Z</time>
      </trkpt>
      <trkpt lat="47.27011" lon="4.97712">
        <ele>329.39999389648</ele>
        <time>2015-08-29T07:57:07.000Z</time>
      </trkpt>
      <trkpt lat="47.27018" lon="4.9771">
        <ele>330.20001220703</ele>
        <time>2015-08-29T07:57:13.000Z</time>
      </trkpt>
      <trkpt lat="47.27025" lon="4.97707">
        <ele>331.60000610352</ele>
        <time>2015-08-29T07:57:20.000Z</time>
      </trkpt>
      <trkpt lat="47.27032" lon="4.97703">
        <ele>332.79998779297</ele>
        <time>2015-08-29T07:57:26.000Z</time>
      </trkpt>
      <trkpt lat="47.27035" lon="4.977">
        <ele>333.60000610352</ele>
        <time>2015-08-29T07:57:29.000Z</time>
      </trkpt>
      <trkpt lat="47.27041" lon="4.97696">
        <ele>334.60000610352</ele>
        <time>2015-08-29T07:57:35.000Z</time>
      </trkpt>
      <trkpt lat="47.27044" lon="4.97694">
        <ele>335.20001220703</ele>
        <time>2015-08-29T07:57:38.000Z</time>
      </trkpt>
      <trkpt lat="47.27053" lon="4.97688">
        <ele>337</ele>
        <time>2015-08-29T07:57:45.000Z</time>
      </trkpt>
      <trkpt lat="47.27055" lon="4.97687">
        <ele>337.39999389648</ele>
        <time>2015-08-29T07:57:47.000Z</time>
      </trkpt>
      <trkpt lat="47.27063" lon="4.97684">
        <ele>338.39999389648</ele>
        <time>2015-08-29T07:57:54.000Z</time>
      </trkpt>
      <trkpt lat="47.2707" lon="4.97684">
        <ele>339.20001220703</ele>
        <time>2015-08-29T07:57:59.000Z</time>
      </trkpt>
      <trkpt lat="47.27071" lon="4.97683">
        <ele>339.39999389648</ele>
        <time>2015-08-29T07:58:00.000Z</time>
      </trkpt>
      <trkpt lat="47.27075" lon="4.97682">
        <ele>340</ele>
        <time>2015-08-29T07:58:04.000Z</time>
      </trkpt>
      <trkpt lat="47.27076" lon="4.97682">
        <ele>340.20001220703</ele>
        <time>2015-08-29T07:58:05.000Z</time>
      </trkpt>
      <trkpt lat="47.27077" lon="4.97681">
        <ele>340.20001220703</ele>
        <time>2015-08-29T07:58:06.000Z</time>
      </trkpt>
      <trkpt lat="47.27078" lon="4.9768">
        <ele>340.60000610352</ele>
        <time>2015-08-29T07:58:08.000Z</time>
      </trkpt>
      <trkpt lat="47.27083" lon="4.97678">
        <ele>341</ele>
        <time>2015-08-29T07:58:14.000Z</time>
      </trkpt>
      <trkpt lat="47.27086" lon="4.97677">
        <ele>341.39999389648</ele>
        <time>2015-08-29T07:58:21.000Z</time>
      </trkpt>
      <trkpt lat="47.27084" lon="4.9768">
        <ele>341</ele>
        <time>2015-08-29T07:58:32.000Z</time>
      </trkpt>
      <trkpt lat="47.27084" lon="4.97681">
        <ele>341</ele>
        <time>2015-08-29T07:58:33.000Z</time>
      </trkpt>
      <trkpt lat="47.27089" lon="4.97685">
        <ele>341</ele>
        <time>2015-08-29T07:58:38.000Z</time>
      </trkpt>
      <trkpt lat="47.27093" lon="4.97687">
        <ele>341</ele>
        <time>2015-08-29T07:58:44.000Z</time>
      </trkpt>
      <trkpt lat="47.27093" lon="4.97687">
        <ele>341</ele>
        <time>2015-08-29T07:58:45.000Z</time>
      </trkpt>
      <trkpt lat="47.27095" lon="4.97686">
        <ele>341.20001220703</ele>
        <time>2015-08-29T07:58:48.000Z</time>
      </trkpt>
      <trkpt lat="47.27101" lon="4.97689">
        <ele>341.39999389648</ele>
        <time>2015-08-29T07:58:53.000Z</time>
      </trkpt>
      <trkpt lat="47.27103" lon="4.97691">
        <ele>341.20001220703</ele>
        <time>2015-08-29T07:58:55.000Z</time>
      </trkpt>
      <trkpt lat="47.27111" lon="4.97697">
        <ele>341.20001220703</ele>
        <time>2015-08-29T07:59:01.000Z</time>
      </trkpt>
      <trkpt lat="47.27113" lon="4.97698">
        <ele>341.39999389648</ele>
        <time>2015-08-29T07:59:03.000Z</time>
      </trkpt>
      <trkpt lat="47.27119" lon="4.97699">
        <ele>341.60000610352</ele>
        <time>2015-08-29T07:59:08.000Z</time>
      </trkpt>
      <trkpt lat="47.27126" lon="4.97702">
        <ele>342</ele>
        <time>2015-08-29T07:59:14.000Z</time>
      </trkpt>
      <trkpt lat="47.2713" lon="4.97702">
        <ele>342.20001220703</ele>
        <time>2015-08-29T07:59:16.000Z</time>
      </trkpt>
      <trkpt lat="47.27132" lon="4.97702">
        <ele>342.39999389648</ele>
        <time>2015-08-29T07:59:18.000Z</time>
      </trkpt>
      <trkpt lat="47.27135" lon="4.97703">
        <ele>342.39999389648</ele>
        <time>2015-08-29T07:59:21.000Z</time>
      </trkpt>
      <trkpt lat="47.27139" lon="4.97705">
        <ele>342.60000610352</ele>
        <time>2015-08-29T07:59:25.000Z</time>
      </trkpt>
      <trkpt lat="47.27141" lon="4.97705">
        <ele>342.79998779297</ele>
        <time>2015-08-29T07:59:27.000Z</time>
      </trkpt>
      <trkpt lat="47.27149" lon="4.97707">
        <ele>343.20001220703</ele>
        <time>2015-08-29T07:59:33.000Z</time>
      </trkpt>
      <trkpt lat="47.2715" lon="4.97707">
        <ele>343.20001220703</ele>
        <time>2015-08-29T07:59:34.000Z</time>
      </trkpt>
      <trkpt lat="47.2716" lon="4.97712">
        <ele>343.20001220703</ele>
        <time>2015-08-29T07:59:41.000Z</time>
      </trkpt>
      <trkpt lat="47.27162" lon="4.97713">
        <ele>343.20001220703</ele>
        <time>2015-08-29T07:59:42.000Z</time>
      </trkpt>
      <trkpt lat="47.27167" lon="4.97717">
        <ele>343.39999389648</ele>
        <time>2015-08-29T07:59:46.000Z</time>
      </trkpt>
      <trkpt lat="47.27168" lon="4.97717">
        <ele>343.39999389648</ele>
        <time>2015-08-29T07:59:47.000Z</time>
      </trkpt>
      <trkpt lat="47.27169" lon="4.97718">
        <ele>343.39999389648</ele>
        <time>2015-08-29T07:59:48.000Z</time>
      </trkpt>
      <trkpt lat="47.2717" lon="4.97719">
        <ele>343.39999389648</ele>
        <time>2015-08-29T07:59:50.000Z</time>
      </trkpt>
      <trkpt lat="47.27176" lon="4.97723">
        <ele>343.60000610352</ele>
        <time>2015-08-29T07:59:54.000Z</time>
      </trkpt>
      <trkpt lat="47.27183" lon="4.9773">
        <ele>343.60000610352</ele>
        <time>2015-08-29T08:00:00.000Z</time>
      </trkpt>
      <trkpt lat="47.27186" lon="4.97732">
        <ele>343.60000610352</ele>
        <time>2015-08-29T08:00:03.000Z</time>
      </trkpt>
      <trkpt lat="47.27187" lon="4.97732">
        <ele>343.79998779297</ele>
        <time>2015-08-29T08:00:05.000Z</time>
      </trkpt>
      <trkpt lat="47.27198" lon="4.97741">
        <ele>343.79998779297</ele>
        <time>2015-08-29T08:00:15.000Z</time>
      </trkpt>
      <trkpt lat="47.27201" lon="4.97745">
        <ele>343.79998779297</ele>
        <time>2015-08-29T08:00:20.000Z</time>
      </trkpt>
      <trkpt lat="47.27202" lon="4.97752">
        <ele>342.79998779297</ele>
        <time>2015-08-29T08:00:25.000Z</time>
      </trkpt>
      <trkpt lat="47.27201" lon="4.97757">
        <ele>342</ele>
        <time>2015-08-29T08:00:29.000Z</time>
      </trkpt>
      <trkpt lat="47.27201" lon="4.97759">
        <ele>341.79998779297</ele>
        <time>2015-08-29T08:00:31.000Z</time>
      </trkpt>
      <trkpt lat="47.272" lon="4.9777">
        <ele>340.20001220703</ele>
        <time>2015-08-29T08:00:39.000Z</time>
      </trkpt>
      <trkpt lat="47.27202" lon="4.97772">
        <ele>340.20001220703</ele>
        <time>2015-08-29T08:00:41.000Z</time>
      </trkpt>
      <trkpt lat="47.27208" lon="4.97777">
        <ele>340.39999389648</ele>
        <time>2015-08-29T08:00:48.000Z</time>
      </trkpt>
      <trkpt lat="47.27213" lon="4.9778">
        <ele>340.60000610352</ele>
        <time>2015-08-29T08:00:52.000Z</time>
      </trkpt>
      <trkpt lat="47.27221" lon="4.97784">
        <ele>340.79998779297</ele>
        <time>2015-08-29T08:00:58.000Z</time>
      </trkpt>
      <trkpt lat="47.27222" lon="4.97786">
        <ele>340.79998779297</ele>
        <time>2015-08-29T08:01:00.000Z</time>
      </trkpt>
      <trkpt lat="47.27227" lon="4.97787">
        <ele>341.39999389648</ele>
        <time>2015-08-29T08:01:04.000Z</time>
      </trkpt>
      <trkpt lat="47.27233" lon="4.97792">
        <ele>341.39999389648</ele>
        <time>2015-08-29T08:01:08.000Z</time>
      </trkpt>
      <trkpt lat="47.27236" lon="4.97794">
        <ele>341.39999389648</ele>
        <time>2015-08-29T08:01:10.000Z</time>
      </trkpt>
      <trkpt lat="47.27238" lon="4.97796">
        <ele>341.39999389648</ele>
        <time>2015-08-29T08:01:12.000Z</time>
      </trkpt>
      <trkpt lat="47.27246" lon="4.97799">
        <ele>341.79998779297</ele>
        <time>2015-08-29T08:01:18.000Z</time>
      </trkpt>
      <trkpt lat="47.27253" lon="4.97804">
        <ele>341.79998779297</ele>
        <time>2015-08-29T08:01:23.000Z</time>
      </trkpt>
      <trkpt lat="47.27254" lon="4.97804">
        <ele>341.79998779297</ele>
        <time>2015-08-29T08:01:24.000Z</time>
      </trkpt>
      <trkpt lat="47.2726" lon="4.97808">
        <ele>341.60000610352</ele>
        <time>2015-08-29T08:01:28.000Z</time>
      </trkpt>
      <trkpt lat="47.27265" lon="4.97808">
        <ele>342</ele>
        <time>2015-08-29T08:01:33.000Z</time>
      </trkpt>
      <trkpt lat="47.27266" lon="4.97808">
        <ele>342</ele>
        <time>2015-08-29T08:01:35.000Z</time>
      </trkpt>
      <trkpt lat="47.27271" lon="4.97813">
        <ele>341.60000610352</ele>
        <time>2015-08-29T08:01:40.000Z</time>
      </trkpt>
      <trkpt lat="47.27274" lon="4.97814">
        <ele>341.79998779297</ele>
        <time>2015-08-29T08:01:42.000Z</time>
      </trkpt>
      <trkpt lat="47.27279" lon="4.97815">
        <ele>342</ele>
        <time>2015-08-29T08:01:46.000Z</time>
      </trkpt>
      <trkpt lat="47.27284" lon="4.97817">
        <ele>342</ele>
        <time>2015-08-29T08:01:51.000Z</time>
      </trkpt>
      <trkpt lat="47.27289" lon="4.97816">
        <ele>342.60000610352</ele>
        <time>2015-08-29T08:01:55.000Z</time>
      </trkpt>
      <trkpt lat="47.27291" lon="4.97816">
        <ele>342.79998779297</ele>
        <time>2015-08-29T08:01:58.000Z</time>
      </trkpt>
      <trkpt lat="47.27302" lon="4.97817">
        <ele>343.20001220703</ele>
        <time>2015-08-29T08:02:04.000Z</time>
      </trkpt>
      <trkpt lat="47.27311" lon="4.97814">
        <ele>344.39999389648</ele>
        <time>2015-08-29T08:02:09.000Z</time>
      </trkpt>
      <trkpt lat="47.27318" lon="4.97812">
        <ele>345.20001220703</ele>
        <time>2015-08-29T08:02:14.000Z</time>
      </trkpt>
      <trkpt lat="47.27319" lon="4.97812">
        <ele>345.20001220703</ele>
        <time>2015-08-29T08:02:15.000Z</time>
      </trkpt>
      <trkpt lat="47.2732" lon="4.97812">
        <ele>345.20001220703</ele>
        <time>2015-08-29T08:02:16.000Z</time>
      </trkpt>
      <trkpt lat="47.27321" lon="4.97813">
        <ele>345.20001220703</ele>
        <time>2015-08-29T08:02:18.000Z</time>
      </trkpt>
      <trkpt lat="47.27327" lon="4.97815">
        <ele>345.39999389648</ele>
        <time>2015-08-29T08:02:22.000Z</time>
      </trkpt>
      <trkpt lat="47.27337" lon="4.97814">
        <ele>345.60000610352</ele>
        <time>2015-08-29T08:02:29.000Z</time>
      </trkpt>
      <trkpt lat="47.27343" lon="4.97814">
        <ele>345.79998779297</ele>
        <time>2015-08-29T08:02:34.000Z</time>
      </trkpt>
      <trkpt lat="47.27349" lon="4.97816">
        <ele>345.60000610352</ele>
        <time>2015-08-29T08:02:37.000Z</time>
      </trkpt>
      <trkpt lat="47.27354" lon="4.9782">
        <ele>344.79998779297</ele>
        <time>2015-08-29T08:02:42.000Z</time>
      </trkpt>
      <trkpt lat="47.27355" lon="4.9782">
        <ele>344.79998779297</ele>
        <time>2015-08-29T08:02:43.000Z</time>
      </trkpt>
      <trkpt lat="47.27358" lon="4.97819">
        <ele>345</ele>
        <time>2015-08-29T08:02:46.000Z</time>
      </trkpt>
      <trkpt lat="47.27369" lon="4.97822">
        <ele>344.79998779297</ele>
        <time>2015-08-29T08:02:53.000Z</time>
      </trkpt>
      <trkpt lat="47.2737" lon="4.97823">
        <ele>344.60000610352</ele>
        <time>2015-08-29T08:02:54.000Z</time>
      </trkpt>
      <trkpt lat="47.27371" lon="4.97824">
        <ele>344.60000610352</ele>
        <time>2015-08-29T08:02:56.000Z</time>
      </trkpt>
      <trkpt lat="47.27382" lon="4.97827">
        <ele>344.39999389648</ele>
        <time>2015-08-29T08:03:01.000Z</time>
      </trkpt>
      <trkpt lat="47.27384" lon="4.97828">
        <ele>344.20001220703</ele>
        <time>2015-08-29T08:03:02.000Z</time>
      </trkpt>
      <trkpt lat="47.27394" lon="4.97829">
        <ele>344.20001220703</ele>
        <time>2015-08-29T08:03:07.000Z</time>
      </trkpt>
      <trkpt lat="47.27402" lon="4.97833">
        <ele>343.79998779297</ele>
        <time>2015-08-29T08:03:12.000Z</time>
      </trkpt>
      <trkpt lat="47.27407" lon="4.97833">
        <ele>343.79998779297</ele>
        <time>2015-08-29T08:03:15.000Z</time>
      </trkpt>
      <trkpt lat="47.2741" lon="4.97834">
        <ele>343.79998779297</ele>
        <time>2015-08-29T08:03:18.000Z</time>
      </trkpt>
      <trkpt lat="47.27417" lon="4.97833">
        <ele>344</ele>
        <time>2015-08-29T08:03:23.000Z</time>
      </trkpt>
      <trkpt lat="47.27423" lon="4.97827">
        <ele>345</ele>
        <time>2015-08-29T08:03:28.000Z</time>
      </trkpt>
      <trkpt lat="47.27425" lon="4.97826">
        <ele>345.20001220703</ele>
        <time>2015-08-29T08:03:29.000Z</time>
      </trkpt>
      <trkpt lat="47.2743" lon="4.97822">
        <ele>346</ele>
        <time>2015-08-29T08:03:32.000Z</time>
      </trkpt>
      <trkpt lat="47.27434" lon="4.97817">
        <ele>346.79998779297</ele>
        <time>2015-08-29T08:03:37.000Z</time>
      </trkpt>
      <trkpt lat="47.27435" lon="4.97817">
        <ele>347</ele>
        <time>2015-08-29T08:03:38.000Z</time>
      </trkpt>
      <trkpt lat="47.2744" lon="4.97816">
        <ele>347.20001220703</ele>
        <time>2015-08-29T08:03:47.000Z</time>
      </trkpt>
      <trkpt lat="47.27443" lon="4.97814">
        <ele>347.20001220703</ele>
        <time>2015-08-29T08:03:52.000Z</time>
      </trkpt>
      <trkpt lat="47.27447" lon="4.97812">
        <ele>347.39999389648</ele>
        <time>2015-08-29T08:03:56.000Z</time>
      </trkpt>
      <trkpt lat="47.27458" lon="4.97809">
        <ele>347.60000610352</ele>
        <time>2015-08-29T08:04:03.000Z</time>
      </trkpt>
      <trkpt lat="47.2746" lon="4.97806">
        <ele>348</ele>
        <time>2015-08-29T08:04:05.000Z</time>
      </trkpt>
      <trkpt lat="47.27466" lon="4.97806">
        <ele>347.79998779297</ele>
        <time>2015-08-29T08:04:10.000Z</time>
      </trkpt>
      <trkpt lat="47.27469" lon="4.97805">
        <ele>347.79998779297</ele>
        <time>2015-08-29T08:04:13.000Z</time>
      </trkpt>
      <trkpt lat="47.2747" lon="4.97805">
        <ele>347.79998779297</ele>
        <time>2015-08-29T08:04:14.000Z</time>
      </trkpt>
      <trkpt lat="47.27475" lon="4.97806">
        <ele>347.60000610352</ele>
        <time>2015-08-29T08:04:17.000Z</time>
      </trkpt>
      <trkpt lat="47.27477" lon="4.97805">
        <ele>347.60000610352</ele>
        <time>2015-08-29T08:04:19.000Z</time>
      </trkpt>
      <trkpt lat="47.27481" lon="4.97806">
        <ele>347.39999389648</ele>
        <time>2015-08-29T08:04:23.000Z</time>
      </trkpt>
      <trkpt lat="47.27483" lon="4.97807">
        <ele>347.20001220703</ele>
        <time>2015-08-29T08:04:26.000Z</time>
      </trkpt>
      <trkpt lat="47.27489" lon="4.97811">
        <ele>346.60000610352</ele>
        <time>2015-08-29T08:04:35.000Z</time>
      </trkpt>
      <trkpt lat="47.27491" lon="4.97814">
        <ele>346.20001220703</ele>
        <time>2015-08-29T08:04:37.000Z</time>
      </trkpt>
      <trkpt lat="47.27492" lon="4.97824">
        <ele>344.79998779297</ele>
        <time>2015-08-29T08:04:43.000Z</time>
      </trkpt>
      <trkpt lat="47.27494" lon="4.97827">
        <ele>344.39999389648</ele>
        <time>2015-08-29T08:04:45.000Z</time>
      </trkpt>
      <trkpt lat="47.27498" lon="4.97834">
        <ele>343.60000610352</ele>
        <time>2015-08-29T08:04:50.000Z</time>
      </trkpt>
      <trkpt lat="47.27504" lon="4.97843">
        <ele>343</ele>
        <time>2015-08-29T08:04:57.000Z</time>
      </trkpt>
      <trkpt lat="47.27505" lon="4.97844">
        <ele>342.79998779297</ele>
        <time>2015-08-29T08:04:58.000Z</time>
      </trkpt>
      <trkpt lat="47.27514" lon="4.97852">
        <ele>342.60000610352</ele>
        <time>2015-08-29T08:05:04.000Z</time>
      </trkpt>
      <trkpt lat="47.27515" lon="4.97854">
        <ele>342.60000610352</ele>
        <time>2015-08-29T08:05:05.000Z</time>
      </trkpt>
      <trkpt lat="47.27522" lon="4.97861">
        <ele>342.39999389648</ele>
        <time>2015-08-29T08:05:10.000Z</time>
      </trkpt>
      <trkpt lat="47.27523" lon="4.97863">
        <ele>342.20001220703</ele>
        <time>2015-08-29T08:05:11.000Z</time>
      </trkpt>
      <trkpt lat="47.27527" lon="4.97867">
        <ele>342</ele>
        <time>2015-08-29T08:05:14.000Z</time>
      </trkpt>
      <trkpt lat="47.27535" lon="4.97875">
        <ele>341.60000610352</ele>
        <time>2015-08-29T08:05:21.000Z</time>
      </trkpt>
      <trkpt lat="47.2754" lon="4.97883">
        <ele>341.20001220703</ele>
        <time>2015-08-29T08:05:26.000Z</time>
      </trkpt>
      <trkpt lat="47.27547" lon="4.97888">
        <ele>341.20001220703</ele>
        <time>2015-08-29T08:05:31.000Z</time>
      </trkpt>
      <trkpt lat="47.27549" lon="4.97889">
        <ele>341.20001220703</ele>
        <time>2015-08-29T08:05:32.000Z</time>
      </trkpt>
      <trkpt lat="47.27553" lon="4.97891">
        <ele>341.39999389648</ele>
        <time>2015-08-29T08:05:36.000Z</time>
      </trkpt>
      <trkpt lat="47.2756" lon="4.97886">
        <ele>342.60000610352</ele>
        <time>2015-08-29T08:05:43.000Z</time>
      </trkpt>
      <trkpt lat="47.2757" lon="4.97882">
        <ele>344</ele>
        <time>2015-08-29T08:05:50.000Z</time>
      </trkpt>
      <trkpt lat="47.27574" lon="4.97881">
        <ele>344.60000610352</ele>
        <time>2015-08-29T08:05:54.000Z</time>
      </trkpt>
      <trkpt lat="47.27577" lon="4.9788">
        <ele>345</ele>
        <time>2015-08-29T08:05:57.000Z</time>
      </trkpt>
      <trkpt lat="47.27584" lon="4.97877">
        <ele>346</ele>
        <time>2015-08-29T08:06:04.000Z</time>
      </trkpt>
      <trkpt lat="47.27591" lon="4.97875">
        <ele>346.60000610352</ele>
        <time>2015-08-29T08:06:10.000Z</time>
      </trkpt>
      <trkpt lat="47.27592" lon="4.97874">
        <ele>346.60000610352</ele>
        <time>2015-08-29T08:06:11.000Z</time>
      </trkpt>
      <trkpt lat="47.27592" lon="4.97874">
        <ele>346.79998779297</ele>
        <time>2015-08-29T08:06:12.000Z</time>
      </trkpt>
      <trkpt lat="47.27597" lon="4.97871">
        <ele>347.39999389648</ele>
        <time>2015-08-29T08:06:17.000Z</time>
      </trkpt>
      <trkpt lat="47.27599" lon="4.9787">
        <ele>347.39999389648</ele>
        <time>2015-08-29T08:06:18.000Z</time>
      </trkpt>
      <trkpt lat="47.27603" lon="4.97869">
        <ele>347.79998779297</ele>
        <time>2015-08-29T08:06:22.000Z</time>
      </trkpt>
      <trkpt lat="47.27611" lon="4.97865">
        <ele>348.60000610352</ele>
        <time>2015-08-29T08:06:28.000Z</time>
      </trkpt>
      <trkpt lat="47.27613" lon="4.97864">
        <ele>348.79998779297</ele>
        <time>2015-08-29T08:06:29.000Z</time>
      </trkpt>
      <trkpt lat="47.27614" lon="4.97864">
        <ele>349</ele>
        <time>2015-08-29T08:06:30.000Z</time>
      </trkpt>
      <trkpt lat="47.27619" lon="4.97862">
        <ele>349.39999389648</ele>
        <time>2015-08-29T08:06:35.000Z</time>
      </trkpt>
      <trkpt lat="47.27624" lon="4.9786">
        <ele>349.79998779297</ele>
        <time>2015-08-29T08:06:39.000Z</time>
      </trkpt>
      <trkpt lat="47.27627" lon="4.9786">
        <ele>350</ele>
        <time>2015-08-29T08:06:43.000Z</time>
      </trkpt>
      <trkpt lat="47.27638" lon="4.97864">
        <ele>350</ele>
        <time>2015-08-29T08:06:51.000Z</time>
      </trkpt>
      <trkpt lat="47.27639" lon="4.97865">
        <ele>350</ele>
        <time>2015-08-29T08:06:52.000Z</time>
      </trkpt>
      <trkpt lat="47.27641" lon="4.97867">
        <ele>349.79998779297</ele>
        <time>2015-08-29T08:06:54.000Z</time>
      </trkpt>
      <trkpt lat="47.27649" lon="4.9787">
        <ele>349.79998779297</ele>
        <time>2015-08-29T08:07:00.000Z</time>
      </trkpt>
      <trkpt lat="47.27655" lon="4.97871">
        <ele>350</ele>
        <time>2015-08-29T08:07:05.000Z</time>
      </trkpt>
      <trkpt lat="47.27656" lon="4.97871">
        <ele>350</ele>
        <time>2015-08-29T08:07:06.000Z</time>
      </trkpt>
      <trkpt lat="47.2766" lon="4.9787">
        <ele>350.39999389648</ele>
        <time>2015-08-29T08:07:09.000Z</time>
      </trkpt>
      <trkpt lat="47.27667" lon="4.97874">
        <ele>350</ele>
        <time>2015-08-29T08:07:14.000Z</time>
      </trkpt>
      <trkpt lat="47.27673" lon="4.97875">
        <ele>350</ele>
        <time>2015-08-29T08:07:19.000Z</time>
      </trkpt>
      <trkpt lat="47.27678" lon="4.97876">
        <ele>349.79998779297</ele>
        <time>2015-08-29T08:07:22.000Z</time>
      </trkpt>
      <trkpt lat="47.2769" lon="4.97877">
        <ele>349.79998779297</ele>
        <time>2015-08-29T08:07:31.000Z</time>
      </trkpt>
      <trkpt lat="47.27691" lon="4.97877">
        <ele>349.79998779297</ele>
        <time>2015-08-29T08:07:32.000Z</time>
      </trkpt>
      <trkpt lat="47.27698" lon="4.97871">
        <ele>350.39999389648</ele>
        <time>2015-08-29T08:07:38.000Z</time>
      </trkpt>
      <trkpt lat="47.27699" lon="4.97871">
        <ele>350.39999389648</ele>
        <time>2015-08-29T08:07:39.000Z</time>
      </trkpt>
      <trkpt lat="47.27702" lon="4.97869">
        <ele>350.79998779297</ele>
        <time>2015-08-29T08:07:41.000Z</time>
      </trkpt>
      <trkpt lat="47.27707" lon="4.97868">
        <ele>350.79998779297</ele>
        <time>2015-08-29T08:07:46.000Z</time>
      </trkpt>
      <trkpt lat="47.27707" lon="4.97868">
        <ele>350.79998779297</ele>
        <time>2015-08-29T08:07:47.000Z</time>
      </trkpt>
      <trkpt lat="47.2771" lon="4.97869">
        <ele>350.60000610352</ele>
        <time>2015-08-29T08:07:49.000Z</time>
      </trkpt>
      <trkpt lat="47.27716" lon="4.97869">
        <ele>350.60000610352</ele>
        <time>2015-08-29T08:07:54.000Z</time>
      </trkpt>
      <trkpt lat="47.27717" lon="4.97869">
        <ele>350.60000610352</ele>
        <time>2015-08-29T08:07:55.000Z</time>
      </trkpt>
      <trkpt lat="47.27722" lon="4.97864">
        <ele>351.20001220703</ele>
        <time>2015-08-29T08:08:00.000Z</time>
      </trkpt>
      <trkpt lat="47.27729" lon="4.97863">
        <ele>351.39999389648</ele>
        <time>2015-08-29T08:08:05.000Z</time>
      </trkpt>
      <trkpt lat="47.27735" lon="4.97865">
        <ele>351.20001220703</ele>
        <time>2015-08-29T08:08:10.000Z</time>
      </trkpt>
      <trkpt lat="47.27741" lon="4.97868">
        <ele>350.79998779297</ele>
        <time>2015-08-29T08:08:14.000Z</time>
      </trkpt>
      <trkpt lat="47.27747" lon="4.97872">
        <ele>350.20001220703</ele>
        <time>2015-08-29T08:08:19.000Z</time>
      </trkpt>
      <trkpt lat="47.2775" lon="4.97873">
        <ele>349.79998779297</ele>
        <time>2015-08-29T08:08:21.000Z</time>
      </trkpt>
      <trkpt lat="47.27752" lon="4.97874">
        <ele>349.60000610352</ele>
        <time>2015-08-29T08:08:23.000Z</time>
      </trkpt>
      <trkpt lat="47.2776" lon="4.97875">
        <ele>348.60000610352</ele>
        <time>2015-08-29T08:08:29.000Z</time>
      </trkpt>
      <trkpt lat="47.27761" lon="4.97876">
        <ele>348.39999389648</ele>
        <time>2015-08-29T08:08:30.000Z</time>
      </trkpt>
      <trkpt lat="47.27768" lon="4.9788">
        <ele>347.20001220703</ele>
        <time>2015-08-29T08:08:36.000Z</time>
      </trkpt>
      <trkpt lat="47.27772" lon="4.97881">
        <ele>346.60000610352</ele>
        <time>2015-08-29T08:08:39.000Z</time>
      </trkpt>
      <trkpt lat="47.2778" lon="4.97887">
        <ele>345</ele>
        <time>2015-08-29T08:08:46.000Z</time>
      </trkpt>
      <trkpt lat="47.27785" lon="4.97892">
        <ele>343.60000610352</ele>
        <time>2015-08-29T08:08:51.000Z</time>
      </trkpt>
      <trkpt lat="47.27792" lon="4.97894">
        <ele>342.79998779297</ele>
        <time>2015-08-29T08:08:57.000Z</time>
      </trkpt>
      <trkpt lat="47.27798" lon="4.97899">
        <ele>341.60000610352</ele>
        <time>2015-08-29T08:09:02.000Z</time>
      </trkpt>
      <trkpt lat="47.27799" lon="4.97899">
        <ele>341.39999389648</ele>
        <time>2015-08-29T08:09:03.000Z</time>
      </trkpt>
      <trkpt lat="47.27803" lon="4.97902">
        <ele>340.60000610352</ele>
        <time>2015-08-29T08:09:06.000Z</time>
      </trkpt>
      <trkpt lat="47.27808" lon="4.97908">
        <ele>339.20001220703</ele>
        <time>2015-08-29T08:09:11.000Z</time>
      </trkpt>
      <trkpt lat="47.27808" lon="4.97909">
        <ele>339</ele>
        <time>2015-08-29T08:09:12.000Z</time>
      </trkpt>
      <trkpt lat="47.27811" lon="4.97912">
        <ele>338.39999389648</ele>
        <time>2015-08-29T08:09:16.000Z</time>
      </trkpt>
      <trkpt lat="47.27817" lon="4.97918">
        <ele>337</ele>
        <time>2015-08-29T08:09:22.000Z</time>
      </trkpt>
      <trkpt lat="47.2782" lon="4.9792">
        <ele>336.39999389648</ele>
        <time>2015-08-29T08:09:26.000Z</time>
      </trkpt>
      <trkpt lat="47.27821" lon="4.97921">
        <ele>336</ele>
        <time>2015-08-29T08:09:28.000Z</time>
      </trkpt>
      <trkpt lat="47.27828" lon="4.97926">
        <ele>334.79998779297</ele>
        <time>2015-08-29T08:09:36.000Z</time>
      </trkpt>
      <trkpt lat="47.27828" lon="4.97926">
        <ele>334.79998779297</ele>
        <time>2015-08-29T08:09:37.000Z</time>
      </trkpt>
      <trkpt lat="47.2783" lon="4.97924">
        <ele>334.79998779297</ele>
        <time>2015-08-29T08:09:40.000Z</time>
      </trkpt>
      <trkpt lat="47.27831" lon="4.97924">
        <ele>334.39999389648</ele>
        <time>2015-08-29T08:09:42.000Z</time>
      </trkpt>
      <trkpt lat="47.27833" lon="4.97925">
        <ele>333.79998779297</ele>
        <time>2015-08-29T08:09:44.000Z</time>
      </trkpt>
      <trkpt lat="47.2784" lon="4.97927">
        <ele>332</ele>
        <time>2015-08-29T08:09:51.000Z</time>
      </trkpt>
      <trkpt lat="47.27841" lon="4.97928">
        <ele>331.60000610352</ele>
        <time>2015-08-29T08:09:53.000Z</time>
      </trkpt>
      <trkpt lat="47.27847" lon="4.97938">
        <ele>328.79998779297</ele>
        <time>2015-08-29T08:10:03.000Z</time>
      </trkpt>
      <trkpt lat="47.27851" lon="4.97943">
        <ele>326.79998779297</ele>
        <time>2015-08-29T08:10:09.000Z</time>
      </trkpt>
      <trkpt lat="47.27856" lon="4.97946">
        <ele>325.39999389648</ele>
        <time>2015-08-29T08:10:14.000Z</time>
      </trkpt>
      <trkpt lat="47.27857" lon="4.97946">
        <ele>325</ele>
        <time>2015-08-29T08:10:15.000Z</time>
      </trkpt>
      <trkpt lat="47.27864" lon="4.97947">
        <ele>323.39999389648</ele>
        <time>2015-08-29T08:10:21.000Z</time>
      </trkpt>
      <trkpt lat="47.27867" lon="4.97949">
        <ele>322.39999389648</ele>
        <time>2015-08-29T08:10:24.000Z</time>
      </trkpt>
      <trkpt lat="47.2787" lon="4.97948">
        <ele>321.60000610352</ele>
        <time>2015-08-29T08:10:29.000Z</time>
      </trkpt>
      <trkpt lat="47.27871" lon="4.97947">
        <ele>321.60000610352</ele>
        <time>2015-08-29T08:10:30.000Z</time>
      </trkpt>
      <trkpt lat="47.27872" lon="4.97946">
        <ele>321.60000610352</ele>
        <time>2015-08-29T08:10:31.000Z</time>
      </trkpt>
      <trkpt lat="47.27876" lon="4.9794">
        <ele>321.20001220703</ele>
        <time>2015-08-29T08:10:35.000Z</time>
      </trkpt>
      <trkpt lat="47.27882" lon="4.97931">
        <ele>321.20001220703</ele>
        <time>2015-08-29T08:10:41.000Z</time>
      </trkpt>
      <trkpt lat="47.27884" lon="4.97929">
        <ele>321.20001220703</ele>
        <time>2015-08-29T08:10:42.000Z</time>
      </trkpt>
      <trkpt lat="47.27885" lon="4.97927">
        <ele>321.20001220703</ele>
        <time>2015-08-29T08:10:43.000Z</time>
      </trkpt>
      <trkpt lat="47.27887" lon="4.97921">
        <ele>321.60000610352</ele>
        <time>2015-08-29T08:10:47.000Z</time>
      </trkpt>
      <trkpt lat="47.2789" lon="4.97918">
        <ele>321.60000610352</ele>
        <time>2015-08-29T08:10:49.000Z</time>
      </trkpt>
      <trkpt lat="47.27892" lon="4.97909">
        <ele>322.39999389648</ele>
        <time>2015-08-29T08:10:55.000Z</time>
      </trkpt>
      <trkpt lat="47.27894" lon="4.97901">
        <ele>323.20001220703</ele>
        <time>2015-08-29T08:11:00.000Z</time>
      </trkpt>
      <trkpt lat="47.27895" lon="4.979">
        <ele>323</ele>
        <time>2015-08-29T08:11:01.000Z</time>
      </trkpt>
      <trkpt lat="47.27898" lon="4.97898">
        <ele>323</ele>
        <time>2015-08-29T08:11:03.000Z</time>
      </trkpt>
      <trkpt lat="47.27905" lon="4.97887">
        <ele>323</ele>
        <time>2015-08-29T08:11:10.000Z</time>
      </trkpt>
      <trkpt lat="47.27912" lon="4.9788">
        <ele>322.39999389648</ele>
        <time>2015-08-29T08:11:15.000Z</time>
      </trkpt>
      <trkpt lat="47.27913" lon="4.97879">
        <ele>322.39999389648</ele>
        <time>2015-08-29T08:11:16.000Z</time>
      </trkpt>
      <trkpt lat="47.27918" lon="4.97872">
        <ele>322.60000610352</ele>
        <time>2015-08-29T08:11:22.000Z</time>
      </trkpt>
      <trkpt lat="47.27922" lon="4.97867">
        <ele>322.79998779297</ele>
        <time>2015-08-29T08:11:26.000Z</time>
      </trkpt>
      <trkpt lat="47.27926" lon="4.97861">
        <ele>322.79998779297</ele>
        <time>2015-08-29T08:11:30.000Z</time>
      </trkpt>
      <trkpt lat="47.27929" lon="4.97858">
        <ele>322.60000610352</ele>
        <time>2015-08-29T08:11:33.000Z</time>
      </trkpt>
      <trkpt lat="47.27936" lon="4.9785">
        <ele>322.60000610352</ele>
        <time>2015-08-29T08:11:40.000Z</time>
      </trkpt>
      <trkpt lat="47.27942" lon="4.97842">
        <ele>322.79998779297</ele>
        <time>2015-08-29T08:11:46.000Z</time>
      </trkpt>
      <trkpt lat="47.27946" lon="4.97835">
        <ele>323</ele>
        <time>2015-08-29T08:11:51.000Z</time>
      </trkpt>
      <trkpt lat="47.27951" lon="4.97829">
        <ele>323</ele>
        <time>2015-08-29T08:11:56.000Z</time>
      </trkpt>
      <trkpt lat="47.27952" lon="4.97829">
        <ele>323</ele>
        <time>2015-08-29T08:11:57.000Z</time>
      </trkpt>
      <trkpt lat="47.27952" lon="4.97826">
        <ele>322.79998779297</ele>
        <time>2015-08-29T08:11:58.000Z</time>
      </trkpt>
      <trkpt lat="47.27958" lon="4.9782">
        <ele>322</ele>
        <time>2015-08-29T08:12:03.000Z</time>
      </trkpt>
      <trkpt lat="47.27963" lon="4.97813">
        <ele>321.39999389648</ele>
        <time>2015-08-29T08:12:07.000Z</time>
      </trkpt>
      <trkpt lat="47.27967" lon="4.97806">
        <ele>320.79998779297</ele>
        <time>2015-08-29T08:12:12.000Z</time>
      </trkpt>
      <trkpt lat="47.27973" lon="4.97798">
        <ele>320</ele>
        <time>2015-08-29T08:12:17.000Z</time>
      </trkpt>
      <trkpt lat="47.27976" lon="4.97792">
        <ele>319.60000610352</ele>
        <time>2015-08-29T08:12:22.000Z</time>
      </trkpt>
      <trkpt lat="47.27977" lon="4.9779">
        <ele>319.60000610352</ele>
        <time>2015-08-29T08:12:23.000Z</time>
      </trkpt>
      <trkpt lat="47.27979" lon="4.97787">
        <ele>319.60000610352</ele>
        <time>2015-08-29T08:12:25.000Z</time>
      </trkpt>
      <trkpt lat="47.27982" lon="4.97783">
        <ele>319.39999389648</ele>
        <time>2015-08-29T08:12:28.000Z</time>
      </trkpt>
      <trkpt lat="47.27985" lon="4.97774">
        <ele>319.79998779297</ele>
        <time>2015-08-29T08:12:34.000Z</time>
      </trkpt>
      <trkpt lat="47.27986" lon="4.97767">
        <ele>320.20001220703</ele>
        <time>2015-08-29T08:12:38.000Z</time>
      </trkpt>
      <trkpt lat="47.27988" lon="4.97761">
        <ele>320.39999389648</ele>
        <time>2015-08-29T08:12:42.000Z</time>
      </trkpt>
      <trkpt lat="47.27989" lon="4.9776">
        <ele>320.39999389648</ele>
        <time>2015-08-29T08:12:43.000Z</time>
      </trkpt>
      <trkpt lat="47.2799" lon="4.97759">
        <ele>320.20001220703</ele>
        <time>2015-08-29T08:12:44.000Z</time>
      </trkpt>
      <trkpt lat="47.27992" lon="4.97755">
        <ele>320</ele>
        <time>2015-08-29T08:12:47.000Z</time>
      </trkpt>
      <trkpt lat="47.27995" lon="4.97748">
        <ele>320</ele>
        <time>2015-08-29T08:12:50.000Z</time>
      </trkpt>
      <trkpt lat="47.27998" lon="4.9774">
        <ele>320.39999389648</ele>
        <time>2015-08-29T08:12:54.000Z</time>
      </trkpt>
      <trkpt lat="47.28004" lon="4.97726">
        <ele>321</ele>
        <time>2015-08-29T08:13:01.000Z</time>
      </trkpt>
      <trkpt lat="47.28004" lon="4.97724">
        <ele>321.20001220703</ele>
        <time>2015-08-29T08:13:02.000Z</time>
      </trkpt>
      <trkpt lat="47.28008" lon="4.97716">
        <ele>321.39999389648</ele>
        <time>2015-08-29T08:13:07.000Z</time>
      </trkpt>
      <trkpt lat="47.28013" lon="4.97709">
        <ele>320.60000610352</ele>
        <time>2015-08-29T08:13:11.000Z</time>
      </trkpt>
      <trkpt lat="47.28014" lon="4.97707">
        <ele>320.60000610352</ele>
        <time>2015-08-29T08:13:12.000Z</time>
      </trkpt>
      <trkpt lat="47.28016" lon="4.97703">
        <ele>320.79998779297</ele>
        <time>2015-08-29T08:13:14.000Z</time>
      </trkpt>
      <trkpt lat="47.2802" lon="4.97696">
        <ele>320.79998779297</ele>
        <time>2015-08-29T08:13:21.000Z</time>
      </trkpt>
      <trkpt lat="47.28021" lon="4.97694">
        <ele>320.79998779297</ele>
        <time>2015-08-29T08:13:22.000Z</time>
      </trkpt>
      <trkpt lat="47.28022" lon="4.9769">
        <ele>321</ele>
        <time>2015-08-29T08:13:26.000Z</time>
      </trkpt>
      <trkpt lat="47.2802" lon="4.97684">
        <ele>322</ele>
        <time>2015-08-29T08:13:32.000Z</time>
      </trkpt>
      <trkpt lat="47.2802" lon="4.97681">
        <ele>322.39999389648</ele>
        <time>2015-08-29T08:13:34.000Z</time>
      </trkpt>
      <trkpt lat="47.28019" lon="4.97675">
        <ele>323.20001220703</ele>
        <time>2015-08-29T08:13:39.000Z</time>
      </trkpt>
      <trkpt lat="47.28019" lon="4.9767">
        <ele>323.79998779297</ele>
        <time>2015-08-29T08:13:41.000Z</time>
      </trkpt>
      <trkpt lat="47.28018" lon="4.97667">
        <ele>324.20001220703</ele>
        <time>2015-08-29T08:13:44.000Z</time>
      </trkpt>
      <trkpt lat="47.28018" lon="4.97663">
        <ele>324.60000610352</ele>
        <time>2015-08-29T08:13:47.000Z</time>
      </trkpt>
      <trkpt lat="47.2802" lon="4.9765">
        <ele>325.79998779297</ele>
        <time>2015-08-29T08:13:53.000Z</time>
      </trkpt>
      <trkpt lat="47.2802" lon="4.97643">
        <ele>326.39999389648</ele>
        <time>2015-08-29T08:13:58.000Z</time>
      </trkpt>
      <trkpt lat="47.28021" lon="4.97639">
        <ele>326.60000610352</ele>
        <time>2015-08-29T08:14:00.000Z</time>
      </trkpt>
      <trkpt lat="47.28022" lon="4.97629">
        <ele>327.20001220703</ele>
        <time>2015-08-29T08:14:05.000Z</time>
      </trkpt>
      <trkpt lat="47.28024" lon="4.97621">
        <ele>327.79998779297</ele>
        <time>2015-08-29T08:14:10.000Z</time>
      </trkpt>
      <trkpt lat="47.28024" lon="4.9762">
        <ele>327.79998779297</ele>
        <time>2015-08-29T08:14:11.000Z</time>
      </trkpt>
      <trkpt lat="47.28025" lon="4.97618">
        <ele>328</ele>
        <time>2015-08-29T08:14:12.000Z</time>
      </trkpt>
      <trkpt lat="47.28027" lon="4.97611">
        <ele>328.20001220703</ele>
        <time>2015-08-29T08:14:16.000Z</time>
      </trkpt>
      <trkpt lat="47.28027" lon="4.97607">
        <ele>328.60000610352</ele>
        <time>2015-08-29T08:14:18.000Z</time>
      </trkpt>
      <trkpt lat="47.28027" lon="4.97604">
        <ele>328.79998779297</ele>
        <time>2015-08-29T08:14:20.000Z</time>
      </trkpt>
      <trkpt lat="47.28029" lon="4.97595">
        <ele>329.60000610352</ele>
        <time>2015-08-29T08:14:25.000Z</time>
      </trkpt>
      <trkpt lat="47.28031" lon="4.97586">
        <ele>330</ele>
        <time>2015-08-29T08:14:29.000Z</time>
      </trkpt>
      <trkpt lat="47.28034" lon="4.97577">
        <ele>330.39999389648</ele>
        <time>2015-08-29T08:14:34.000Z</time>
      </trkpt>
      <trkpt lat="47.28035" lon="4.97575">
        <ele>330.20001220703</ele>
        <time>2015-08-29T08:14:35.000Z</time>
      </trkpt>
      <trkpt lat="47.28039" lon="4.97566">
        <ele>329.39999389648</ele>
        <time>2015-08-29T08:14:41.000Z</time>
      </trkpt>
      <trkpt lat="47.28042" lon="4.97556">
        <ele>329.20001220703</ele>
        <time>2015-08-29T08:14:47.000Z</time>
      </trkpt>
      <trkpt lat="47.28046" lon="4.97545">
        <ele>328.60000610352</ele>
        <time>2015-08-29T08:14:54.000Z</time>
      </trkpt>
      <trkpt lat="47.28046" lon="4.97545">
        <ele>328.79998779297</ele>
        <time>2015-08-29T08:14:55.000Z</time>
      </trkpt>
      <trkpt lat="47.28047" lon="4.9754">
        <ele>328.79998779297</ele>
        <time>2015-08-29T08:14:58.000Z</time>
      </trkpt>
      <trkpt lat="47.28048" lon="4.97532">
        <ele>329.20001220703</ele>
        <time>2015-08-29T08:15:01.000Z</time>
      </trkpt>
      <trkpt lat="47.28049" lon="4.97524">
        <ele>329.79998779297</ele>
        <time>2015-08-29T08:15:05.000Z</time>
      </trkpt>
      <trkpt lat="47.28049" lon="4.97522">
        <ele>330.20001220703</ele>
        <time>2015-08-29T08:15:06.000Z</time>
      </trkpt>
      <trkpt lat="47.2805" lon="4.97517">
        <ele>330.60000610352</ele>
        <time>2015-08-29T08:15:09.000Z</time>
      </trkpt>
      <trkpt lat="47.2805" lon="4.97507">
        <ele>331.39999389648</ele>
        <time>2015-08-29T08:15:15.000Z</time>
      </trkpt>
      <trkpt lat="47.28051" lon="4.97501">
        <ele>331.39999389648</ele>
        <time>2015-08-29T08:15:18.000Z</time>
      </trkpt>
      <trkpt lat="47.28053" lon="4.97495">
        <ele>331.20001220703</ele>
        <time>2015-08-29T08:15:22.000Z</time>
      </trkpt>
      <trkpt lat="47.28054" lon="4.97492">
        <ele>331.20001220703</ele>
        <time>2015-08-29T08:15:23.000Z</time>
      </trkpt>
      <trkpt lat="47.28056" lon="4.97489">
        <ele>330.79998779297</ele>
        <time>2015-08-29T08:15:25.000Z</time>
      </trkpt>
      <trkpt lat="47.28057" lon="4.97479">
        <ele>331.39999389648</ele>
        <time>2015-08-29T08:15:30.000Z</time>
      </trkpt>
      <trkpt lat="47.28057" lon="4.97474">
        <ele>331.39999389648</ele>
        <time>2015-08-29T08:15:33.000Z</time>
      </trkpt>
      <trkpt lat="47.28059" lon="4.97466">
        <ele>331.60000610352</ele>
        <time>2015-08-29T08:15:38.000Z</time>
      </trkpt>
      <trkpt lat="47.28061" lon="4.97458">
        <ele>331.60000610352</ele>
        <time>2015-08-29T08:15:43.000Z</time>
      </trkpt>
      <trkpt lat="47.28064" lon="4.97446">
        <ele>332</ele>
        <time>2015-08-29T08:15:50.000Z</time>
      </trkpt>
      <trkpt lat="47.28064" lon="4.97442">
        <ele>332.39999389648</ele>
        <time>2015-08-29T08:15:52.000Z</time>
      </trkpt>
      <trkpt lat="47.28067" lon="4.9743">
        <ele>333.39999389648</ele>
        <time>2015-08-29T08:15:59.000Z</time>
      </trkpt>
      <trkpt lat="47.28067" lon="4.97426">
        <ele>333.60000610352</ele>
        <time>2015-08-29T08:16:01.000Z</time>
      </trkpt>
      <trkpt lat="47.28068" lon="4.97412">
        <ele>335.20001220703</ele>
        <time>2015-08-29T08:16:07.000Z</time>
      </trkpt>
      <trkpt lat="47.28069" lon="4.97405">
        <ele>336</ele>
        <time>2015-08-29T08:16:11.000Z</time>
      </trkpt>
      <trkpt lat="47.28069" lon="4.974">
        <ele>336.60000610352</ele>
        <time>2015-08-29T08:16:13.000Z</time>
      </trkpt>
      <trkpt lat="47.28073" lon="4.9739">
        <ele>336.79998779297</ele>
        <time>2015-08-29T08:16:19.000Z</time>
      </trkpt>
      <trkpt lat="47.28074" lon="4.97382">
        <ele>337.79998779297</ele>
        <time>2015-08-29T08:16:24.000Z</time>
      </trkpt>
      <trkpt lat="47.28075" lon="4.97372">
        <ele>338.60000610352</ele>
        <time>2015-08-29T08:16:30.000Z</time>
      </trkpt>
      <trkpt lat="47.28076" lon="4.97364">
        <ele>339</ele>
        <time>2015-08-29T08:16:35.000Z</time>
      </trkpt>
      <trkpt lat="47.28077" lon="4.97356">
        <ele>339.39999389648</ele>
        <time>2015-08-29T08:16:39.000Z</time>
      </trkpt>
      <trkpt lat="47.2808" lon="4.97349">
        <ele>339</ele>
        <time>2015-08-29T08:16:43.000Z</time>
      </trkpt>
      <trkpt lat="47.28081" lon="4.97345">
        <ele>339.20001220703</ele>
        <time>2015-08-29T08:16:45.000Z</time>
      </trkpt>
      <trkpt lat="47.28081" lon="4.97342">
        <ele>339.39999389648</ele>
        <time>2015-08-29T08:16:47.000Z</time>
      </trkpt>
      <trkpt lat="47.28082" lon="4.97332">
        <ele>340.20001220703</ele>
        <time>2015-08-29T08:16:53.000Z</time>
      </trkpt>
      <trkpt lat="47.28082" lon="4.97331">
        <ele>340.39999389648</ele>
        <time>2015-08-29T08:16:54.000Z</time>
      </trkpt>
      <trkpt lat="47.28083" lon="4.97321">
        <ele>341</ele>
        <time>2015-08-29T08:16:59.000Z</time>
      </trkpt>
      <trkpt lat="47.28083" lon="4.97319">
        <ele>341.20001220703</ele>
        <time>2015-08-29T08:17:00.000Z</time>
      </trkpt>
      <trkpt lat="47.28083" lon="4.9731">
        <ele>341.79998779297</ele>
        <time>2015-08-29T08:17:04.000Z</time>
      </trkpt>
      <trkpt lat="47.28085" lon="4.97301">
        <ele>342.39999389648</ele>
        <time>2015-08-29T08:17:09.000Z</time>
      </trkpt>
      <trkpt lat="47.28085" lon="4.973">
        <ele>342.39999389648</ele>
        <time>2015-08-29T08:17:10.000Z</time>
      </trkpt>
      <trkpt lat="47.28086" lon="4.973">
        <ele>342.20001220703</ele>
        <time>2015-08-29T08:17:11.000Z</time>
      </trkpt>
      <trkpt lat="47.28087" lon="4.97301">
        <ele>342</ele>
        <time>2015-08-29T08:17:15.000Z</time>
      </trkpt>
      <trkpt lat="47.28089" lon="4.97302">
        <ele>341.60000610352</ele>
        <time>2015-08-29T08:17:20.000Z</time>
      </trkpt>
      <trkpt lat="47.28094" lon="4.97305">
        <ele>340.39999389648</ele>
        <time>2015-08-29T08:17:26.000Z</time>
      </trkpt>
      <trkpt lat="47.281" lon="4.97308">
        <ele>339.20001220703</ele>
        <time>2015-08-29T08:17:33.000Z</time>
      </trkpt>
      <trkpt lat="47.28101" lon="4.97309">
        <ele>338.79998779297</ele>
        <time>2015-08-29T08:17:34.000Z</time>
      </trkpt>
      <trkpt lat="47.28105" lon="4.9731">
        <ele>337.79998779297</ele>
        <time>2015-08-29T08:17:38.000Z</time>
      </trkpt>
      <trkpt lat="47.28108" lon="4.97311">
        <ele>337.20001220703</ele>
        <time>2015-08-29T08:17:40.000Z</time>
      </trkpt>
      <trkpt lat="47.28109" lon="4.97311">
        <ele>337</ele>
        <time>2015-08-29T08:17:42.000Z</time>
      </trkpt>
      <trkpt lat="47.28113" lon="4.97313">
        <ele>336.20001220703</ele>
        <time>2015-08-29T08:17:46.000Z</time>
      </trkpt>
      <trkpt lat="47.28116" lon="4.97315">
        <ele>335.60000610352</ele>
        <time>2015-08-29T08:17:50.000Z</time>
      </trkpt>
      <trkpt lat="47.28121" lon="4.97318">
        <ele>334.39999389648</ele>
        <time>2015-08-29T08:17:55.000Z</time>
      </trkpt>
      <trkpt lat="47.28125" lon="4.9732">
        <ele>333.39999389648</ele>
        <time>2015-08-29T08:18:01.000Z</time>
      </trkpt>
      <trkpt lat="47.28126" lon="4.97321">
        <ele>333.20001220703</ele>
        <time>2015-08-29T08:18:02.000Z</time>
      </trkpt>
      <trkpt lat="47.28133" lon="4.97327">
        <ele>331.39999389648</ele>
        <time>2015-08-29T08:18:11.000Z</time>
      </trkpt>
      <trkpt lat="47.28134" lon="4.97329">
        <ele>331.20001220703</ele>
        <time>2015-08-29T08:18:13.000Z</time>
      </trkpt>
      <trkpt lat="47.28142" lon="4.97331">
        <ele>329.39999389648</ele>
        <time>2015-08-29T08:18:20.000Z</time>
      </trkpt>
      <trkpt lat="47.28146" lon="4.97332">
        <ele>328.60000610352</ele>
        <time>2015-08-29T08:18:23.000Z</time>
      </trkpt>
      <trkpt lat="47.2815" lon="4.97333">
        <ele>327.60000610352</ele>
        <time>2015-08-29T08:18:27.000Z</time>
      </trkpt>
      <trkpt lat="47.28155" lon="4.97335">
        <ele>326.39999389648</ele>
        <time>2015-08-29T08:18:32.000Z</time>
      </trkpt>
      <trkpt lat="47.2816" lon="4.97336">
        <ele>325.39999389648</ele>
        <time>2015-08-29T08:18:36.000Z</time>
      </trkpt>
      <trkpt lat="47.28164" lon="4.97331">
        <ele>325.20001220703</ele>
        <time>2015-08-29T08:18:41.000Z</time>
      </trkpt>
      <trkpt lat="47.28165" lon="4.9733">
        <ele>325.39999389648</ele>
        <time>2015-08-29T08:18:42.000Z</time>
      </trkpt>
      <trkpt lat="47.28169" lon="4.97327">
        <ele>326</ele>
        <time>2015-08-29T08:18:48.000Z</time>
      </trkpt>
      <trkpt lat="47.28172" lon="4.97325">
        <ele>326.39999389648</ele>
        <time>2015-08-29T08:18:51.000Z</time>
      </trkpt>
      <trkpt lat="47.28178" lon="4.97322">
        <ele>327</ele>
        <time>2015-08-29T08:18:56.000Z</time>
      </trkpt>
      <trkpt lat="47.28183" lon="4.97318">
        <ele>327.79998779297</ele>
        <time>2015-08-29T08:19:01.000Z</time>
      </trkpt>
      <trkpt lat="47.28186" lon="4.97316">
        <ele>328.20001220703</ele>
        <time>2015-08-29T08:19:04.000Z</time>
      </trkpt>
      <trkpt lat="47.28187" lon="4.97316">
        <ele>328.39999389648</ele>
        <time>2015-08-29T08:19:08.000Z</time>
      </trkpt>
    </trkseg>
  </trk>
</gpx>